[[{"header":{"parameterUnit":"m.s-1","parameterCategory":1,"la1":30.6,"la2":28.766,"lo1":-90.7593,"lo2":-88.6598,"dy":0.0162,"dx":0.0183,"nx":116,"ny":114,"refTime":"2023-02-27T06:00:00:Z","depth":0,"parameterNumber":2,"parameterNumberName":"U-component_of_WINDS"},"data":[0.0,0.0,0.0,0.0,0.0,0.0,0.0,0.0,0.0,0.0,0.0,0.0,0.0,0.0,0.0,0.0,0.0,0.0,0.0,0.0,0.0,0.0,0.0,0.0,0.0,0.0,0.0,0.0,0.0,0.0,0.0,0.0,0.0,0.0,0.0,0.0,0.0,0.0,0.0,0.0,0.0,0.0,0.0,0.0,0.0,0.0,0.0,0.0,0.0,0.0,0.0,0.0,0.0,0.0,0.0,0.0,0.0,0.0,0.0,0.0,0.0,0.0,0.0,0.0,0.0,0.0,0.0,0.0,0.0,0.0,0.0,0.0,0.0,0.0,0.0,0.0,0.0,0.0,0.0,0.0,0.0,0.0,0.0,0.0,0.0,0.0,0.0,0.0,0.0,0.0,0.0,0.0,0.0,0.0,0.0,0.0,0.0,0.0,0.0,0.0,0.0,0.0,0.0,0.0,0.0,0.0,0.0,0.0,0.0,0.0,0.0,0.0,0.0,0.0,0.0,0.0,0.0,0.0,0.0,0.0,0.0,0.0,0.0,0.0,0.0,0.0,0.0,0.0,0.0,0.0,0.0,0.0,0.0,0.0,0.0,0.0,0.0,0.0,0.0,0.0,0.0,0.0,0.0,0.0,0.0,0.0,0.0,0.0,0.0,0.0,0.0,0.0,0.0,0.0,0.0,0.0,0.0,0.0,0.0,0.0,0.0,0.0,0.0,0.0,0.0,0.0,0.0,0.0,0.0,0.0,0.0,0.0,0.0,0.0,0.0,0.0,0.0,0.0,0.0,0.0,0.0,0.0,0.0,0.0,0.0,0.0,0.0,0.0,0.0,0.0,0.0,0.0,0.0,0.0,0.0,0.0,0.0,0.0,0.0,0.0,0.0,0.0,0.0,0.0,0.0,0.0,0.0,0.0,0.0,0.0,0.0,0.0,0.0,0.0,0.0,0.0,0.0,0.0,0.0,0.0,0.0,0.0,0.0,0.0,0.0,0.0,0.0,0.0,0.0,0.0,0.0,0.0,0.0,0.0,0.0,0.0,0.0,0.0,0.0,0.0,0.0,0.0,0.0,0.0,0.0,0.0,0.0,0.0,0.0,0.0,0.0,0.0,0.0,0.0,0.0,0.0,0.0,0.0,0.0,0.0,0.0,0.0,0.0,0.0,0.0,0.0,0.0,0.0,0.0,0.0,0.0,0.0,0.0,0.0,0.0,0.0,0.0,0.0,0.0,0.0,0.0,0.0,0.0,0.0,0.0,0.0,0.0,0.0,0.0,0.0,0.0,0.0,0.0,0.0,0.0,0.0,0.0,0.0,0.0,0.0,0.0,0.0,0.0,0.0,0.0,0.0,0.0,0.0,0.0,0.0,0.0,0.0,0.0,0.0,0.0,0.0,0.0,0.0,0.0,0.0,0.0,0.0,0.0,0.0,0.0,0.0,0.0,0.0,0.0,0.0,0.0,0.0,0.0,0.0,0.0,0.0,0.0,0.0,0.0,0.0,0.0,0.0,0.0,0.0,0.0,0.0,0.0,0.0,0.0,0.0,0.0,0.0,0.0,0.0,0.0,0.0,0.0,0.0,0.0,0.0,0.0,0.0,0.0,0.0,0.0,0.0,0.0,0.0,0.0,0.0,0.0,0.0,0.0,0.0,0.0,0.0,0.0,0.0,0.0,0.0,0.0,0.0,0.0,0.0,0.0,0.0,0.0,0.0,0.0,0.0,0.0,0.0,0.0,0.0,0.0,0.0,0.0,0.0,0.0,0.0,0.0,0.0,0.0,0.0,0.0,0.0,0.0,0.0,0.0,0.0,0.0,0.0,0.0,0.0,0.0,0.0,0.0,0.0,0.0,0.0,0.0,0.0,0.0,0.0,0.0,0.0,0.0,0.0,0.0,0.0,0.0,0.0,0.0,0.0,0.0,0.0,0.0,0.0,0.0,0.0,0.0,0.0,0.0,0.0,0.0,0.0,0.0,0.0,0.0,0.0,0.0,0.0,0.0,0.0,0.0,0.0,0.0,0.0,0.0,0.0,0.0,0.0,0.0,0.0,0.0,0.0,0.0,0.0,0.0,0.0,0.0,0.0,0.0,0.0,0.0,0.0,0.0,0.0,0.0,0.0,0.0,0.0,0.0,0.0,0.0,0.0,0.0,0.0,0.0,0.0,0.0,0.0,0.0,0.0,0.0,0.0,0.0,0.0,0.0,0.0,0.0,0.0,0.0,0.0,0.0,0.0,0.0,0.0,0.0,0.0,0.0,0.0,0.0,0.0,0.0,0.0,0.0,0.0,0.0,0.0,0.0,0.0,0.0,0.0,0.0,0.0,0.0,0.0,0.0,0.0,0.0,0.0,0.0,0.0,0.0,0.0,0.0,0.0,0.0,0.0,0.0,0.0,0.0,0.0,0.0,0.0,0.0,0.0,0.0,0.0,0.0,0.0,0.0,0.0,0.0,0.0,0.0,0.0,0.0,0.0,0.0,0.0,0.0,0.0,0.0,0.0,0.0,0.0,0.0,0.0,0.0,0.0,0.0,0.0,0.0,0.0,0.0,0.0,0.0,0.0,0.0,0.0,0.0,0.0,0.0,0.0,0.0,0.0,0.0,0.0,0.0,0.0,0.0,0.0,0.0,0.0,0.0,0.0,0.0,0.0,0.0,0.0,0.0,0.0,0.0,0.0,0.0,0.0,0.0,0.0,0.0,0.0,0.0,0.0,0.0,0.0,0.0,0.0,0.0,0.0,0.0,0.0,0.0,0.0,0.0,0.0,0.0,0.0,0.0,0.0,0.0,0.0,0.0,0.0,0.0,0.0,0.0,0.0,0.0,0.0,0.0,0.0,0.0,0.0,0.0,0.0,0.0,0.0,0.0,0.0,0.0,0.0,0.0,0.0,0.0,0.0,0.0,0.0,0.0,0.0,0.0,0.0,0.0,0.0,0.0,0.0,0.0,0.0,0.0,0.0,0.0,0.0,0.0,0.0,0.0,0.0,0.0,0.0,0.0,0.0,0.0,0.0,0.0,0.0,0.0,0.0,0.0,0.0,0.0,0.0,0.0,0.0,0.0,0.0,0.0,0.0,0.0,0.0,0.0,0.0,0.0,0.0,0.0,0.0,0.0,0.0,0.0,0.0,0.0,0.0,0.0,0.0,0.0,0.0,0.0,0.0,0.0,0.0,0.0,0.0,0.0,0.0,0.0,0.0,0.0,0.0,0.0,0.0,0.0,0.0,0.0,0.0,0.0,0.0,0.0,0.0,0.0,0.0,0.0,0.0,0.0,0.0,0.0,0.0,0.0,0.0,0.0,0.0,0.0,0.0,0.0,0.0,0.0,0.0,0.0,0.0,0.0,0.0,0.0,0.0,0.0,0.0,0.0,0.0,0.0,0.0,0.0,0.0,0.0,0.0,0.0,0.0,0.0,0.0,0.0,0.0,0.0,0.0,0.0,0.0,0.0,0.0,0.0,0.0,0.0,0.0,0.0,0.0,0.0,0.0,0.0,0.0,0.0,0.0,0.0,0.0,0.0,0.0,0.0,0.0,0.0,0.0,0.0,0.0,0.0,0.0,0.0,0.0,0.0,0.0,0.0,0.0,0.0,0.0,0.0,0.0,0.0,0.0,0.0,0.0,0.0,0.0,0.0,0.0,0.0,0.0,0.0,0.0,0.0,0.0,0.0,0.0,0.0,0.0,0.0,0.0,0.0,0.0,0.0,0.0,0.0,0.0,0.0,0.0,0.0,0.0,0.0,0.0,0.0,0.0,0.0,0.0,0.0,0.0,0.0,0.0,0.0,0.0,0.0,0.0,0.0,0.0,0.0,0.0,0.0,0.0,0.0,0.0,0.0,0.0,0.0,0.0,0.0,0.0,0.0,0.0,0.0,0.0,0.0,0.0,0.0,0.0,0.0,0.0,0.0,0.0,0.0,0.0,0.0,0.0,0.0,0.0,0.0,0.0,0.0,0.0,0.0,0.0,0.0,0.0,0.0,0.0,0.0,0.0,0.0,0.0,0.0,0.0,0.0,0.0,0.0,0.0,0.0,0.0,0.0,0.0,0.0,0.0,0.0,0.0,0.0,0.0,0.0,0.0,0.0,0.0,0.0,0.0,0.0,0.0,0.0,0.0,0.0,0.0,0.0,0.0,0.0,0.0,0.0,0.0,0.0,0.0,0.0,0.0,0.0,0.0,0.0,0.0,0.0,0.0,0.0,0.0,0.0,0.0,0.0,0.0,0.0,0.0,0.0,0.0,0.0,0.0,0.0,0.0,0.0,0.0,0.0,0.0,0.0,0.0,0.0,0.0,0.0,0.0,0.0,0.0,0.0,0.0,0.0,0.0,0.0,0.0,0.0,0.0,0.0,0.0,0.0,0.0,0.0,0.0,0.0,0.0,0.0,0.0,0.0,0.0,0.0,0.0,0.0,0.0,0.0,0.0,0.0,0.0,0.0,0.0,0.0,0.0,0.0,0.0,0.0,0.0,0.0,0.0,0.0,0.0,0.0,0.0,0.0,0.0,0.0,0.0,0.0,0.0,0.0,0.0,0.0,0.0,0.0,0.0,0.0,0.0,0.0,0.0,0.0,0.0,0.0,0.0,0.0,0.0,0.0,0.0,0.0,0.0,0.0,0.0,0.0,0.0,0.0,0.0,0.0,0.0,0.0,0.0,0.0,0.0,0.0,0.0,0.0,0.0,0.0,0.0,0.0,0.0,0.0,0.0,0.0,0.0,0.0,0.0,0.0,0.0,0.0,0.0,0.0,0.0,0.0,0.0,0.0,0.0,0.0,0.0,0.0,0.0,0.0,0.0,0.0,0.0,0.0,0.0,0.0,0.0,0.0,0.0,0.0,0.0,0.0,0.0,0.0,0.0,0.0,0.0,0.0,0.0,0.0,0.0,0.0,0.0,0.0,0.0,0.0,0.0,0.0,0.0,0.0,0.0,0.0,0.0,0.0,0.0,0.0,0.0,0.0,0.0,0.0,0.0,0.0,0.0,0.0,0.0,0.0,0.0,0.0,0.0,0.0,0.0,0.0,0.0,0.0,0.0,0.0,0.0,0.0,0.0,0.0,0.0,0.0,0.0,0.0,0.0,0.0,0.0,0.0,0.0,0.0,0.0,0.0,0.0,0.0,0.0,0.0,0.0,0.0,0.0,0.0,0.0,0.0,0.0,0.0,0.0,0.0,0.0,0.0,0.0,0.0,0.0,0.0,0.0,0.0,0.0,0.0,0.0,0.0,0.0,0.0,0.0,0.0,0.0,0.0,0.0,0.0,0.0,0.0,0.0,0.0,0.0,0.0,0.0,0.0,0.0,0.0,0.0,0.0,0.0,0.0,0.0,0.0,0.0,0.0,0.0,0.0,0.0,0.0,0.0,0.0,0.0,0.0,0.0,0.0,0.0,0.0,0.0,0.0,0.0,0.0,0.0,0.0,0.0,0.0,0.0,0.0,0.0,0.0,0.0,0.0,0.0,0.0,0.0,0.0,0.0,0.0,0.0,0.0,0.0,0.0,0.0,0.0,0.0,0.0,0.0,0.0,0.0,0.0,0.0,0.0,0.0,0.0,0.0,0.0,0.0,0.0,0.0,0.0,0.0,0.0,0.0,0.0,0.0,0.0,0.0,0.0,0.0,0.0,0.0,0.0,0.0,0.0,0.0,0.0,0.0,0.0,0.0,0.0,0.0,0.0,0.0,0.0,0.0,0.0,0.0,0.0,0.0,0.0,0.0,0.0,0.0,0.0,0.0,0.0,0.0,0.0,0.0,0.0,0.0,0.0,0.0,0.0,0.0,0.0,0.0,0.0,0.0,0.0,0.0,0.0,0.0,0.0,0.0,0.0,0.0,0.0,0.0,0.0,0.0,0.0,0.0,0.0,0.0,0.0,0.0,0.0,0.0,0.0,0.0,0.0,0.0,0.0,0.0,0.0,0.0,0.0,0.0,0.0,0.0,0.0,0.0,0.0,0.0,0.0,0.0,0.0,0.0,0.0,0.0,0.0,0.0,0.0,0.0,0.0,0.0,0.0,0.0,0.0,0.0,0.0,0.0,0.0,0.0,0.0,0.0,0.0,0.0,0.0,0.0,0.0,0.0,0.0,0.0,0.0,0.0,-3.6941,0.0,0.0,0.0,0.0,0.0,0.0,0.0,0.0,0.0,0.0,0.0,0.0,0.0,0.0,0.0,0.0,0.0,0.0,0.0,0.0,0.0,0.0,0.0,0.0,0.0,0.0,0.0,0.0,0.0,0.0,0.0,0.0,0.0,0.0,0.0,0.0,0.0,0.0,0.0,0.0,0.0,0.0,0.0,0.0,0.0,0.0,0.0,0.0,0.0,0.0,0.0,0.0,0.0,0.0,0.0,0.0,0.0,0.0,0.0,0.0,0.0,0.0,0.0,0.0,0.0,0.0,0.0,0.0,0.0,0.0,0.0,0.0,0.0,0.0,0.0,0.0,0.0,0.0,0.0,0.0,0.0,0.0,0.0,0.0,0.0,0.0,0.0,0.0,0.0,0.0,0.0,0.0,0.0,0.0,0.0,0.0,0.0,0.0,0.0,0.0,0.0,0.0,0.0,0.0,0.0,0.0,0.0,0.0,0.0,0.0,0.0,0.0,0.0,0.0,0.0,0.0,-3.7206,0.0,0.0,0.0,0.0,0.0,0.0,0.0,0.0,0.0,0.0,0.0,0.0,0.0,0.0,0.0,0.0,0.0,0.0,0.0,0.0,0.0,0.0,0.0,0.0,0.0,0.0,0.0,0.0,0.0,0.0,0.0,0.0,0.0,0.0,0.0,0.0,0.0,0.0,0.0,0.0,0.0,0.0,0.0,0.0,0.0,0.0,0.0,0.0,0.0,0.0,0.0,0.0,0.0,0.0,0.0,0.0,0.0,0.0,0.0,0.0,0.0,0.0,0.0,0.0,0.0,0.0,0.0,0.0,0.0,0.0,0.0,0.0,0.0,0.0,0.0,0.0,0.0,0.0,0.0,0.0,0.0,0.0,0.0,0.0,0.0,0.0,0.0,0.0,0.0,0.0,0.0,0.0,0.0,0.0,0.0,0.0,0.0,0.0,0.0,0.0,0.0,0.0,0.0,0.0,0.0,0.0,0.0,0.0,-4.2247,-4.2723,-4.2612,-4.3429,-4.3429,-4.2649,-4.0067,-3.8339,-3.7318,0.0,0.0,0.0,0.0,0.0,0.0,0.0,0.0,0.0,0.0,0.0,0.0,0.0,0.0,0.0,0.0,0.0,0.0,0.0,0.0,0.0,0.0,0.0,0.0,0.0,0.0,0.0,0.0,0.0,0.0,0.0,0.0,0.0,0.0,0.0,0.0,0.0,0.0,0.0,-4.0797,-4.1654,-4.2513,-4.3295,0.0,0.0,0.0,0.0,0.0,0.0,0.0,0.0,0.0,0.0,0.0,0.0,0.0,0.0,0.0,0.0,0.0,0.0,0.0,0.0,0.0,0.0,0.0,0.0,0.0,0.0,0.0,0.0,0.0,0.0,0.0,0.0,0.0,0.0,0.0,0.0,0.0,0.0,0.0,0.0,0.0,0.0,0.0,0.0,-3.7546,-3.5865,0.0,0.0,0.0,0.0,0.0,0.0,0.0,0.0,0.0,0.0,0.0,0.0,0.0,0.0,-4.2641,-4.3536,-4.3484,-4.2523,-4.2701,-4.2426,-4.1776,-4.2593,-4.289,-4.2816,-4.3076,0.0,-3.9858,-3.9101,0.0,0.0,0.0,0.0,0.0,0.0,0.0,0.0,0.0,0.0,0.0,0.0,0.0,0.0,0.0,0.0,0.0,0.0,0.0,0.0,0.0,0.0,0.0,0.0,0.0,0.0,0.0,0.0,0.0,0.0,0.0,0.0,0.0,0.0,0.0,0.0,-3.9177,-4.0875,-4.2573,-4.345,-4.4328,-4.5129,-4.4367,-4.3626,-4.2923,-4.2142,0.0,0.0,0.0,0.0,0.0,0.0,0.0,0.0,0.0,0.0,0.0,0.0,0.0,0.0,0.0,0.0,0.0,0.0,0.0,0.0,0.0,0.0,0.0,0.0,0.0,0.0,0.0,0.0,0.0,0.0,0.0,0.0,0.0,0.0,0.0,0.0,0.0,0.0,0.0,-3.9777,-3.9335,-3.7161,-3.8373,-3.9084,0.0,0.0,0.0,0.0,0.0,0.0,0.0,0.0,0.0,-4.3022,-4.3507,-4.3861,-4.4102,-4.4655,-4.4922,-4.4896,-4.5807,-4.629,-4.6401,-4.7256,-4.7367,-4.6903,-4.681,-4.5639,-4.3689,-4.1906,-4.0643,-3.9788,0.0,0.0,0.0,0.0,0.0,-3.99,0.0,0.0,0.0,0.0,0.0,0.0,0.0,0.0,0.0,0.0,0.0,0.0,0.0,0.0,0.0,0.0,0.0,0.0,0.0,0.0,0.0,0.0,0.0,0.0,0.0,0.0,0.0,0.0,-4.1271,-4.2989,-4.4727,-4.5583,-4.6459,-4.726,-4.7278,-4.6066,-4.3977,-4.3099,-4.2611,0.0,0.0,0.0,0.0,0.0,0.0,0.0,0.0,0.0,0.0,0.0,0.0,0.0,0.0,0.0,0.0,0.0,0.0,0.0,0.0,0.0,0.0,0.0,0.0,0.0,0.0,0.0,0.0,0.0,0.0,0.0,0.0,0.0,0.0,0.0,0.0,0.0,0.0,-4.0931,-4.1104,-3.8334,-4.0065,-4.0977,0.0,0.0,0.0,0.0,0.0,0.0,-4.1824,-4.3471,-4.4624,-4.5055,-4.5451,-4.5821,-4.6156,-4.6697,-4.7243,-4.7776,-4.8964,-4.9745,-5.0135,-5.0766,-5.0599,-4.9763,-4.9169,-4.8091,-4.6605,-4.4135,-4.2389,-4.1274,-4.0866,-4.0438,-4.0104,-4.0531,-4.0713,-4.0791,0.0,0.0,0.0,0.0,0.0,0.0,0.0,0.0,0.0,0.0,0.0,0.0,0.0,0.0,0.0,0.0,0.0,0.0,0.0,0.0,0.0,0.0,0.0,0.0,0.0,0.0,0.0,-4.2214,-4.3957,-4.5697,-4.7415,-4.8306,-4.9122,-4.9905,-4.9915,-4.9382,-4.8271,-4.5012,-4.4563,-4.5753,0.0,0.0,0.0,0.0,0.0,0.0,0.0,0.0,0.0,0.0,0.0,0.0,0.0,0.0,0.0,0.0,0.0,0.0,0.0,0.0,0.0,0.0,0.0,0.0,0.0,0.0,0.0,0.0,0.0,0.0,0.0,0.0,0.0,0.0,0.0,0.0,0.0,0.0,0.0,-3.8392,-4.1623,0.0,0.0,0.0,0.0,-4.3989,-4.4124,-4.4509,-4.5306,-4.4974,-4.5507,-4.7112,-4.7655,-4.8543,-4.9834,-5.0927,-5.1378,-5.1156,-5.1249,-5.0859,-5.0098,-5.0153,-4.9726,-4.8964,-4.8927,-4.8426,-4.746,-4.4952,-4.3893,-4.367,-4.2129,-4.198,-4.2519,-4.1813,-4.1534,-4.1553,0.0,0.0,0.0,0.0,0.0,0.0,0.0,0.0,0.0,0.0,0.0,0.0,0.0,0.0,0.0,0.0,0.0,0.0,0.0,0.0,0.0,0.0,0.0,0.0,0.0,0.0,-4.0652,-4.4069,-4.5812,-4.7533,-4.9231,-5.0107,-5.0963,-5.1799,-5.2362,-5.2435,-5.1921,-4.8447,-4.6066,-4.4524,-4.3276,-4.2105,0.0,0.0,0.0,0.0,0.0,0.0,0.0,0.0,0.0,0.0,0.0,0.0,0.0,0.0,0.0,0.0,0.0,0.0,0.0,0.0,0.0,0.0,0.0,0.0,0.0,0.0,0.0,0.0,0.0,0.0,0.0,0.0,0.0,0.0,0.0,0.0,0.0,-4.1566,-4.4528,0.0,0.0,-4.4528,-4.5201,-4.4355,-4.6138,-4.7159,-4.6967,-4.8118,-4.9048,-4.9673,-5.0195,-5.0724,-5.1191,-5.1424,-5.1487,-5.1416,-5.1918,-5.2011,-5.1732,-5.2252,-5.2048,-5.1249,-5.0729,-5.0023,-4.9113,-4.7163,-4.5769,-4.4785,-4.4209,-4.3801,-4.3615,-4.3875,-4.3968,-4.4061,0.0,0.0,0.0,0.0,0.0,0.0,0.0,0.0,0.0,0.0,0.0,0.0,0.0,0.0,0.0,0.0,0.0,0.0,0.0,0.0,0.0,0.0,0.0,0.0,0.0,-4.0436,-4.2862,-4.6317,-4.7769,-4.9177,-5.0563,-5.1439,-5.2294,-5.3188,-5.4042,-5.4447,-5.4283,-5.196,-4.9013,-4.5773,-4.4914,-4.4055,-4.3099,0.0,0.0,0.0,0.0,0.0,0.0,0.0,0.0,0.0,0.0,0.0,0.0,0.0,0.0,0.0,0.0,0.0,0.0,0.0,0.0,0.0,0.0,0.0,0.0,0.0,0.0,0.0,0.0,0.0,0.0,0.0,0.0,0.0,0.0,0.0,-4.5932,-4.4547,-4.7336,-4.8509,-4.624,-4.7336,-4.778,-4.6801,-4.8713,-4.9767,-4.9408,-5.0688,-5.1561,-5.1845,-5.2,-5.22,-5.2462,-5.2288,-5.2215,-5.2215,-5.2754,-5.2865,-5.2624,-5.3144,-5.281,-5.1769,-5.1231,-5.0655,-5.0023,-4.8946,-4.8054,-4.7256,-4.6141,-4.5509,-4.5287,-4.5584,-4.5695,-4.5769,0.0,0.0,0.0,0.0,0.0,0.0,0.0,0.0,0.0,0.0,0.0,0.0,0.0,0.0,0.0,0.0,0.0,0.0,0.0,0.0,0.0,0.0,0.0,0.0,-3.9917,-4.2508,-4.5502,-4.8939,-4.9843,-5.0683,-5.1465,-5.2359,-5.3234,-5.4073,-5.4956,-5.5339,-5.5337,0.0,0.0,0.0,0.0,0.0,-4.7235,0.0,0.0,0.0,0.0,0.0,0.0,0.0,0.0,0.0,0.0,0.0,0.0,0.0,0.0,0.0,0.0,0.0,0.0,0.0,0.0,0.0,0.0,0.0,0.0,0.0,0.0,0.0,0.0,0.0,0.0,0.0,0.0,0.0,-4.322,-4.6086,-4.7894,-4.7154,-4.9962,-5.1308,-4.9644,-5.0279,-5.1015,-5.1525,-5.1826,-5.2231,-5.2754,-5.2501,-5.2707,-5.3493,-5.2945,-5.3014,-5.3794,-5.3813,-5.3813,-5.3813,-5.3813,-5.3385,-5.2642,-5.2642,-5.1788,-5.0302,-5.0283,-5.0246,-5.019,-5.0153,-5.0636,-5.1082,-4.7906,-4.7125,-4.772,-4.6903,-4.6605,-4.6568,0.0,0.0,0.0,0.0,0.0,0.0,0.0,0.0,0.0,0.0,0.0,0.0,0.0,0.0,0.0,0.0,0.0,0.0,0.0,0.0,0.0,0.0,0.0,0.0,-4.3509,-4.551,-4.7585,-4.9772,-5.1286,-5.2128,-5.2382,0.0,0.0,0.0,0.0,0.0,0.0,0.0,0.0,0.0,0.0,0.0,-4.7352,0.0,0.0,0.0,0.0,0.0,0.0,0.0,0.0,0.0,0.0,0.0,0.0,0.0,0.0,0.0,0.0,0.0,0.0,0.0,0.0,0.0,0.0,0.0,0.0,0.0,0.0,0.0,0.0,0.0,0.0,0.0,0.0,-4.5855,-4.5855,-4.824,-5.0125,-5.0481,-5.2452,-5.3106,-5.1385,-5.2568,-5.3259,-5.2762,-5.3756,-5.432,-5.4235,-5.3924,-5.3731,-5.3717,-5.3572,-5.359,-5.3813,-5.3813,-5.3813,-5.3813,-5.3813,-5.3683,-5.3478,-5.3478,-5.3237,-5.2791,-5.2197,-5.1936,-5.1881,-5.1286,-5.1175,-5.1305,-5.0413,-5.019,-5.0283,-4.9429,-4.8742,-4.824,0.0,0.0,0.0,0.0,0.0,0.0,0.0,0.0,0.0,0.0,0.0,0.0,0.0,0.0,0.0,0.0,0.0,0.0,0.0,0.0,0.0,0.0,0.0,-4.2884,-4.6025,-4.7774,-4.9475,0.0,0.0,0.0,0.0,0.0,0.0,0.0,0.0,0.0,0.0,0.0,0.0,0.0,0.0,0.0,-5.0555,-4.8074,-4.7352,-4.7451,-4.5714,-4.5285,-4.5382,-4.4387,0.0,0.0,0.0,0.0,0.0,0.0,0.0,0.0,0.0,0.0,0.0,0.0,0.0,0.0,0.0,0.0,0.0,0.0,0.0,0.0,0.0,0.0,0.0,0.0,-4.7048,-4.8856,-4.9933,-5.1048,-5.2183,-5.3356,-5.4703,-5.528,-5.4635,-5.5164,-5.544,-5.5155,-5.5223,-5.5357,-5.5503,-5.4871,-5.4413,-5.4229,-5.4089,-5.3944,-5.3794,-5.3813,-5.3813,-5.3813,-5.3813,-5.3813,-5.3813,-5.3813,-5.3627,0.0,-5.281,-5.2605,-5.2568,-5.2104,-5.2104,0.0,0.0,0.0,0.0,0.0,-4.98,-4.9355,0.0,0.0,0.0,0.0,0.0,0.0,0.0,0.0,0.0,0.0,0.0,0.0,0.0,0.0,0.0,0.0,0.0,0.0,0.0,0.0,0.0,0.0,-4.2358,-4.5363,0.0,0.0,0.0,0.0,0.0,0.0,0.0,0.0,0.0,0.0,0.0,0.0,0.0,0.0,0.0,0.0,0.0,0.0,-5.4947,-5.1648,-5.0867,-5.1316,-4.9579,-4.8111,-4.6956,-4.6663,0.0,0.0,0.0,0.0,0.0,0.0,0.0,0.0,0.0,0.0,0.0,0.0,0.0,0.0,0.0,0.0,0.0,0.0,0.0,0.0,0.0,0.0,0.0,0.0,-4.9933,-5.1972,-5.4434,-5.4203,-5.4337,-5.5818,-5.6676,-5.7453,-5.8223,-5.7588,-5.7336,-5.7813,-5.6403,-5.5772,-5.6414,0.0,0.0,0.0,0.0,-5.4107,-5.3794,-5.3813,-5.3813,-5.3813,-5.3813,-5.3813,-5.3813,-5.3813,-5.3423,-5.2735,-5.2735,-5.2735,-5.2735,-5.2735,-5.3162,-5.3664,-5.2234,-5.1565,-5.1305,-5.0525,-5.0135,0.0,0.0,0.0,0.0,0.0,0.0,0.0,0.0,0.0,0.0,0.0,0.0,0.0,0.0,0.0,0.0,0.0,0.0,0.0,0.0,0.0,0.0,0.0,0.0,0.0,0.0,0.0,0.0,0.0,0.0,0.0,0.0,0.0,0.0,0.0,0.0,0.0,0.0,0.0,0.0,0.0,0.0,0.0,-5.5066,-5.2995,-5.2292,-5.2214,-5.0477,-5.0466,-5.0984,-4.8872,-4.8885,-4.9365,-4.6881,0.0,0.0,0.0,0.0,0.0,0.0,0.0,0.0,0.0,0.0,0.0,0.0,0.0,0.0,0.0,0.0,0.0,0.0,0.0,0.0,-4.9856,-5.2202,-5.4414,-5.625,-5.6992,-5.7434,-5.7761,-5.7953,-5.8107,-5.828,-5.8146,-5.8085,-5.8193,-5.7251,-5.651,-5.6116,-5.5272,0.0,-5.3999,-5.3926,-5.387,-5.3813,-5.3813,-5.3813,-5.3813,0.0,0.0,-5.3813,-5.3813,-5.372,-5.3571,-5.3571,-5.3571,-5.3571,-5.3571,-5.3664,-5.3775,-5.346,-5.2549,-5.1379,-5.1212,-5.0302,-4.9113,0.0,0.0,0.0,0.0,0.0,0.0,0.0,0.0,0.0,0.0,0.0,0.0,0.0,0.0,0.0,0.0,0.0,0.0,0.0,0.0,0.0,0.0,0.0,0.0,0.0,0.0,0.0,0.0,0.0,0.0,0.0,0.0,0.0,0.0,0.0,0.0,0.0,0.0,0.0,0.0,0.0,0.0,-5.7719,-5.6391,-5.5594,-5.5035,-5.418,-5.3775,-5.3388,-5.1671,-5.1301,-5.1175,-4.8991,-4.7388,-4.6034,0.0,0.0,0.0,0.0,0.0,0.0,0.0,0.0,0.0,0.0,0.0,0.0,0.0,0.0,-4.5874,0.0,0.0,-5.0856,-5.3424,-5.528,-5.6838,-5.8088,-5.9011,-5.9396,-5.8954,-5.8896,-5.9069,-5.9511,-5.9165,-5.9088,-5.9511,-5.7653,-5.6611,-5.6892,-5.5409,-5.4397,-5.4054,-5.4054,-5.3963,-5.3794,-5.3813,-5.3813,-5.3813,-5.3813,-5.3813,-5.3813,-5.3813,-5.3813,-5.3813,-5.3813,-5.3813,-5.3813,-5.3813,-5.3813,-5.3775,-5.3367,-5.2717,-5.1955,-5.1546,-5.0599,-4.9447,0.0,0.0,0.0,0.0,0.0,0.0,0.0,0.0,0.0,0.0,0.0,0.0,0.0,0.0,0.0,0.0,0.0,0.0,0.0,0.0,0.0,0.0,0.0,0.0,0.0,0.0,0.0,0.0,0.0,0.0,0.0,0.0,0.0,0.0,0.0,0.0,0.0,0.0,0.0,0.0,0.0,0.0,-6.0765,-5.9856,-5.8834,-5.7844,-5.7485,-5.6163,-5.4466,-5.378,-5.2898,-5.1846,-5.0668,-4.9628,-4.8317,-4.5605,-4.5066,0.0,0.0,0.0,0.0,0.0,0.0,0.0,0.0,0.0,-4.4297,-4.5124,-4.6797,-4.8702,-5.0587,-5.201,-5.3857,-5.678,-5.7973,-5.8819,-5.9646,-6.0358,-6.0531,-5.9838,-5.9742,-6.0031,-6.0723,-6.0165,-6.0008,-6.0652,-5.799,-5.6715,-5.7549,-5.5511,-5.4356,-5.4419,-5.4438,-5.4314,-5.4035,-5.4035,-5.3961,-5.3813,-5.3813,-5.3813,-5.3813,-5.3813,-5.3813,-5.3813,-5.3813,-5.3813,-5.3813,-5.3813,-5.372,-5.3534,-5.3032,-5.2549,-5.2048,-5.1398,-5.0599,-4.9782,0.0,0.0,0.0,0.0,0.0,0.0,0.0,0.0,0.0,0.0,0.0,0.0,0.0,0.0,0.0,0.0,0.0,0.0,0.0,0.0,0.0,0.0,0.0,0.0,0.0,0.0,0.0,0.0,0.0,0.0,0.0,0.0,0.0,0.0,0.0,0.0,0.0,0.0,0.0,0.0,0.0,0.0,-6.242,-6.1361,-6.0112,-5.8719,-5.71,-5.5327,-5.3695,-5.3495,-5.2756,-5.2021,-5.2617,-5.2193,-5.0827,-4.7558,0.0,-4.3874,-4.1227,-4.0573,-4.1324,-4.419,-4.3912,-4.4143,0.0,0.0,-4.7798,-4.8644,-5.0779,-5.2356,-5.1865,-5.4318,-5.6799,-5.7973,-5.8838,-5.9665,-6.0531,-6.0742,-6.0762,-6.0666,-6.0646,-6.0685,-6.0781,-6.0704,-6.057,-6.0362,-5.8631,-5.7405,-5.693,-5.5249,-5.4496,-5.4911,-5.4911,-5.491,-5.4871,-5.4871,-5.4518,-5.3813,-5.3813,-5.3813,-5.3813,-5.3813,-5.3813,-5.3813,-5.3813,-5.3813,-5.3813,-5.3813,-5.3385,-5.281,-5.3423,-5.2327,-5.0376,-5.0283,-4.9745,-4.902,0.0,0.0,0.0,0.0,0.0,0.0,0.0,0.0,0.0,0.0,0.0,0.0,0.0,0.0,0.0,0.0,0.0,0.0,0.0,0.0,0.0,0.0,0.0,0.0,0.0,0.0,0.0,0.0,0.0,0.0,0.0,0.0,0.0,0.0,0.0,0.0,0.0,0.0,0.0,0.0,0.0,0.0,-6.3119,-6.0676,-5.8768,-5.7244,-5.5882,-5.3899,0.0,0.0,-5.0797,-5.0683,-5.2019,-5.1529,-4.9875,-4.699,-4.5624,0.0,-4.195,-4.197,0.0,0.0,-4.5086,-4.6836,-4.9981,-5.0491,-5.0702,-5.2087,-5.3991,-5.5453,-5.5607,-5.7184,-5.8742,0.0,-6.0031,-6.0377,-6.0742,-6.0358,-6.0031,-6.0031,-5.9627,-5.9723,-6.0704,-6.0629,-6.0449,-6.0307,-5.8573,-5.7513,-5.7486,-5.5911,-5.5228,-5.5726,-5.5261,-5.5001,-5.5001,-5.4556,-5.437,-5.45,-5.4017,-5.4054,-5.4481,-5.4017,-5.3813,-5.3813,-5.3813,-5.3813,-5.3813,-5.3813,-5.3608,-5.3292,-5.3144,-5.2475,-5.1565,-5.1565,-5.0432,-4.8964,0.0,0.0,0.0,0.0,0.0,0.0,0.0,0.0,0.0,0.0,0.0,0.0,0.0,0.0,0.0,0.0,0.0,0.0,0.0,0.0,0.0,0.0,0.0,0.0,0.0,0.0,0.0,0.0,0.0,0.0,0.0,0.0,0.0,0.0,0.0,0.0,0.0,0.0,0.0,0.0,0.0,0.0,-6.2331,-5.9091,-5.6543,-5.4553,-5.3639,-5.1457,0.0,0.0,-4.7663,-4.7952,-4.9625,-4.9644,-4.8548,-4.5998,-4.4748,-4.3902,-4.2527,0.0,0.0,-4.4759,-4.6836,-4.9394,-5.1568,-5.2529,-5.3453,-5.5184,-5.6684,-5.78,-5.8223,-5.9146,0.0,-6.0377,-6.0646,-6.08,-6.08,-6.005,-5.9492,-5.9492,-5.8588,-5.8511,-5.9973,-6.0092,-6.0005,-5.9817,-5.8243,-5.7411,-5.7637,-5.6198,-5.5753,-5.6599,-5.6023,-5.5689,-5.5689,-5.5113,-5.5001,-5.5354,-5.4518,-5.4444,-5.4983,-5.4184,-5.3813,-5.3813,-5.3813,-5.3813,-5.3813,-5.3813,-5.3683,-5.3441,-5.307,-5.2661,-5.2308,-5.2512,-5.1175,-4.9317,0.0,0.0,0.0,0.0,0.0,0.0,0.0,0.0,0.0,0.0,0.0,0.0,0.0,0.0,0.0,0.0,0.0,0.0,0.0,0.0,0.0,0.0,0.0,0.0,0.0,0.0,0.0,0.0,0.0,0.0,0.0,0.0,0.0,0.0,0.0,0.0,0.0,0.0,0.0,0.0,0.0,0.0,-5.9627,-5.6838,-5.3753,-5.0779,-5.002,0.0,0.0,0.0,-4.3297,-4.3585,-4.5267,-4.6874,0.0,-4.5086,-4.2593,0.0,0.0,0.0,-4.5086,-4.8394,-4.9913,-5.1501,-5.4799,-5.5568,-5.6069,-5.7838,-5.8858,-5.9184,-5.8434,-5.9646,-6.0492,-5.9665,-6.0242,-6.08,-6.08,-6.005,-5.9492,-5.9492,-5.803,-5.7376,0.0,-5.9077,-5.9243,-5.8606,-5.7778,-5.7143,-5.6757,-5.5641,-5.5763,-5.7416,-5.7453,-5.7435,-5.7435,-5.7398,-5.7008,-5.6246,-5.5391,-5.4983,-5.4983,-5.4184,-5.3813,-5.3813,-5.3813,-5.3813,-5.3813,-5.3813,-5.3348,-5.2717,-5.3478,-5.281,-5.1528,-5.2308,-5.1565,-5.0042,0.0,0.0,0.0,0.0,0.0,0.0,0.0,0.0,0.0,0.0,0.0,0.0,0.0,0.0,0.0,0.0,0.0,0.0,0.0,0.0,0.0,0.0,0.0,0.0,0.0,0.0,0.0,0.0,0.0,0.0,0.0,0.0,0.0,0.0,0.0,0.0,0.0,0.0,0.0,0.0,0.0,0.0,-5.8322,-5.4032,-5.0625,-4.7845,0.0,0.0,0.0,0.0,0.0,0.0,-4.4028,0.0,0.0,-4.2382,0.0,0.0,0.0,0.0,-4.9086,-5.1356,-5.2972,-5.4761,-5.7588,-5.8223,-5.8396,-5.8973,-5.7973,-5.6896,-5.6626,-5.6126,-5.6203,-5.7607,-5.8569,-5.9338,-5.9858,-5.9223,-5.8492,-5.7896,-5.6881,0.0,0.0,0.0,0.0,-5.8445,-5.7693,-5.7467,-5.799,-5.7378,-5.7376,-5.8271,-5.7788,-5.7509,-5.7509,-5.697,-5.684,-5.71,-5.6265,-5.5559,-5.4983,-5.4184,-5.3813,-5.3813,-5.3813,-5.3813,-5.3813,-5.3813,-5.3645,-5.3423,-5.3701,-5.3478,-5.2958,-5.2698,-5.1918,-5.0878,0.0,0.0,0.0,0.0,0.0,0.0,0.0,0.0,0.0,0.0,0.0,0.0,0.0,0.0,0.0,0.0,0.0,0.0,0.0,0.0,0.0,0.0,0.0,0.0,0.0,0.0,0.0,0.0,0.0,0.0,0.0,0.0,0.0,0.0,0.0,0.0,0.0,0.0,0.0,0.0,0.0,0.0,-5.3799,-4.9894,-4.6836,0.0,0.0,0.0,0.0,0.0,0.0,0.0,0.0,0.0,0.0,0.0,0.0,0.0,0.0,-4.8798,-5.1991,-5.3664,-5.5376,-5.7069,-5.8704,-5.9069,-5.8896,-5.8261,-5.6607,-5.5068,-5.4453,-5.3472,-5.328,-5.4914,-5.5915,-5.6973,-5.8415,-5.7646,-5.708,-5.7429,-5.619,0.0,0.0,0.0,0.0,-5.7516,-5.7259,-5.733,-5.7934,-5.7882,-5.8085,-5.8679,-5.8215,-5.7936,-5.7936,-5.7416,-5.7268,-5.749,-5.6692,-5.5837,-5.4983,-5.4184,-5.3813,-5.3813,-5.3813,-5.3813,-5.3813,-5.3813,-5.3813,-5.3813,-5.3813,-5.3813,-5.3683,-5.2568,-5.1844,-5.1286,0.0,0.0,0.0,0.0,0.0,0.0,0.0,0.0,0.0,0.0,0.0,0.0,0.0,0.0,0.0,0.0,0.0,0.0,0.0,0.0,0.0,0.0,0.0,0.0,0.0,0.0,0.0,0.0,0.0,0.0,0.0,0.0,0.0,0.0,0.0,0.0,0.0,0.0,0.0,0.0,0.0,0.0,-4.6712,-4.4913,0.0,0.0,0.0,0.0,0.0,0.0,0.0,0.0,0.0,0.0,0.0,0.0,0.0,-4.5413,-4.8702,-5.1491,-5.3857,-5.5491,-5.7146,-5.8357,-5.8319,-5.83,-5.778,-5.5953,-5.4818,-5.3664,0.0,0.0,-5.1654,-5.1865,-5.2673,-5.4145,-5.6656,-5.5675,-5.557,0.0,0.0,0.0,0.0,0.0,0.0,-5.5966,0.0,-5.6812,-5.6797,-5.7281,-5.7918,-5.8679,-5.8716,-5.8698,-5.8716,-5.8716,-5.8326,-5.7565,-5.6747,-5.5912,-5.5039,-5.424,-5.385,-5.3813,-5.3813,-5.3813,-5.3813,-5.3813,-5.3813,-5.3813,-5.3813,-5.3813,-5.3608,-5.2048,-5.1454,-5.1342,0.0,0.0,0.0,0.0,0.0,0.0,0.0,0.0,0.0,0.0,0.0,0.0,0.0,0.0,0.0,0.0,0.0,0.0,0.0,0.0,0.0,0.0,0.0,0.0,0.0,0.0,0.0,0.0,0.0,0.0,0.0,0.0,0.0,0.0,0.0,0.0,0.0,0.0,0.0,0.0,0.0,0.0,-4.6635,0.0,0.0,0.0,0.0,0.0,0.0,0.0,0.0,0.0,0.0,0.0,-4.4517,0.0,0.0,-5.0288,-5.1818,-5.4568,-5.7261,-5.8261,-5.8877,-5.905,-5.8434,-5.83,-5.7453,-5.4453,-5.1645,-4.9606,0.0,0.0,0.0,-5.1385,-5.3183,0.0,-5.6733,-5.7189,0.0,0.0,0.0,-5.7455,-5.7369,-5.6964,0.0,0.0,-5.6765,-5.7155,-5.8136,-5.8312,-5.8494,-5.8698,-5.8716,-5.8758,-5.8859,-5.8859,-5.8766,-5.8542,-5.7643,-5.6766,-5.5949,-5.5094,-5.437,-5.3813,-5.3813,-5.3813,-5.3813,-5.3813,-5.3813,-5.3813,-5.3813,-5.3813,-5.3683,-5.2679,-5.2289,-5.2178,0.0,0.0,0.0,0.0,0.0,0.0,0.0,0.0,0.0,0.0,0.0,0.0,0.0,0.0,0.0,0.0,0.0,0.0,0.0,0.0,0.0,0.0,0.0,0.0,0.0,0.0,0.0,0.0,0.0,0.0,0.0,0.0,0.0,0.0,0.0,0.0,0.0,0.0,0.0,0.0,0.0,0.0,0.0,0.0,0.0,0.0,0.0,0.0,0.0,0.0,0.0,-4.3085,-4.422,-4.5547,-4.7086,-4.9086,0.0,-5.2818,-5.4434,-5.7088,-5.9415,-5.9473,-5.9781,-5.9473,-5.7165,-5.6626,-5.5338,-5.0798,-4.8644,0.0,0.0,0.0,0.0,0.0,0.0,0.0,-5.6015,-5.6566,-5.704,0.0,-5.8314,0.0,-5.7896,-5.7558,-5.7403,0.0,-5.7229,-5.7415,-5.8185,-5.8533,-5.8737,-5.8797,-5.8779,-5.884,-5.8922,-5.892,-5.8899,-5.8899,-5.794,-5.7082,-5.6265,-5.541,-5.4574,-5.3813,0.0,-5.3813,-5.3813,-5.3813,-5.3813,-5.3813,-5.3813,-5.3813,-5.3701,-5.2902,-5.2605,-5.2475,0.0,0.0,0.0,0.0,0.0,0.0,0.0,0.0,0.0,0.0,0.0,0.0,0.0,0.0,0.0,0.0,0.0,0.0,0.0,0.0,0.0,0.0,0.0,0.0,0.0,0.0,0.0,0.0,0.0,0.0,0.0,0.0,0.0,0.0,0.0,0.0,0.0,0.0,0.0,0.0,0.0,0.0,0.0,0.0,0.0,0.0,0.0,0.0,0.0,0.0,-4.422,-4.5374,-4.7702,-4.8759,-4.974,-5.2953,-5.3953,-5.4568,-5.7022,-5.9358,-6.0916,-6.0069,-6.0165,-5.9396,-5.5261,-5.4068,-5.2222,-4.6595,0.0,0.0,-4.4432,0.0,-4.5316,-4.7855,0.0,-5.0337,-5.5286,-5.5411,-5.6193,-5.9349,-5.896,-5.8315,-5.7998,-5.7647,-5.7635,-5.8053,-5.7919,-5.7802,-5.7802,-5.839,-5.8799,-5.892,-5.892,-5.8961,-5.9042,-5.8961,-5.892,-5.8901,-5.796,-5.7082,-5.6265,-5.541,-5.4574,-5.3813,0.0,0.0,-5.3813,-5.3813,-5.3813,-5.3813,-5.3813,-5.3813,-5.3701,-5.2902,-5.2679,-5.2642,0.0,0.0,0.0,0.0,0.0,0.0,0.0,0.0,0.0,0.0,-4.4989,-4.3835,0.0,0.0,0.0,0.0,0.0,0.0,0.0,0.0,0.0,0.0,0.0,0.0,0.0,0.0,0.0,0.0,0.0,0.0,0.0,0.0,0.0,0.0,0.0,0.0,0.0,0.0,0.0,0.0,0.0,0.0,0.0,0.0,0.0,0.0,0.0,0.0,0.0,0.0,-4.7259,-4.8721,-4.9875,-5.2145,-5.478,-5.6819,-5.7896,-5.8819,-6.0696,-6.2012,-6.2666,-6.1839,-6.0185,-5.78,-5.4241,-5.1798,0.0,0.0,0.0,-4.4451,-4.3489,-4.4432,0.0,-4.8759,0.0,0.0,0.0,0.0,-5.8149,0.0,0.0,0.0,0.0,0.0,0.0,0.0,0.0,0.0,-5.8759,-5.887,-5.8964,-5.8983,-5.9081,-5.9157,-5.9177,-5.9042,-5.8983,-5.8965,-5.7982,-5.7082,-5.6265,-5.541,-5.4574,-5.3813,0.0,0.0,-5.3813,-5.3813,-5.3813,-5.3813,-5.3813,-5.3813,-5.3701,-5.2902,-5.3032,-5.3478,0.0,0.0,0.0,0.0,0.0,0.0,0.0,-4.6278,-4.6586,-4.7413,-4.6797,-4.597,-4.5182,-4.4662,0.0,0.0,0.0,0.0,0.0,0.0,0.0,0.0,0.0,0.0,0.0,0.0,0.0,0.0,0.0,0.0,0.0,0.0,0.0,0.0,0.0,0.0,0.0,0.0,0.0,0.0,0.0,0.0,0.0,0.0,0.0,0.0,0.0,0.0,0.0,0.0,-4.8663,-5.0452,-5.2606,-5.4733,-5.6887,-5.9511,-6.0223,-6.055,-6.2262,-6.3012,-6.3012,-6.1743,-5.9858,-5.7069,-5.2299,0.0,0.0,0.0,0.0,-4.3912,-4.2662,0.0,0.0,0.0,0.0,0.0,0.0,0.0,0.0,0.0,0.0,0.0,0.0,0.0,0.0,0.0,0.0,0.0,-5.912,-5.9101,-5.9101,-5.9101,-5.9196,-5.9234,-5.9234,-5.9139,-5.9101,-5.9101,-5.851,-5.7795,-5.6958,-5.6507,-5.5614,-5.4426,-5.4426,0.0,-5.3813,-5.3813,-5.3813,-5.3813,-5.3813,-5.3813,-5.3757,-5.3367,-5.3478,-5.3738,0.0,0.0,0.0,0.0,0.0,0.0,0.0,-4.6904,-4.7259,-4.8259,-4.8221,-4.7932,-4.749,-4.6663,-4.6075,0.0,0.0,0.0,0.0,0.0,0.0,0.0,0.0,0.0,0.0,0.0,0.0,0.0,0.0,0.0,0.0,0.0,0.0,0.0,0.0,0.0,0.0,0.0,0.0,0.0,0.0,0.0,0.0,0.0,0.0,0.0,0.0,0.0,0.0,0.0,-4.8875,-5.0664,-5.3683,-5.5733,-5.7561,-6.0446,-6.1185,-6.1435,-6.3128,-6.3589,-6.3185,-6.1493,-5.9396,-5.628,-5.0683,-4.8298,0.0,0.0,-4.2374,-4.3355,-4.2038,0.0,0.0,0.0,0.0,0.0,0.0,0.0,0.0,0.0,0.0,0.0,0.0,0.0,0.0,0.0,0.0,0.0,-5.9234,-5.9215,-5.9215,-5.9215,-5.9272,-5.929,-5.929,-5.9234,-5.9215,-5.9196,-5.8813,-5.8266,-5.7594,-5.7345,-5.6525,-5.528,-5.5094,0.0,0.0,-5.3868,-5.3813,-5.3813,-5.3813,-5.3813,-5.3813,-5.3813,-5.3813,-5.3813,0.0,0.0,0.0,0.0,0.0,0.0,0.0,-4.6904,-4.7471,-4.9067,-4.8586,-4.8375,-4.9086,-4.8394,-4.7586,0.0,0.0,0.0,0.0,0.0,0.0,0.0,0.0,0.0,0.0,0.0,0.0,0.0,0.0,0.0,0.0,0.0,0.0,0.0,0.0,0.0,0.0,0.0,0.0,0.0,0.0,0.0,0.0,0.0,0.0,0.0,0.0,0.0,0.0,0.0,0.0,-4.8663,-5.0548,-5.3848,-5.7234,-5.8319,0.0,0.0,-6.4032,-6.4474,-6.4089,-6.2397,-5.8934,-5.478,-5.0394,0.0,0.0,0.0,-4.1865,-4.1981,-4.1827,-4.3239,-4.4701,0.0,0.0,0.0,0.0,0.0,0.0,0.0,0.0,0.0,0.0,0.0,0.0,0.0,0.0,0.0,0.0,-5.929,-5.929,-5.929,-5.9309,-5.929,-5.929,-5.9234,-5.9215,-5.9177,-5.8197,-5.7689,-5.7557,-5.6769,-5.6339,-5.6134,0.0,0.0,0.0,-5.411,-5.3813,-5.3813,-5.3813,-5.3813,-5.3813,-5.3813,-5.3813,-5.3813,0.0,0.0,0.0,0.0,0.0,0.0,-4.7413,-4.7625,-4.824,-4.9952,-4.9875,-4.9606,-4.9413,-4.9548,-4.9106,0.0,0.0,0.0,0.0,0.0,0.0,0.0,0.0,0.0,0.0,0.0,0.0,0.0,0.0,0.0,0.0,0.0,0.0,0.0,0.0,0.0,0.0,0.0,0.0,0.0,0.0,0.0,0.0,0.0,0.0,0.0,0.0,0.0,0.0,0.0,0.0,0.0,-4.7422,-4.9846,0.0,0.0,-5.8954,-6.0916,-6.2627,-6.3455,-6.3301,-6.1069,-5.7338,-5.3356,-5.0125,0.0,0.0,-4.2162,-4.2604,-4.3008,-4.1981,-4.3162,-4.4412,0.0,0.0,0.0,0.0,0.0,0.0,0.0,0.0,0.0,0.0,0.0,0.0,0.0,0.0,0.0,0.0,-5.929,-5.929,-5.929,-5.929,-5.929,-5.929,-5.9272,-5.9253,-5.9253,-5.8783,-5.8517,-5.844,-5.8041,-5.757,-5.6989,0.0,0.0,0.0,-5.4128,-5.3813,-5.385,-5.4333,-5.4518,-5.4593,-5.5113,-5.5299,-5.5243,0.0,0.0,0.0,0.0,0.0,-4.6172,-4.7836,-4.8105,-4.8721,-5.0481,-5.0712,-5.0481,-4.9856,-5.0327,-5.0212,-4.8971,0.0,0.0,0.0,0.0,0.0,0.0,0.0,0.0,0.0,0.0,0.0,0.0,0.0,0.0,0.0,0.0,0.0,0.0,0.0,0.0,0.0,0.0,0.0,0.0,0.0,0.0,0.0,0.0,0.0,0.0,0.0,0.0,0.0,0.0,0.0,0.0,0.0,0.0,0.0,0.0,-5.6261,-5.8704,-6.0185,-6.155,-6.2012,-5.9723,-5.6145,-5.2395,0.0,0.0,0.0,-4.2431,-4.2912,-4.3355,-4.2681,-4.3508,-4.4297,0.0,0.0,0.0,0.0,0.0,0.0,0.0,0.0,0.0,0.0,0.0,0.0,0.0,0.0,0.0,0.0,-5.929,-5.929,-5.929,-5.929,-5.929,-5.929,-5.929,-5.929,-5.929,-5.9234,-5.9139,-5.8984,-5.8921,-5.8522,-5.7806,0.0,0.0,0.0,-5.45,-5.4017,-5.3887,-5.4704,-5.5001,-5.5113,-5.5986,-5.6302,-5.6209,0.0,0.0,0.0,0.0,0.0,0.0,-4.7836,-4.8105,-4.8721,-5.0481,-5.0712,-5.0712,-5.0693,-5.0693,-5.0693,-5.0673,0.0,0.0,0.0,0.0,0.0,0.0,0.0,0.0,0.0,0.0,-5.0673,-5.0693,0.0,0.0,0.0,0.0,0.0,0.0,0.0,0.0,0.0,0.0,0.0,0.0,0.0,0.0,0.0,0.0,0.0,0.0,0.0,0.0,0.0,0.0,0.0,0.0,0.0,0.0,0.0,0.0,-5.1779,-5.5934,-5.6808,-5.8896,-6.0416,-5.8723,-5.5742,-5.2106,0.0,0.0,0.0,-4.3085,-4.2412,-4.2335,-4.397,-4.4297,-4.4297,-4.4297,0.0,0.0,0.0,0.0,0.0,0.0,0.0,0.0,0.0,0.0,0.0,0.0,0.0,0.0,0.0,-5.929,-5.929,-5.929,-5.929,-5.929,-5.929,-5.929,-5.929,-5.929,-5.9234,-5.9139,-5.8984,-5.8921,-5.882,0.0,0.0,0.0,0.0,-5.5354,-5.4518,-5.3887,-5.4704,-5.5001,-5.5113,-5.5986,-5.6302,-5.6302,0.0,0.0,0.0,0.0,0.0,0.0,0.0,-4.8105,-4.8721,-5.0481,-5.0712,-5.0712,-5.0712,-5.0712,-5.0712,-5.0712,0.0,0.0,0.0,0.0,0.0,0.0,0.0,0.0,0.0,0.0,-5.0423,-4.9798,-4.9529,-4.924,0.0,0.0,0.0,0.0,0.0,0.0,0.0,0.0,0.0,0.0,0.0,0.0,0.0,0.0,0.0,0.0,0.0,0.0,0.0,0.0,0.0,0.0,0.0,0.0,0.0,0.0,0.0,0.0,-5.2452,-5.3683,-5.4472,-5.3376,-5.0529,-4.7817,-4.7067,0.0,0.0,-4.2989,-4.3316,-4.3662,-4.4201,-4.4297,-4.4506,-4.5156,0.0,0.0,0.0,0.0,0.0,0.0,0.0,0.0,0.0,0.0,0.0,0.0,0.0,0.0,0.0,0.0,-5.9542,-5.9327,-5.929,-5.929,-5.929,-5.929,-5.929,-5.929,-5.8709,-5.8353,-5.8182,-5.8161,0.0,0.0,0.0,0.0,0.0,-5.4518,-5.4351,-5.4704,-5.5559,-5.6227,-5.6822,-5.7639,-5.7955,-5.7862,0.0,0.0,0.0,0.0,0.0,0.0,0.0,-4.8105,-4.8721,-5.0481,-5.0712,-5.0712,-5.0712,-5.0712,-5.0712,-5.0712,0.0,0.0,0.0,0.0,0.0,0.0,0.0,0.0,0.0,-5.0712,-5.0442,-4.9894,-4.9548,-4.9125,-4.8606,-4.9144,-4.9394,0.0,0.0,0.0,0.0,0.0,0.0,0.0,0.0,0.0,-5.0712,0.0,0.0,0.0,0.0,0.0,0.0,0.0,0.0,0.0,0.0,0.0,0.0,0.0,0.0,0.0,0.0,-5.0798,-5.1635,-5.0491,-4.8125,0.0,0.0,0.0,0.0,0.0,-4.3508,-4.4047,-4.4662,-4.4814,-4.5013,-4.5596,0.0,0.0,0.0,0.0,0.0,0.0,0.0,0.0,0.0,0.0,0.0,0.0,0.0,0.0,0.0,0.0,-5.9692,-5.9506,-5.9364,-5.929,-5.929,-5.929,-5.9159,-5.884,-5.8351,-5.7828,-5.736,-5.7341,0.0,0.0,0.0,0.0,0.0,-5.4816,-5.4853,-5.5131,-5.6302,-5.7063,-5.7602,-5.8401,-5.8716,-5.8642,0.0,0.0,0.0,0.0,0.0,0.0,0.0,0.0,-4.8798,-5.0481,-5.0712,-5.0712,-5.0712,-5.0712,-5.0712,-5.0712,0.0,0.0,0.0,0.0,0.0,0.0,0.0,0.0,-5.0712,-5.0712,-5.0635,-5.0519,-4.976,-4.9336,-4.9221,-4.9336,-4.9394,-4.9433,-5.0308,-5.0712,-5.0712,-5.0712,-5.0712,-5.0712,-5.0712,-5.0712,0.0,0.0,0.0,0.0,0.0,0.0,0.0,0.0,0.0,0.0,0.0,0.0,0.0,0.0,0.0,0.0,0.0,0.0,0.0,0.0,0.0,0.0,0.0,0.0,0.0,0.0,0.0,0.0,-4.5306,-4.5657,-4.5709,-4.5709,0.0,0.0,0.0,0.0,0.0,0.0,0.0,0.0,0.0,0.0,0.0,0.0,0.0,0.0,0.0,0.0,-5.9728,-5.9715,-5.932,-5.9178,-5.929,-5.929,-5.8896,-5.8089,-5.8033,-5.7491,-5.6519,-5.65,0.0,0.0,0.0,0.0,0.0,-5.5856,-5.5782,-5.5261,-5.6878,-5.7528,-5.7676,-5.8419,-5.8716,-5.8716,0.0,0.0,0.0,0.0,0.0,0.0,0.0,0.0,0.0,0.0,-5.0712,-5.0712,-5.0712,-5.0712,-5.0712,0.0,0.0,0.0,0.0,0.0,0.0,0.0,0.0,0.0,-5.0712,-5.0712,-5.0048,-4.8702,-4.9163,-4.874,-4.7528,-4.8798,-4.9394,-4.9433,-5.0308,-5.0712,-5.0712,-5.0712,-5.0712,-5.0712,-5.0712,-5.0712,0.0,0.0,0.0,0.0,-5.0712,-5.0712,0.0,0.0,0.0,0.0,0.0,0.0,0.0,0.0,-4.546,0.0,0.0,0.0,0.0,0.0,0.0,0.0,0.0,0.0,0.0,0.0,0.0,0.0,0.0,0.0,0.0,0.0,0.0,0.0,0.0,0.0,0.0,0.0,0.0,0.0,0.0,0.0,0.0,0.0,0.0,0.0,0.0,0.0,-5.9082,-5.8897,-5.7945,-5.8051,-5.929,-5.929,-5.8896,-5.8089,-5.7488,-5.6683,-5.5751,-5.5641,0.0,0.0,0.0,0.0,-5.4147,-5.4983,-5.5577,-5.6097,-5.7119,-5.7881,-5.8438,-5.8642,-5.8716,-5.8716,0.0,0.0,0.0,0.0,0.0,0.0,0.0,0.0,0.0,0.0,0.0,0.0,0.0,0.0,0.0,0.0,0.0,0.0,0.0,0.0,0.0,0.0,0.0,-5.0289,-5.0693,-4.9913,-4.924,-4.8702,-4.9163,-4.8721,-4.749,-4.9202,-4.9779,-4.9433,-5.0308,-5.0712,-5.0712,-5.0712,-5.0712,-5.0712,-5.0712,0.0,0.0,0.0,0.0,0.0,-5.0712,-5.0712,0.0,-5.0173,-4.9413,-4.8548,0.0,0.0,0.0,0.0,-4.5594,0.0,0.0,0.0,0.0,0.0,0.0,0.0,0.0,0.0,0.0,0.0,0.0,0.0,0.0,0.0,0.0,0.0,0.0,0.0,0.0,0.0,0.0,0.0,0.0,0.0,0.0,0.0,0.0,0.0,0.0,0.0,0.0,0.0,-5.8706,-5.8967,-5.7747,-5.744,-5.8182,-5.8558,-5.8145,-5.6944,-5.6925,-5.6214,-5.4945,-5.4872,0.0,0.0,0.0,0.0,-5.3887,-5.5113,-5.5652,-5.5874,-5.7453,-5.8103,-5.8196,-5.8568,-5.8716,-5.8716,0.0,0.0,0.0,0.0,0.0,0.0,0.0,0.0,0.0,0.0,0.0,0.0,0.0,0.0,0.0,0.0,0.0,0.0,0.0,0.0,0.0,0.0,0.0,-4.9683,-5.0289,-4.899,-4.8606,-4.9202,-4.9471,-4.9221,-4.8529,-5.026,-5.0625,-4.9817,-5.0442,-5.0712,-5.0712,-5.0712,-5.0712,-5.0712,-5.0712,0.0,0.0,0.0,0.0,0.0,0.0,0.0,0.0,-5.0712,-5.0106,-4.924,-4.8375,0.0,0.0,0.0,0.0,0.0,0.0,0.0,0.0,0.0,0.0,0.0,0.0,0.0,0.0,0.0,0.0,0.0,0.0,0.0,0.0,0.0,0.0,0.0,0.0,0.0,0.0,0.0,0.0,0.0,0.0,0.0,0.0,0.0,0.0,0.0,0.0,0.0,0.0,-5.9011,-5.7653,-5.6841,-5.6647,-5.7538,-5.7218,-5.5745,-5.6428,-5.5908,-5.4375,-5.4324,-5.4201,0.0,0.0,0.0,-5.3943,-5.5466,-5.567,-5.5224,-5.7472,-5.7918,-5.7416,-5.8234,-5.8531,-5.8531,0.0,0.0,0.0,0.0,0.0,0.0,0.0,0.0,0.0,0.0,0.0,0.0,0.0,0.0,0.0,0.0,0.0,0.0,0.0,0.0,0.0,0.0,-4.9086,-4.9125,-4.8509,-4.8952,-4.8894,-4.8298,-4.9779,-5.0442,-5.0346,-5.2029,-5.2356,-5.1481,-5.0933,-5.0712,-5.0712,-5.0712,-5.0712,-5.0712,0.0,0.0,0.0,0.0,0.0,0.0,0.0,0.0,0.0,-5.0712,-5.0106,-4.924,-4.8375,0.0,0.0,0.0,0.0,0.0,-4.5594,-4.5594,0.0,0.0,0.0,0.0,0.0,0.0,0.0,0.0,0.0,0.0,0.0,0.0,0.0,0.0,0.0,0.0,0.0,0.0,0.0,0.0,0.0,0.0,0.0,0.0,0.0,0.0,0.0,0.0,0.0,0.0,0.0,-5.728,-5.5919,-5.527,-5.5462,-5.6766,-5.707,-5.6363,-5.6216,-5.5643,-5.4719,-5.4424,-5.429,0.0,0.0,-5.4,-5.4038,-5.4873,-5.5131,-5.5113,-5.6227,-5.6599,-5.658,-5.7398,-5.7676,-5.7788,0.0,0.0,0.0,0.0,0.0,0.0,0.0,0.0,0.0,0.0,0.0,0.0,0.0,0.0,0.0,0.0,0.0,0.0,0.0,0.0,0.0,-4.8105,-4.8067,-4.8298,-4.8798,-4.8317,-4.8529,-4.949,-4.9837,-5.0452,-5.1375,-5.2145,-5.2269,-5.1865,-5.1048,-5.0712,-5.0712,-5.0712,-5.0712,-5.0712,0.0,0.0,0.0,0.0,0.0,0.0,0.0,0.0,0.0,0.0,-5.0442,-4.9875,-4.8529,0.0,0.0,0.0,0.0,0.0,-4.5594,-4.5631,-4.5648,0.0,0.0,0.0,0.0,0.0,0.0,0.0,0.0,0.0,0.0,0.0,0.0,0.0,0.0,0.0,0.0,0.0,0.0,0.0,0.0,0.0,0.0,0.0,0.0,0.0,0.0,0.0,0.0,0.0,0.0,0.0,-5.5884,-5.5373,-5.5628,-5.6127,-5.618,-5.5791,-5.594,-5.5568,-5.4791,-5.4489,-5.4342,-5.429,0.0,-5.4019,-5.4056,-5.4724,-5.4741,-5.4481,-5.58,-5.6004,-5.5763,-5.7045,-5.7788,-5.8215,0.0,0.0,0.0,0.0,0.0,0.0,0.0,0.0,0.0,0.0,0.0,0.0,0.0,0.0,0.0,0.0,0.0,0.0,0.0,0.0,-4.8105,-4.8105,-4.7336,-4.7586,-4.9067,-4.8048,-4.8548,-5.0712,-5.0221,-5.076,-5.2192,-5.2192,-5.2096,-5.1865,-5.1048,-5.0712,-5.0712,-5.0712,-5.0712,-5.0712,0.0,0.0,0.0,0.0,0.0,0.0,0.0,0.0,0.0,0.0,0.0,0.0,0.0,0.0,0.0,0.0,0.0,-4.5631,-4.5631,-4.5665,-4.5698,0.0,0.0,0.0,0.0,0.0,0.0,0.0,0.0,0.0,0.0,0.0,0.0,0.0,0.0,0.0,0.0,0.0,0.0,0.0,0.0,0.0,0.0,0.0,0.0,0.0,0.0,0.0,0.0,0.0,0.0,0.0,-5.6087,-5.573,-5.6003,-5.574,-5.5522,-5.5396,-5.575,-5.5551,-5.4876,-5.4613,-5.4424,-5.4307,-5.4163,-5.4073,-5.4056,-5.4539,-5.437,-5.3943,-5.5206,-5.5429,-5.5187,-5.6673,-5.7732,-5.8456,0.0,0.0,0.0,0.0,0.0,0.0,0.0,0.0,0.0,0.0,0.0,0.0,0.0,0.0,0.0,0.0,0.0,0.0,0.0,0.0,-4.8105,-4.8105,-4.7336,-4.7317,-4.8182,-4.8875,-4.9702,-5.0712,-5.1395,-5.2192,-5.3106,-5.3106,-5.2673,-5.1865,-5.1048,-5.0712,-5.0712,-5.0712,-5.0712,-5.0712,-5.0712,0.0,0.0,0.0,0.0,0.0,0.0,0.0,0.0,0.0,0.0,0.0,0.0,0.0,0.0,0.0,0.0,-4.5693,-4.5693,-4.5706,-4.57,-4.57,-4.575,0.0,-4.6804,-4.7001,0.0,0.0,0.0,0.0,0.0,0.0,0.0,0.0,0.0,0.0,0.0,0.0,0.0,0.0,0.0,0.0,0.0,0.0,0.0,0.0,0.0,0.0,0.0,0.0,0.0,0.0,0.0,-5.573,-5.6003,-5.574,-5.572,-5.5949,-5.5717,-5.5477,-5.5154,-5.489,-5.4629,-5.4392,-5.4199,-5.4091,-5.4073,-5.3944,-5.385,-5.3813,-5.3943,-5.4407,-5.5113,-5.6042,-5.6896,-5.7695,0.0,0.0,0.0,0.0,0.0,0.0,0.0,0.0,0.0,0.0,0.0,0.0,0.0,0.0,0.0,0.0,0.0,0.0,0.0,0.0,-4.9144,-4.9683,-4.8394,-4.8298,-4.9683,-4.8971,-5.0067,-5.3049,-5.3376,-5.3414,-5.3203,-5.2654,-5.2212,-5.1865,-5.1048,-5.0712,-5.0712,-5.0712,-5.0712,-5.0712,-5.0712,-5.0712,0.0,0.0,0.0,0.0,0.0,0.0,0.0,0.0,0.0,0.0,0.0,0.0,0.0,0.0,0.0,-4.5709,-4.5695,-4.5735,-4.5765,-4.5765,-4.5776,0.0,0.0,-4.7844,0.0,0.0,0.0,0.0,0.0,0.0,0.0,0.0,0.0,0.0,0.0,0.0,0.0,0.0,0.0,0.0,0.0,0.0,0.0,0.0,0.0,0.0,0.0,0.0,0.0,0.0,0.0,-5.5893,-5.6003,-5.5902,-5.5902,-5.6003,-5.573,-5.5466,-5.5193,-5.4933,-5.4661,-5.4373,-5.418,-5.4109,-5.4091,-5.387,-5.3813,-5.3813,-5.3813,-5.4296,-5.5039,-5.5373,-5.6339,-5.7546,0.0,0.0,0.0,0.0,0.0,0.0,0.0,0.0,0.0,0.0,0.0,0.0,0.0,0.0,0.0,0.0,0.0,0.0,-5.0712,-5.0144,-5.0067,-5.0673,-4.9298,-4.9317,-5.1029,-4.9394,-5.0337,-5.4087,-5.4376,-5.378,-5.2395,-5.2058,-5.175,-5.151,-5.0952,-5.0712,-5.0712,-5.0712,-5.0712,-5.0712,-5.0712,-5.0712,0.0,0.0,0.0,0.0,0.0,0.0,0.0,0.0,0.0,0.0,0.0,0.0,0.0,0.0,0.0,0.0,-4.5735,-4.5773,-4.5803,0.0,0.0,0.0,0.0,0.0,0.0,0.0,0.0,0.0,0.0,0.0,0.0,0.0,0.0,0.0,0.0,0.0,0.0,0.0,0.0,0.0,0.0,0.0,0.0,0.0,0.0,0.0,0.0,0.0,0.0,0.0,0.0,0.0,-5.6012,-5.6012,-5.6012,-5.6003,-5.5818,-5.5596,-5.5317,-5.5053,-5.4776,-5.4503,-5.4268,-5.4146,-5.4091,-5.3926,-5.3832,-5.3813,-5.3813,-5.4147,-5.4648,-5.4927,-5.5912,-5.7156,0.0,0.0,0.0,0.0,0.0,0.0,0.0,0.0,0.0,0.0,0.0,0.0,0.0,0.0,0.0,0.0,0.0,0.0,-5.0712,-5.0712,-5.0712,-5.0712,-4.9875,-5.0183,-5.1846,-5.0279,-5.0664,-5.3203,-5.4049,-5.3183,-5.0731,-5.1529,-5.1471,-5.0712,-5.0712,-5.0712,-5.0712,-5.0712,-5.0712,-5.0712,-5.0712,-5.0712,-5.0712,0.0,0.0,0.0,0.0,0.0,0.0,0.0,0.0,0.0,0.0,0.0,0.0,0.0,0.0,-4.5715,-4.5773,-4.5798,0.0,0.0,0.0,0.0,0.0,0.0,0.0,0.0,0.0,0.0,0.0,0.0,0.0,0.0,0.0,0.0,0.0,0.0,0.0,0.0,0.0,0.0,0.0,0.0,0.0,0.0,0.0,0.0,0.0,0.0,0.0,0.0,0.0,0.0,-5.5993,-5.6012,-5.6012,-5.6012,-5.5993,-5.5846,-5.5596,-5.5317,-5.5053,-5.4776,-5.4441,-5.4218,-5.4072,-5.4019,-5.3926,-5.3813,-5.3813,-5.3813,-5.3905,-5.4704,-5.554,-5.6395,0.0,0.0,0.0,0.0,0.0,0.0,0.0,0.0,0.0,0.0,0.0,0.0,0.0,0.0,0.0,0.0,0.0,0.0,-5.0712,-5.0712,-5.0712,-5.0712,-5.0462,-5.0548,-5.1048,-5.1125,-5.1519,-5.2288,-5.2538,-5.2279,-5.1548,-5.1788,-5.1769,-5.1548,-5.1548,-5.1548,-5.151,-5.0933,-5.0712,-5.0712,-5.0712,-5.0712,-5.0635,0.0,0.0,0.0,0.0,0.0,0.0,0.0,0.0,0.0,0.0,0.0,0.0,0.0,-4.5777,-4.5781,-4.5798,0.0,0.0,0.0,0.0,0.0,0.0,0.0,0.0,0.0,0.0,0.0,0.0,0.0,0.0,0.0,0.0,0.0,0.0,0.0,0.0,0.0,0.0,0.0,0.0,0.0,0.0,0.0,0.0,0.0,0.0,0.0,0.0,0.0,0.0,0.0,-5.5161,-5.5722,-5.6012,-5.5993,-5.5432,-5.522,-5.5317,-5.5231,-5.4652,-5.3693,-5.4114,-5.39,-5.3289,-5.3684,-5.3832,-5.3813,-5.3813,-5.3813,-5.3831,-5.4073,-5.4686,-5.5522,0.0,0.0,0.0,0.0,0.0,0.0,0.0,0.0,0.0,0.0,0.0,0.0,0.0,0.0,0.0,0.0,0.0,0.0,0.0,-5.0712,-5.0712,-5.0712,-5.0712,-5.0712,-5.0712,-5.1183,-5.1414,-5.1414,-5.1731,-5.1731,-5.1433,-5.175,-5.1904,-5.1923,-5.225,-5.2212,-5.1865,-5.1375,-5.0991,-5.0712,-5.0712,-5.0712,-5.0596,0.0,0.0,0.0,0.0,0.0,0.0,0.0,0.0,0.0,0.0,0.0,0.0,0.0,-4.5807,-4.5795,-4.5793,0.0,0.0,0.0,0.0,0.0,0.0,0.0,0.0,0.0,0.0,0.0,0.0,0.0,0.0,0.0,0.0,0.0,0.0,0.0,0.0,0.0,0.0,0.0,0.0,0.0,0.0,0.0,0.0,0.0,0.0,0.0,0.0,0.0,0.0,0.0,-5.4291,-5.5103,-5.5354,-5.5006,-5.4523,-5.4304,-5.4364,-5.4581,-5.4436,-5.4001,-5.4217,-5.3769,-5.2952,-5.3609,-5.3851,-5.3813,-5.3813,-5.3813,-5.3813,-5.3813,-5.4314,-5.5094,0.0,0.0,0.0,0.0,0.0,0.0,0.0,0.0,0.0,0.0,0.0,0.0,0.0,0.0,0.0,0.0,0.0,0.0,0.0,0.0,-5.0712,-5.0712,-5.0712,-5.0712,-5.0712,-5.0712,-5.0712,-5.0712,-5.1433,-5.1414,-5.0731,-5.1529,-5.1942,-5.2038,-5.2702,-5.2626,-5.2,-5.1769,-5.1298,-5.0712,-5.0693,-5.0654,-5.05,-4.9625,0.0,0.0,0.0,0.0,0.0,0.0,0.0,0.0,0.0,0.0,0.0,-4.6012,-4.5795,0.0,0.0,0.0,0.0,0.0,0.0,0.0,0.0,0.0,0.0,0.0,0.0,0.0,0.0,0.0,0.0,0.0,0.0,0.0,0.0,0.0,0.0,0.0,0.0,0.0,0.0,0.0,0.0,0.0,0.0,0.0,0.0,0.0,0.0,0.0,0.0,0.0,-5.3382,-5.4252,-5.4271,0.0,-5.342,-5.3297,-5.3146,-5.3678,-5.4327,-5.5013,-5.4363,-5.3636,-5.2987,-5.3608,-5.3851,-5.3813,-5.3794,-5.3813,-5.3813,-5.3813,-5.4258,-5.4909,0.0,0.0,0.0,0.0,0.0,0.0,0.0,0.0,0.0,0.0,0.0,0.0,0.0,0.0,0.0,0.0,0.0,0.0,0.0,0.0,-5.0712,-5.0712,-5.0712,-5.0712,-5.0712,-5.0712,-5.0712,-5.0712,-5.0856,-5.0856,-5.0731,-5.1529,-5.2269,-5.2876,-5.1741,-5.1856,-5.2799,-5.0798,-5.0221,-5.0693,-5.0712,-5.0317,-4.9671,-4.884,-4.8105,0.0,0.0,0.0,0.0,0.0,0.0,0.0,0.0,-4.6063,-4.6012,-4.5856,-4.5793,0.0,0.0,0.0,0.0,0.0,0.0,0.0,0.0,0.0,0.0,0.0,0.0,0.0,0.0,0.0,0.0,0.0,0.0,0.0,0.0,0.0,0.0,0.0,0.0,0.0,0.0,0.0,0.0,0.0,0.0,0.0,0.0,0.0,0.0,0.0,0.0,-5.2674,-5.248,-5.3343,-5.3691,0.0,-5.2801,-5.2804,-5.343,-5.3759,-5.3886,-5.3808,-5.2782,-5.27,-5.3273,-5.308,-5.3367,-5.3944,-5.3832,-5.3813,-5.3813,-5.3813,-5.3924,-5.4166,0.0,0.0,0.0,0.0,0.0,0.0,0.0,0.0,0.0,0.0,0.0,0.0,0.0,0.0,0.0,0.0,0.0,0.0,0.0,0.0,0.0,-5.0712,-5.0712,-5.0712,-5.0712,-5.0712,-5.0712,-5.0712,-5.0712,-5.0712,-5.0731,-5.1529,-5.2135,-5.2538,-5.1664,-5.176,-5.2472,-5.075,-5.0067,-5.0125,-5.0132,-4.963,-4.8829,-4.8006,-4.7397,-4.6888,-4.6008,0.0,0.0,0.0,0.0,0.0,0.0,0.0,-4.5798,-4.58,0.0,0.0,0.0,0.0,0.0,0.0,0.0,0.0,0.0,0.0,0.0,0.0,0.0,0.0,0.0,0.0,0.0,0.0,0.0,0.0,0.0,0.0,0.0,0.0,0.0,0.0,0.0,0.0,0.0,0.0,0.0,0.0,0.0,0.0,0.0,0.0,-5.1409,-5.1003,-5.1003,-5.1834,-5.1854,-5.1061,-5.1022,-5.138,-5.2095,-5.308,-5.3135,-5.249,-5.2167,-5.2337,-5.2829,-5.2844,-5.3291,-5.3982,-5.3926,-5.3851,-5.3813,-5.3813,-5.3813,-5.3868,0.0,0.0,0.0,0.0,0.0,0.0,0.0,0.0,0.0,0.0,0.0,0.0,0.0,0.0,0.0,0.0,0.0,0.0,0.0,0.0,0.0,-5.0712,-5.0712,-5.0712,-5.0712,-5.0712,-5.0712,-5.0712,-5.0712,-5.077,-5.0933,-5.1452,-5.1769,-5.1885,-5.1452,-5.1424,-5.1616,-5.0528,-4.9766,-4.9285,-4.929,-4.8806,-4.8015,-4.7298,-4.6912,-4.67,-4.5974,-4.5731,-4.5731,-4.5788,0.0,0.0,0.0,0.0,-4.5807,0.0,0.0,0.0,0.0,0.0,0.0,0.0,0.0,0.0,0.0,0.0,0.0,0.0,0.0,0.0,0.0,0.0,0.0,0.0,0.0,0.0,0.0,0.0,0.0,0.0,0.0,0.0,0.0,0.0,0.0,0.0,0.0,0.0,0.0,0.0,-5.0945,-5.1533,-5.0345,-4.9707,-4.9707,-5.0492,-5.0124,-4.8624,-4.9359,-4.9851,-5.0211,-5.1934,-5.2265,-5.1503,-5.2118,-5.2333,-5.2328,-5.2855,-5.3449,-5.4056,-5.4,-5.3926,-5.3832,-5.3813,-5.3813,-5.3813,0.0,0.0,0.0,0.0,0.0,0.0,0.0,0.0,0.0,0.0,0.0,0.0,0.0,0.0,0.0,0.0,0.0,0.0,0.0,0.0,0.0,-5.0712,-5.0712,-5.0712,-5.0712,-5.0712,-5.0712,-5.0712,-5.0712,-5.1097,0.0,-5.1154,-5.1221,-5.1808,-4.9643,-4.9489,-5.0711,-4.8444,-4.7863,-4.8469,-4.8461,-4.7975,-4.7252,-4.7124,-4.6617,-4.594,-4.5831,-4.5793,-4.5793,-4.5793,-4.58,0.0,0.0,0.0,0.0,0.0,0.0,0.0,0.0,0.0,0.0,0.0,0.0,0.0,0.0,0.0,0.0,0.0,0.0,0.0,0.0,0.0,0.0,0.0,0.0,0.0,0.0,0.0,0.0,0.0,0.0,0.0,0.0,0.0,0.0,0.0,0.0,0.0,0.0,-4.9919,-4.9571,-4.8933,-4.9417,-4.9707,-4.9707,-5.0492,-5.0434,-4.9533,-4.9649,-4.9343,-4.874,-5.0422,-5.1392,-5.1774,-5.2375,-5.2635,-5.2679,-5.3148,-5.3715,-5.4236,-5.4074,-5.4,-5.3963,-5.3851,-5.3813,-5.3813,0.0,0.0,0.0,0.0,0.0,0.0,0.0,0.0,0.0,0.0,0.0,0.0,0.0,0.0,0.0,0.0,0.0,0.0,0.0,0.0,0.0,0.0,-5.0712,-5.0712,-5.0712,-5.0712,-5.0712,-5.0712,-5.0712,0.0,0.0,-5.1106,-5.1164,0.0,0.0,0.0,0.0,0.0,0.0,0.0,0.0,-4.7132,-4.6378,-4.6373,-4.6136,-4.5807,-4.5807,-4.5807,-4.5807,-4.5807,-4.5807,-4.5807,-4.5807,0.0,0.0,0.0,0.0,0.0,0.0,0.0,0.0,0.0,0.0,0.0,0.0,0.0,0.0,0.0,0.0,0.0,0.0,0.0,0.0,0.0,0.0,0.0,0.0,0.0,0.0,0.0,0.0,0.0,0.0,0.0,0.0,0.0,0.0,0.0,-4.9049,-4.9436,-4.9726,-4.9803,-4.9262,-4.9204,-4.9707,-5.0055,-5.0055,-4.9687,-4.9204,-4.8778,-4.8411,-4.9165,-4.9641,-4.9954,-5.1046,-5.1449,-5.1369,-5.2375,-5.3095,-5.3598,-5.4014,-5.4111,-5.3982,-5.3926,-5.3851,-5.3813,0.0,0.0,0.0,0.0,0.0,0.0,0.0,0.0,0.0,0.0,0.0,0.0,0.0,0.0,0.0,0.0,0.0,0.0,0.0,0.0,0.0,0.0,0.0,-5.0712,-5.0712,-5.0712,-5.0693,-5.0702,0.0,0.0,-5.1991,-5.0912,-5.1006,0.0,-5.0302,-4.9406,0.0,0.0,0.0,0.0,0.0,-4.6387,-4.5807,-4.5807,-4.5807,-4.5807,-4.5807,-4.5807,-4.5807,-4.5807,-4.5807,-4.5807,-4.5807,-4.5807,0.0,0.0,0.0,0.0,0.0,0.0,0.0,0.0,0.0,0.0,0.0,0.0,0.0,0.0,0.0,0.0,0.0,0.0,0.0,0.0,0.0,0.0,0.0,0.0,0.0,0.0,0.0,0.0,0.0,0.0,0.0,0.0,0.0,0.0,-4.8488,-4.9223,-4.9881,-5.0241,-4.9281,-4.9049,-4.9687,-4.9707,-4.9707,-4.9687,-4.8817,-4.8275,-4.8082,-4.8295,-4.8159,-4.7843,-4.9819,-5.0518,-5.0386,-5.1807,-5.2567,-5.2905,-5.3668,-5.3865,-5.3739,-5.3926,-5.3926,-5.3813,0.0,0.0,0.0,0.0,0.0,0.0,0.0,0.0,0.0,0.0,0.0,0.0,-5.0712,-5.0712,-5.0712,-5.0712,0.0,0.0,0.0,0.0,0.0,0.0,0.0,0.0,-5.0712,-5.0712,-5.0693,0.0,0.0,0.0,-5.2069,-5.0358,-5.0507,-5.2124,-5.0375,-4.9142,-4.8311,0.0,0.0,0.0,0.0,0.0,-4.5807,-4.5807,0.0,0.0,0.0,-4.5807,-4.5807,-4.5807,-4.5807,-4.5807,-4.5807,-4.5807,-4.5807,0.0,0.0,0.0,0.0,0.0,0.0,0.0,0.0,0.0,0.0,0.0,0.0,0.0,0.0,0.0,0.0,0.0,0.0,0.0,0.0,0.0,0.0,0.0,0.0,0.0,0.0,0.0,0.0,0.0,0.0,0.0,0.0,0.0,-4.845,-4.9223,-4.9339,-4.8546,-4.9243,-4.9649,-4.9707,-4.9707,-4.9707,-4.9687,-4.8817,-4.7966,-4.7192,-4.8024,-4.7502,-4.6116,-4.944,-5.0735,-5.0594,-5.2073,-5.2538,-5.2389,-5.2867,-5.3022,-5.3046,-5.3739,-5.3926,-5.3813,0.0,0.0,0.0,0.0,0.0,0.0,0.0,0.0,0.0,0.0,0.0,0.0,0.0,-5.0767,-5.0767,-5.0767,-5.0767,0.0,0.0,0.0,0.0,0.0,0.0,0.0,0.0,-5.0478,0.0,0.0,0.0,-5.0387,-5.2058,-4.9782,-4.9961,-5.2144,-5.0963,-4.966,-4.835,-4.8055,0.0,0.0,0.0,0.0,0.0,0.0,0.0,0.0,0.0,0.0,0.0,-4.5807,-4.5807,-4.5807,-4.5807,-4.5807,-4.5807,-4.5807,-4.5807,0.0,0.0,0.0,0.0,0.0,0.0,0.0,0.0,0.0,0.0,0.0,0.0,0.0,0.0,0.0,0.0,0.0,0.0,0.0,0.0,0.0,0.0,0.0,0.0,0.0,0.0,0.0,0.0,0.0,0.0,0.0,-4.9243,-5.0016,-5.0318,-5.0008,-5.0299,-5.0221,-4.9707,-5.0202,-5.0202,-4.9687,-4.8817,-4.8237,-4.7908,-4.7096,-4.6387,-4.5904,-4.7695,-4.8638,-4.9058,-5.1225,-5.1959,-5.1833,-5.2904,-5.3286,-5.329,-5.3863,-5.4,-5.3926,0.0,0.0,0.0,0.0,0.0,0.0,0.0,0.0,0.0,-5.0801,0.0,0.0,0.0,0.0,-5.0801,-5.0801,-5.0801,-5.0801,-5.0801,0.0,0.0,0.0,0.0,0.0,0.0,0.0,0.0,0.0,0.0,0.0,0.0,-4.8837,-4.8988,-5.0906,-5.0314,-4.9452,0.0,0.0,0.0,-4.5826,0.0,0.0,-4.5826,0.0,0.0,0.0,0.0,0.0,0.0,0.0,0.0,0.0,-4.5807,-4.5807,-4.5807,-4.5807,0.0,0.0,0.0,0.0,0.0,0.0,0.0,0.0,0.0,0.0,0.0,0.0,0.0,0.0,0.0,0.0,0.0,0.0,0.0,0.0,0.0,0.0,0.0,0.0,0.0,0.0,0.0,0.0,0.0,0.0,0.0,0.0,-5.0074,-5.0337,-5.0608,-5.0898,-5.0647,-5.0241,-4.9707,-5.0221,-5.0221,-4.9687,-4.9107,-4.8682,-4.8353,-4.6902,-4.6078,-4.5845,-4.6709,-4.7492,-4.8274,-5.0173,-5.1024,-5.1243,-5.2297,-5.2805,-5.3059,-5.3536,-5.3849,-5.3982,0.0,0.0,0.0,0.0,0.0,0.0,0.0,0.0,-5.0801,-5.0801,0.0,0.0,0.0,0.0,0.0,-5.0763,-5.0743,-5.0724,-5.0724,-4.9944,0.0,0.0,0.0,0.0,0.0,0.0,0.0,0.0,0.0,0.0,0.0,0.0,-4.754,-4.8392,-4.8353,-4.8333,-4.8314,0.0,-4.66,-4.5884,0.0,-4.6593,-4.5923,0.0,0.0,0.0,-4.5807,-4.5807,0.0,0.0,0.0,0.0,0.0,0.0,0.0,0.0,0.0,0.0,0.0,0.0,0.0,0.0,0.0,0.0,0.0,0.0,0.0,0.0,0.0,0.0,0.0,0.0,0.0,0.0,0.0,0.0,0.0,0.0,0.0,0.0,0.0,0.0,0.0,0.0,0.0,0.0,0.0,-4.9107,-5.0743,-5.0113,-5.0055,-5.084,-5.0113,-4.9687,-4.9668,-4.9668,-4.9668,-4.9668,-4.9668,-4.9223,-4.8411,-4.7502,-4.6631,-4.5884,-4.6709,-4.756,-4.8454,-4.9053,-4.9808,-5.0615,-5.0977,-5.1561,-5.2277,-5.2813,-5.3435,-5.4019,0.0,0.0,0.0,0.0,0.0,0.0,0.0,-5.0866,-5.0866,0.0,0.0,0.0,-5.0866,-5.0344,-5.0004,-5.0004,-4.9424,-4.9057,-4.9057,-4.8837,-4.8412,-4.7793,-4.8373,-4.8412,-4.7774,0.0,0.0,0.0,0.0,0.0,0.0,0.0,0.0,0.0,-4.7076,-4.6864,-4.7444,-4.7192,0.0,0.0,-4.6748,-4.696,0.0,0.0,0.0,0.0,0.0,-4.5807,-4.5807,0.0,-4.5807,-4.5807,0.0,0.0,0.0,0.0,0.0,0.0,-4.5807,0.0,0.0,0.0,0.0,0.0,0.0,0.0,0.0,0.0,0.0,0.0,0.0,0.0,0.0,0.0,0.0,0.0,0.0,0.0,0.0,0.0,0.0,0.0,0.0,0.0,0.0,0.0,-4.8662,-4.8604,-4.9068,-4.9475,-4.9803,-5.0016,-4.9823,-4.9397,-4.8778,-4.8759,-4.8759,-4.8759,-4.8759,-4.8952,-4.9301,-4.7773,-4.696,-4.6709,-4.6329,-4.6999,-4.8469,-4.9266,-4.9732,-5.0055,-5.1169,-5.1995,-5.2625,-5.3104,-5.3785,-5.4434,0.0,0.0,0.0,0.0,0.0,0.0,0.0,-5.0898,-5.0898,0.0,0.0,0.0,-5.0434,-4.9977,-4.9552,-4.9184,-4.8682,-4.8392,-4.8392,-4.8063,-4.7637,-4.7115,-4.7579,-4.7618,-4.7115,0.0,0.0,0.0,0.0,0.0,0.0,0.0,0.0,0.0,0.0,0.0,0.0,0.0,0.0,0.0,-4.7154,0.0,0.0,-4.7773,-4.7502,0.0,0.0,0.0,-4.5807,-4.5807,-4.5807,0.0,0.0,0.0,0.0,0.0,0.0,0.0,0.0,0.0,0.0,0.0,0.0,0.0,0.0,-4.5807,0.0,0.0,0.0,0.0,0.0,0.0,0.0,0.0,0.0,0.0,0.0,0.0,0.0,0.0,0.0,0.0,0.0,0.0,0.0,0.0,-4.8063,-4.8024,-4.8372,-4.8875,-4.9165,-4.9165,-4.8798,-4.8372,-4.785,-4.785,-4.8043,-4.8392,-4.8778,-4.9204,-4.9668,-4.8643,-4.7985,-4.7618,-4.7115,-4.7463,-4.8469,-4.9339,-4.99,-5.0264,-5.1019,-5.1926,-5.2881,-5.3057,-5.3822,-5.4802,0.0,0.0,0.0,0.0,0.0,0.0,0.0,-5.0898,-5.0898,0.0,-5.0898,-5.0589,-4.9784,-4.961,-4.9204,-4.8333,-4.8179,-4.8101,-4.8101,-4.7386,-4.696,-4.696,-4.696,-4.696,-4.696,-4.7715,0.0,0.0,0.0,0.0,0.0,0.0,0.0,0.0,0.0,0.0,0.0,0.0,0.0,-4.5962,-4.7695,-4.7405,0.0,0.0,-4.8043,0.0,-4.6709,-4.6464,-4.5807,-4.5807,-4.5807,0.0,0.0,0.0,0.0,0.0,-4.5807,0.0,0.0,0.0,0.0,0.0,0.0,0.0,-4.5807,-4.5807,-4.602,0.0,0.0,0.0,0.0,0.0,0.0,0.0,0.0,0.0,0.0,0.0,0.0,0.0,0.0,0.0,0.0,0.0,-4.6445,-4.7985,-4.7386,-4.7289,-4.8063,-4.8198,-4.8256,-4.8256,-4.7502,-4.7096,-4.7096,-4.6999,-4.7386,-4.8275,-4.9146,-4.961,-4.9707,-4.9707,-4.9281,-4.8546,-4.843,-4.845,-4.8604,-4.9281,-5.0035,-5.0766,-5.0767,-5.1722,-5.3075,-5.2955,-5.3855,-5.5173,0.0,0.0,0.0,0.0,0.0,0.0,0.0,0.0,-5.0898,-5.0898,-5.0898,-5.0589,-4.9784,-4.9068,-4.8295,-4.7424,-4.6709,-4.631,-4.631,-4.6155,-4.6058,-4.6058,-4.6058,-4.6058,-4.6058,-4.6232,-4.6232,0.0,0.0,0.0,0.0,0.0,0.0,0.0,0.0,0.0,0.0,0.0,0.0,-4.5962,-4.7695,0.0,-4.698,-4.8198,-4.7908,-4.6786,-4.6252,-4.5942,-4.5807,0.0,-4.5807,-4.5807,0.0,0.0,0.0,0.0,0.0,0.0,0.0,0.0,0.0,0.0,0.0,0.0,-4.5807,-4.5807,-4.5845,0.0,0.0,0.0,0.0,0.0,0.0,0.0,0.0,0.0,0.0,0.0,0.0,0.0,0.0,0.0,0.0,0.0,-4.5942,-4.629,-4.6155,-4.6136,-4.631,-4.696,-4.7347,-4.7347,-4.7192,-4.7096,-4.7096,-4.6406,-4.6484,-4.7366,-4.8237,-4.903,-4.9707,-4.9707,-4.961,-4.9417,-4.8701,-4.8798,-4.9417,-4.8875,-4.9165,-5.0066,-5.1377,-5.2385,-5.3173,-5.3823,-5.4671,-5.5501,0.0,0.0,0.0,0.0,0.0,0.0,0.0,0.0,-5.0898,-5.0898,-5.0898,-5.0434,-4.9184,-4.8662,-4.7869,-4.6581,-4.6445,-4.6271,-4.5826,-4.6213,-4.6252,-4.5826,-4.5807,-4.5807,-4.5807,-4.5807,-4.5807,0.0,0.0,0.0,0.0,0.0,0.0,0.0,0.0,0.0,0.0,0.0,-4.5807,-4.5904,-4.7212,0.0,-4.7192,-4.8063,-4.785,-4.7096,-4.7096,-4.6825,-4.6387,-4.5962,-4.5807,0.0,0.0,-4.5807,-4.5807,0.0,-4.5807,-4.5807,0.0,0.0,0.0,-4.5807,0.0,0.0,0.0,-4.5807,0.0,0.0,0.0,0.0,0.0,0.0,0.0,0.0,0.0,0.0,0.0,0.0,0.0,0.0,0.0,0.0,0.0,0.0,-4.5981,-4.6426,-4.6058,-4.6,-4.6426,-4.6445,-4.6445,-4.6445,-4.6445,-4.6445,-4.6445,-4.602,-4.6252,-4.7115,-4.7985,-4.8856,-4.9707,-5.0132,-5.0299,-5.026,-4.9842,-4.99,-5.026,-4.9842,-4.99,-5.0376,-5.1215,-5.226,-5.3416,-5.4284,-5.5114,-5.5808,0.0,0.0,0.0,0.0,0.0,0.0,0.0,0.0,-5.094,-5.0969,-5.0947,-5.0293,-4.859,-4.8413,-4.7831,-4.6426,-4.6786,-4.6941,-4.6581,-4.7038,-4.7038,-4.6329,-4.631,-4.6232,-4.6058,-4.6213,-4.6213,-4.6058,0.0,0.0,0.0,0.0,0.0,0.0,0.0,0.0,0.0,0.0,0.0,-4.5865,0.0,-4.6844,-4.6941,-4.7811,-4.7599,-4.6941,-4.7657,-4.7444,-4.6728,-4.6039,0.0,-4.5807,-4.5807,-4.5807,0.0,0.0,0.0,0.0,0.0,0.0,0.0,0.0,0.0,-4.5807,0.0,0.0,0.0,0.0,0.0,0.0,0.0,0.0,0.0,0.0,0.0,0.0,0.0,0.0,0.0,0.0,0.0,0.0,0.0,0.0,-4.6097,-4.6806,-4.6194,-4.6116,-4.6806,-4.6174,-4.5807,-4.5807,-4.5807,-4.5807,-4.5807,-4.5807,-4.6155,-4.6864,-4.7908,-4.8778,-4.9475,-5.0453,-5.0898,-5.0898,-5.0898,-5.0898,-5.0859,-5.055,-5.0608,-5.0937,-5.1265,-5.226,-5.3614,-5.4658,-5.5451,-5.6012,-5.0917,-5.1195,0.0,0.0,0.0,0.0,0.0,0.0,-5.1103,-5.1161,-5.1111,-5.0421,-4.8685,0.0,0.0,0.0,0.0,0.0,-4.9165,0.0,-4.8217,-4.8101,-4.8101,-4.7734,-4.696,-4.7715,-4.7734,-4.6941,0.0,0.0,0.0,0.0,0.0,0.0,-4.6252,0.0,0.0,0.0,-4.5807,0.0,-4.5904,-4.5962,0.0,-4.6922,-4.6709,-4.5962,-4.6058,-4.6039,-4.5923,0.0,-4.5807,-4.5807,0.0,-4.5807,0.0,0.0,0.0,0.0,0.0,0.0,0.0,0.0,-4.5807,0.0,0.0,0.0,0.0,0.0,0.0,0.0,0.0,0.0,0.0,0.0,0.0,0.0,0.0,0.0,0.0,0.0,0.0,0.0,0.0,0.0,0.0,-4.5942,-4.5865,-4.5845,-4.5942,-4.5845,-4.5807,-4.5807,-4.5807,-4.5807,-4.5807,-4.5807,-4.5845,-4.5981,-4.7618,-4.845,-4.8604,-5.0183,-5.0898,-5.0898,-5.0898,-5.0898,-5.0782,-4.9301,-4.9571,-5.1053,-5.2608,-5.3323,-5.3691,-5.5277,-5.5915,-5.6012,-5.1195,-5.1286,0.0,0.0,0.0,0.0,0.0,0.0,0.0,-5.1195,-5.0737,0.0,0.0,0.0,0.0,0.0,0.0,-4.797,0.0,0.0,-4.7657,-4.7657,0.0,0.0,-4.785,-4.8217,-4.8217,-4.785,-4.8217,0.0,0.0,0.0,0.0,0.0,-4.6484,0.0,-4.5807,0.0,0.0,0.0,0.0,0.0,0.0,-4.6213,-4.6426,-4.6484,-4.5981,-4.6136,-4.6484,0.0,-4.5807,0.0,0.0,0.0,0.0,0.0,0.0,0.0,0.0,0.0,0.0,0.0,0.0,0.0,0.0,0.0,-4.5807,0.0,0.0,0.0,0.0,0.0,0.0,0.0,0.0,0.0,0.0,0.0,0.0,0.0,0.0,0.0,0.0,0.0,0.0,0.0,0.0,-4.5807,-4.5807,-4.5807,-4.5807,-4.5807,-4.5807,-4.5807,-4.5807,-4.5807,-4.6058,-4.6581,-4.7811,-4.8662,-4.9184,-5.0376,-5.0898,-5.0898,-5.0898,-5.0647,-5.019,-4.9958,-4.9997,-5.0422,-5.2647,-5.3498,-5.3691,-5.5374,-5.6012,-5.6012,-5.1016,0.0,0.0,0.0,0.0,0.0,0.0,0.0,0.0,0.0,0.0,0.0,-4.9894,-4.9526,0.0,0.0,-4.9584,-4.9271,0.0,0.0,-4.8074,0.0,0.0,0.0,0.0,0.0,-4.8972,-4.8759,0.0,0.0,0.0,0.0,0.0,0.0,0.0,-4.6387,-4.5807,0.0,0.0,-4.5807,-4.5807,-4.5807,-4.5807,-4.5807,-4.6194,-4.6651,-4.6039,-4.6213,-4.6658,-4.602,-4.5807,0.0,-4.5807,0.0,0.0,0.0,0.0,0.0,-4.6097,0.0,0.0,0.0,0.0,0.0,0.0,0.0,0.0,0.0,0.0,0.0,0.0,0.0,0.0,0.0,0.0,0.0,0.0,0.0,0.0,0.0,0.0,0.0,0.0,0.0,0.0,0.0,-4.5807,0.0,-4.5807,-4.5807,-4.5807,-4.5807,-4.5807,-4.5807,-4.5807,-4.6039,-4.6464,-4.7115,-4.8237,-4.9088,-4.9726,-5.0531,-5.0898,-5.0898,-5.0666,-5.0241,-4.9707,-4.9823,-4.9803,-4.9881,-5.1738,-5.2879,-5.3691,-5.5374,-5.6012,-5.6012,-5.0078,-5.0859,0.0,0.0,0.0,0.0,0.0,0.0,0.0,0.0,0.0,0.0,0.0,0.0,0.0,0.0,0.0,-5.2323,-5.223,0.0,-5.0571,0.0,0.0,-5.0434,0.0,0.0,0.0,0.0,0.0,0.0,0.0,0.0,0.0,0.0,0.0,-4.5826,-4.5807,-4.5807,-4.5807,-4.5807,-4.5807,-4.5807,-4.5807,0.0,-4.5826,-4.5845,-4.5807,0.0,0.0,-4.5807,-4.5807,0.0,0.0,0.0,0.0,0.0,0.0,0.0,0.0,0.0,0.0,-4.6844,0.0,0.0,0.0,0.0,-4.5807,0.0,0.0,0.0,0.0,0.0,-4.5548,-4.4775,0.0,0.0,0.0,0.0,0.0,0.0,0.0,0.0,0.0,0.0,0.0,-4.5807,-4.5807,0.0,-4.5807,-4.5807,-4.5807,-4.5807,-4.5807,-4.5807,-4.5807,-4.6631,-4.7076,-4.7115,-4.8836,-4.9668,-4.9726,-5.0531,-5.0898,-5.0859,-5.0074,-4.9726,-4.9571,-4.7908,-4.8198,-4.9707,-4.9784,-5.1331,-5.3691,-5.5374,-5.6012,-5.6012,0.0,0.0,0.0,0.0,0.0,0.0,0.0,-4.9196,0.0,0.0,0.0,0.0,0.0,0.0,-5.422,0.0,0.0,-5.3123,-5.2575,-5.0548,0.0,0.0,0.0,-4.9649,0.0,0.0,0.0,0.0,0.0,0.0,0.0,0.0,0.0,0.0,0.0,-4.5807,0.0,0.0,0.0,0.0,0.0,-4.5807,-4.5807,0.0,0.0,-4.5807,-4.5807,-4.5807,0.0,-4.5807,-4.5807,-4.5807,-4.5807,-4.6194,-4.6651,-4.6651,-4.6651,0.0,0.0,0.0,-4.6864,-4.7734,0.0,0.0,0.0,0.0,0.0,0.0,0.0,0.0,0.0,0.0,-4.571,-4.5432,-4.5633,0.0,0.0,0.0,0.0,0.0,0.0,0.0,0.0,0.0,0.0,-4.5007,-4.5007,-4.5007,0.0,-4.551,-4.5807,-4.5807,-4.5807,-4.5807,-4.5807,-4.6651,-4.7386,-4.7966,-4.9146,-4.9977,-5.0492,-5.0782,-5.0898,-5.0879,-5.0608,-5.0183,-4.9707,-4.9649,-4.9649,-4.9803,-5.0925,-5.1873,-5.284,-5.4561,-5.5548,-5.6012,-4.7871,0.0,0.0,0.0,0.0,0.0,0.0,0.0,0.0,0.0,-5.2637,0.0,-5.6289,0.0,-5.6282,0.0,-5.5785,-5.435,-5.224,-5.1053,0.0,-4.9821,-4.9839,0.0,0.0,0.0,0.0,0.0,0.0,-4.7947,0.0,0.0,0.0,0.0,0.0,0.0,0.0,0.0,-4.5807,0.0,0.0,-4.5807,0.0,0.0,-4.6271,-4.6271,0.0,-4.6464,-4.6709,-4.6709,-4.6709,-4.6709,-4.6709,-4.7115,-4.756,-4.756,-4.756,-4.7753,-4.8624,-4.8237,0.0,-4.8256,-4.7734,0.0,-4.6709,0.0,0.0,0.0,0.0,0.0,0.0,0.0,-4.5807,-4.5807,-4.5807,-4.5807,0.0,0.0,0.0,0.0,0.0,0.0,0.0,0.0,-4.5026,-4.5026,-4.5026,-4.5026,0.0,0.0,-4.5807,-4.5807,-4.5807,-4.5962,-4.6271,-4.7134,-4.8005,-4.8875,-4.9726,-5.0395,-5.0898,-5.0898,-5.0898,-5.0879,-5.0589,-4.9997,-4.9281,-4.9803,-4.9707,-4.9378,-5.077,-5.1679,-5.2422,-5.4155,-5.5316,-5.6012,0.0,0.0,0.0,0.0,-4.7539,0.0,0.0,0.0,-5.0547,0.0,-5.3105,-5.4863,-5.666,-5.7558,-5.7695,-5.6855,-5.7461,0.0,-5.1756,-5.2999,0.0,0.0,-5.1559,-5.2435,-5.2411,0.0,0.0,0.0,0.0,0.0,0.0,0.0,0.0,0.0,-4.5807,0.0,-4.5807,-4.5807,-4.5807,-4.5807,-4.5845,-4.5865,-4.5962,-4.6825,0.0,-4.7212,-4.7173,-4.7695,-4.8392,-4.8392,-4.8392,-4.8392,-4.8392,-4.843,-4.8469,-4.8469,-4.8469,-4.8643,-4.9513,-4.9126,-4.8469,-4.8508,0.0,0.0,0.0,0.0,-4.5807,0.0,0.0,0.0,0.0,0.0,0.0,-4.5807,-4.5807,-4.5807,0.0,0.0,0.0,0.0,0.0,0.0,0.0,-4.5768,-4.5749,-4.5749,-4.5749,0.0,0.0,0.0,-4.5807,-4.5807,-4.5807,-4.6213,-4.7096,-4.7966,-4.8836,-4.9707,-5.0511,-5.0898,-5.0898,-5.0898,-5.0898,-5.0859,-5.0094,-4.9262,-4.8469,-4.8508,-4.8508,-4.8546,-4.9417,-5.079,-5.248,-5.4175,-5.5316,-5.6012,-4.6933,-4.6621,-4.6621,0.0,-4.6621,-4.6777,0.0,0.0,0.0,0.0,-5.582,-5.7793,-6.0137,-6.0019,-5.9668,-5.9433,-5.8496,0.0,0.0,0.0,0.0,-5.2885,-5.1993,-5.1826,-5.2459,-5.0072,0.0,-4.8811,0.0,0.0,-4.6136,0.0,0.0,0.0,0.0,0.0,-4.5807,-4.5807,-4.5807,-4.5865,-4.6523,-4.6767,0.0,0.0,-4.8469,-4.8952,-4.8295,-4.8217,-4.8392,-4.8392,-4.8392,-4.8392,-4.8392,-4.8836,-4.9378,-4.9378,-4.9378,-4.9552,-5.0376,-4.9997,-4.9513,-5.0105,-4.9146,-4.8005,0.0,0.0,0.0,0.0,0.0,0.0,0.0,0.0,0.0,0.0,-4.5807,0.0,0.0,0.0,0.0,0.0,0.0,0.0,0.0,-4.5258,-4.491,-4.491,-4.491,0.0,0.0,0.0,0.0,-4.5807,-4.5807,-4.6213,-4.7096,-4.7966,-4.8836,-4.9707,-5.0511,-5.0898,-5.0898,-5.0898,-5.0898,-5.0898,-5.0685,-5.0132,-4.9417,-5.0016,-4.9919,-4.9455,-5.026,-5.166,-5.3304,-5.4407,-5.5316,-5.6012,-4.6561,0.0,0.0,-4.6308,0.0,0.0,-4.8594,0.0,0.0,-5.4336,-5.625,0.0,-5.9316,-5.9707,-5.9726,-5.9336,-5.8437,0.0,0.0,0.0,0.0,-5.3372,-5.239,-5.2062,-5.2522,-4.9971,0.0,-4.8494,0.0,0.0,-4.5807,0.0,0.0,0.0,0.0,-4.5807,0.0,-4.6213,-4.6368,-4.6445,-4.7349,0.0,0.0,-4.8687,-4.9313,-4.9739,-4.9623,-4.9543,-4.9494,-4.9494,-4.9494,-4.9494,-4.9494,-4.9842,-5.0221,-5.0221,-5.0221,-5.0318,-5.0782,-5.0569,-5.0241,-5.0337,-4.9378,-4.8295,-4.7927,-4.6786,-4.5807,0.0,0.0,0.0,0.0,0.0,0.0,0.0,0.0,0.0,0.0,0.0,0.0,0.0,0.0,0.0,-4.5807,-4.5394,-4.5123,-4.5123,-4.549,0.0,0.0,0.0,0.0,-4.5807,-4.6542,-4.7173,-4.7657,-4.8875,-4.9745,-5.0221,-5.0685,-5.0898,-5.0898,-5.0898,-5.0898,-5.0898,-5.0898,-5.0434,-4.9765,-5.0569,-5.0434,-4.9784,-5.0589,-5.197,-5.3556,-5.4039,-5.4987,-5.6012,0.0,0.0,0.0,0.0,0.0,0.0,0.0,-5.0723,0.0,-5.3887,0.0,-5.6933,-5.6933,-5.8183,-5.8711,-5.7969,0.0,-5.6698,-5.4242,-5.4841,-5.4549,-5.2854,-5.2732,-5.2673,-5.2614,-5.0112,0.0,0.0,0.0,0.0,0.0,0.0,0.0,0.0,0.0,0.0,0.0,-4.6735,-4.7103,0.0,-4.8248,-4.8669,-4.8766,-4.9633,-4.9976,-5.0073,-5.0829,-5.1032,-5.0933,-5.0933,-5.0914,-5.0906,-5.0906,-5.0906,-5.0898,-5.0898,-5.0898,-5.0898,-5.0898,-5.0898,-5.0724,-5.0035,-4.9204,-4.8372,-4.7618,-4.667,-4.5981,-4.5981,-4.5884,-4.5807,0.0,0.0,0.0,0.0,0.0,0.0,0.0,0.0,0.0,0.0,0.0,0.0,0.0,0.0,0.0,0.0,0.0,0.0,0.0,0.0,0.0,0.0,-4.727,0.0,-4.8566,0.0,-5.0627,-5.1072,-5.084,-5.0801,-5.0898,-5.0898,-5.0898,-5.0898,-5.0898,-5.0434,-4.9765,-5.0569,-5.0492,-4.9939,-5.0627,-5.197,-5.3498,-5.3498,-5.4561,-5.6012,0.0,0.0,0.0,0.0,0.0,-4.9661,-5.1928,-5.3476,-5.457,-5.5019,-5.7226,-5.873,-5.873,-5.8379,-5.8066,-5.791,-5.7246,0.0,0.0,0.0,0.0,-5.3808,-5.3086,-5.2695,-5.2675,-5.0123,-4.8775,0.0,0.0,0.0,0.0,0.0,0.0,0.0,0.0,0.0,-4.5865,-4.6783,0.0,-4.7319,-4.8929,-4.9562,-4.9679,-5.0532,-5.0868,-5.0887,-5.1062,-5.1087,-5.106,-5.106,-5.1039,-5.0978,-5.0978,-5.0929,-5.0898,-5.0898,-5.0898,-5.0898,-5.0898,-5.0898,-5.0859,-5.0724,-5.0074,-4.9436,-4.9281,-4.8005,-4.6864,-4.6864,-4.631,-4.5807,-4.5807,0.0,0.0,0.0,0.0,0.0,0.0,0.0,0.0,0.0,0.0,0.0,0.0,0.0,0.0,0.0,0.0,0.0,0.0,0.0,0.0,0.0,0.0,0.0,0.0,0.0,-4.9184,-5.195,-5.0577,-5.026,-5.0898,-5.0898,-5.0898,-5.0898,-5.0898,-5.0434,-4.9765,-5.0569,-5.0821,-5.0705,-5.084,-5.197,-5.3498,-5.3498,-5.4561,-5.6012,0.0,0.0,0.0,0.0,0.0,0.0,0.0,-5.4858,0.0,-5.5368,-5.5994,-5.6502,-5.6502,-5.6931,-5.7049,-5.6581,-5.6171,-5.5566,-5.4687,-5.4199,-5.3769,-5.3339,-5.2499,0.0,-5.2031,-5.0388,-4.9481,-4.9427,0.0,0.0,0.0,0.0,0.0,0.0,0.0,-4.59,0.0,0.0,0.0,-4.8073,-4.9828,-5.0538,-5.0572,-5.0996,-5.1167,-5.1209,-5.1152,-5.1172,-5.1185,-5.112,-5.108,-5.106,-5.1083,-5.107,-5.0998,-5.0998,-5.0983,-5.0929,-5.0906,-5.0898,-5.0898,-5.0898,-5.0299,-4.9707,-4.9707,-4.8701,-4.7657,-4.7192,-4.6767,-4.6348,-4.5884,-4.5807,0.0,0.0,0.0,0.0,0.0,0.0,0.0,0.0,0.0,0.0,0.0,0.0,0.0,0.0,0.0,-4.629,-4.5826,0.0,0.0,0.0,0.0,0.0,0.0,0.0,0.0,-5.1525,-5.0712,-5.0531,-5.0898,-5.0898,-5.0898,-5.0898,-5.0898,-5.0685,-5.0337,-5.0743,-5.0898,-5.0937,-5.1409,-5.2356,-5.3556,-5.4,-5.4948,-5.6012,0.0,-4.7451,0.0,0.0,-5.078,0.0,-5.3794,-5.5475,-5.6355,-5.5674,-5.4971,-5.4483,-5.4307,-5.5499,-5.597,-5.5094,-5.5016,-5.4646,-5.3786,-5.3083,-5.2615,-5.2439,-5.1775,-5.1405,-5.1406,-5.0605,-5.0136,0.0,0.0,0.0,0.0,0.0,0.0,0.0,0.0,0.0,0.0,0.0,-4.8906,-4.9023,-5.0596,-5.1225,-5.1223,-5.1226,-5.1241,-5.1293,-5.1249,-5.1261,-5.1291,-5.1193,-5.1133,-5.1124,-5.1187,-5.1163,-5.1122,-5.1123,-5.1075,-5.1024,-5.0978,-5.0965,-5.097,-5.0954,-5.0475,-4.9938,-4.9753,-4.903,-4.814,-4.727,-4.6941,-4.6612,-4.5923,-4.5807,0.0,0.0,0.0,0.0,0.0,0.0,0.0,0.0,0.0,0.0,0.0,0.0,0.0,0.0,0.0,-4.6523,-4.5845,-4.6639,0.0,0.0,0.0,-4.8488,-4.8662,0.0,-5.0627,0.0,-5.0821,-5.0724,-5.0898,-5.0898,-5.0898,-5.0898,-5.0898,-5.0898,-5.0898,-5.0898,-5.0898,-5.0995,-5.1854,-5.2724,-5.3614,-5.4484,-5.5316,-5.6031,0.0,0.0,0.0,0.0,0.0,0.0,0.0,-5.5476,-5.6577,-5.6493,-5.6417,-5.6066,-5.5266,-5.5324,-5.5071,-5.4192,-5.4114,-5.3743,-5.2883,-5.2747,-5.2356,-5.1555,-5.1438,-5.1399,-5.1399,-5.054,-5.0092,0.0,0.0,0.0,0.0,0.0,0.0,0.0,0.0,0.0,0.0,-4.9108,-4.9877,-4.9955,-5.09,-5.1295,-5.1295,-5.1291,-5.1293,-5.1297,-5.1293,-5.1293,-5.1301,-5.1362,-5.1292,-5.1194,-5.1199,-5.1208,-5.119,-5.1187,-5.1184,-5.1177,-5.1174,-5.1163,-5.1152,-5.1097,-5.1014,-5.0746,-4.9892,-4.903,-4.814,-4.727,-4.6464,-4.5904,-4.5826,-4.5807,-4.5807,0.0,0.0,0.0,0.0,0.0,0.0,0.0,0.0,0.0,0.0,0.0,0.0,0.0,0.0,-4.5884,-4.5807,-4.6639,-4.6689,-4.5826,0.0,-4.8778,-4.9571,-4.8952,0.0,-5.2047,-5.0538,-5.0183,-5.0898,-5.0898,-5.0898,-5.0898,-5.0898,-5.0898,-5.0898,-5.0898,-5.0898,-5.0995,-5.1854,-5.2724,-5.3614,-5.4484,-5.5316,-5.61,0.0,0.0,0.0,0.0,0.0,0.0,0.0,-5.6157,-5.6608,-5.6598,-5.613,-5.5682,-5.5331,-5.4823,-5.4161,-5.3306,-5.3228,-5.2857,-5.198,-5.1921,-5.1765,-5.1413,-5.1394,-5.1395,-5.1398,-5.1066,-5.0871,0.0,0.0,0.0,0.0,0.0,0.0,0.0,0.0,-4.8205,-4.8274,-4.9531,-5.0058,-5.0136,-5.1014,-5.1366,-5.1366,-5.1365,-5.1366,-5.1366,-5.1365,-5.1366,-5.1365,-5.1398,-5.1367,-5.1323,-5.1328,-5.1327,-5.1316,-5.1273,-5.1236,-5.1191,-5.1202,-5.1193,-5.1184,-5.1172,-5.1156,-5.1049,-5.065,-5.0279,-4.9621,-4.8236,-4.7214,-4.6426,-4.5904,-4.6232,-4.6406,0.0,0.0,0.0,0.0,0.0,0.0,0.0,0.0,0.0,0.0,0.0,0.0,0.0,0.0,0.0,-4.5807,-4.6136,0.0,-4.6581,0.0,-4.8295,-4.9687,-4.9359,-4.9939,-5.1409,-5.0751,-5.0589,-5.0898,-5.0898,-5.0898,-5.0898,-5.0898,-5.0898,-5.0937,-5.1467,-5.1679,-5.1815,-5.3227,-5.3962,-5.4445,-5.5799,-5.6487,-5.6893,-5.2936,0.0,-5.2702,0.0,-5.4752,-5.5181,-5.6411,-5.6606,-5.6508,-5.6255,-5.5454,-5.4927,-5.4927,-5.4361,-5.3543,-5.2419,-5.2321,-5.2069,-5.1444,-5.1405,-5.1405,-5.1405,-5.1405,0.0,-5.1393,-5.1393,-5.1393,-5.1393,-5.0528,0.0,0.0,0.0,0.0,0.0,-4.8788,-4.9179,-4.9234,-5.0115,-5.0475,-5.0534,-5.116,-5.1394,-5.1398,-5.1399,-5.1395,-5.1398,-5.1399,-5.1395,-5.1394,-5.1394,-5.1391,-5.1402,-5.1403,-5.1391,-5.1384,-5.1347,-5.1307,-5.1258,-5.1253,-5.1268,-5.1244,-5.1232,-5.1225,-5.1132,-5.0825,-5.0757,-5.0325,-4.8819,-4.7979,-4.7323,-4.6677,-4.6864,-4.6902,-4.629,0.0,0.0,0.0,0.0,0.0,0.0,0.0,0.0,0.0,0.0,0.0,0.0,0.0,0.0,0.0,0.0,0.0,0.0,0.0,0.0,0.0,-4.9939,-5.0337,-5.0898,-5.0898,-5.0898,-5.0898,-5.0898,-5.0898,-5.0898,-5.0898,-5.1053,-5.1331,-5.195,-5.2345,-5.2724,-5.4213,-5.4793,-5.4967,-5.639,-5.7086,-5.7415,-5.3483,-5.3971,-5.4517,-5.6255,-5.6567,-5.6586,-5.6606,-5.6606,-5.6294,-5.5435,-5.4556,-5.4029,-5.4029,-5.401,-5.3307,-5.157,-5.1414,-5.1414,-5.1394,-5.1394,-5.1394,0.0,0.0,-5.1394,-5.1394,-5.1394,-5.1394,-5.1394,0.0,0.0,-5.0067,0.0,-4.8784,-4.882,-4.9703,-5.0073,-5.0143,-5.1004,-5.1375,-5.1394,-5.1394,-5.1394,-5.1394,-5.1394,-5.1394,-5.1394,-5.1394,-5.1394,-5.1394,-5.1394,-5.1394,-5.1394,-5.1394,-5.1394,-5.1394,-5.1394,-5.1396,-5.1396,-5.1396,-5.1403,-5.1377,-5.1328,-5.1304,-5.1059,-5.0123,-4.9917,-4.964,-4.8696,-4.8489,-4.8454,-4.838,-4.7676,-4.7096,-4.7096,0.0,0.0,0.0,0.0,0.0,0.0,0.0,0.0,0.0,0.0,0.0,0.0,0.0,0.0,0.0,0.0,0.0,-4.7096,-4.8778,0.0,-4.9707,-5.0492,-5.0898,-5.0898,-5.0898,-5.0898,-5.0898,-5.0898,-5.0898,-5.0898,-5.0898,-5.1389,-5.219,-5.221,-5.2713,-5.3575,-5.4465,-5.4793,-5.4909,-5.5722,-5.6564,-5.7415,-5.5493,-5.5767,-5.5942,-5.6508,-5.6606,-5.6606,-5.6606,-5.6606,-5.6294,-5.5415,-5.5064,-5.442,-5.3249,-5.2585,-5.1999,0.0,-5.1394,-5.1394,0.0,-5.1394,-5.1394,-5.1394,-5.1394,-5.1394,-5.1394,-5.1394,-5.1394,-5.1394,0.0,0.0,0.0,-4.9824,-4.9685,-4.9716,-5.0605,-5.0995,-5.1004,-5.1277,-5.1394,-5.1394,-5.1394,-5.1394,-5.1394,-5.1394,-5.1394,-5.1394,-5.1394,-5.1394,-5.1394,-5.1394,-5.1394,-5.1394,-5.1394,-5.1394,-5.1394,-5.1394,-5.1394,-5.1394,-5.1394,-5.1396,-5.1382,-5.1373,-5.1377,-5.1285,-5.0993,-5.0426,-4.9864,-4.9536,-4.9453,-4.9245,-4.8594,-4.8734,-4.8729,-4.8085,-4.7985,0.0,0.0,0.0,0.0,0.0,0.0,0.0,0.0,-4.5807,0.0,0.0,0.0,0.0,0.0,0.0,0.0,0.0,-4.9417,0.0,-5.0511,-5.0763,-5.0898,-5.0898,-5.0898,-5.0898,-5.0898,-5.0898,-5.0898,-5.0898,-5.0898,-5.1389,-5.2248,-5.284,-5.3594,-5.4465,-5.5296,-5.5993,-5.6611,-5.7462,-5.8314,-5.9184,-5.643,-5.6606,-5.6606,-5.6606,-5.6333,-5.6216,-5.6547,-5.604,-5.5435,-5.4888,-5.4537,-5.3778,-5.237,-5.1433,0.0,-5.1375,-5.1394,-5.1394,-5.1394,-5.1394,-5.1394,-5.1394,-5.1394,-5.1394,-5.1394,0.0,0.0,-5.1394,-5.1394,-5.1121,-5.0592,-5.0592,-5.0592,-5.0612,-5.116,-5.1394,-5.1394,-5.1394,-5.1394,-5.1394,-5.1394,-5.1394,-5.1394,-5.1394,-5.1394,-5.1394,-5.1394,-5.1394,-5.1394,-5.1394,-5.1394,-5.1394,-5.1394,-5.1394,-5.1394,-5.1394,-5.1394,-5.1394,-5.1394,-5.1394,-5.1394,-5.1394,-5.1394,-5.14,-5.1399,-5.0956,-5.0508,-5.0442,-5.0418,-5.0206,-4.9616,-4.9673,-4.9604,-4.902,-4.8892,-4.8662,-4.8005,0.0,0.0,0.0,0.0,0.0,0.0,-4.6786,0.0,0.0,0.0,0.0,0.0,0.0,0.0,-4.9649,-4.9707,0.0,-5.0898,-5.0898,-5.1053,-5.1389,-5.1718,-5.1892,-5.1892,-5.1892,-5.1892,-5.1892,-5.1892,-5.2376,-5.3207,-5.3749,-5.4484,-5.5296,-5.5799,-5.6525,-5.7376,-5.7907,-5.8874,-5.9977,-5.643,-5.6606,0.0,0.0,-5.5884,0.0,-5.6391,-5.5083,-5.3971,-5.3912,-5.319,-5.2372,-5.1492,-5.067,-5.0514,-5.1336,0.0,0.0,0.0,-5.1394,-5.1394,-5.1394,-5.1394,-5.1394,-5.1394,-5.1394,-5.1394,-5.1394,-5.1394,-5.1394,-5.1394,-5.1394,-5.1394,-5.1394,-5.1394,-5.1394,-5.1394,-5.1394,-5.1394,-5.1394,-5.1394,-5.1394,-5.1394,-5.1394,-5.1394,-5.1394,-5.1394,-5.1394,-5.1394,-5.1394,-5.1394,-5.1394,-5.1394,-5.1394,-5.1394,-5.1394,-5.1394,-5.1394,-5.1394,-5.1394,-5.1394,-5.1394,-5.1394,-5.1394,-5.1394,-5.1397,-5.1387,-5.1328,-5.1256,-5.1204,-5.1213,-5.0486,-4.9902,-4.9898,-4.984,-4.9238,-4.7579,0.0,0.0,0.0,0.0,0.0,0.0,-4.8392,-4.8392,0.0,0.0,0.0,0.0,0.0,-4.8101,-4.9726,-4.9842,-5.0229,-5.0975,-5.1053,-5.1486,-5.2306,-5.3111,-5.3498,-5.3498,-5.3498,-5.3498,-5.3498,-5.3498,-5.3981,-5.4793,-5.4793,-5.5277,-5.6012,-5.6012,-5.6564,-5.7376,-5.7318,-5.841,-5.988,0.0,0.0,-5.6606,-5.6606,-5.5884,-5.5376,-5.5571,-5.4693,-5.3756,-5.3093,-5.2821,-5.2372,-5.1492,-5.1219,-5.118,-5.1375,-5.0789,-5.069,-5.1355,-5.1394,-5.1394,-5.1394,-5.1394,-5.1394,-5.1394,-5.1394,-5.1394,-5.1394,-5.1394,-5.1394,-5.1394,-5.1394,-5.1394,-5.1394,-5.1394,-5.1394,-5.1394,-5.1394,-5.1394,-5.1394,-5.1394,-5.1394,-5.1394,-5.1394,-5.1394,-5.1394,-5.1394,-5.1394,-5.1394,-5.1394,-5.1394,-5.1394,-5.1394,-5.1394,-5.1394,-5.1394,-5.1394,-5.1394,-5.1394,-5.1394,-5.1394,-5.1394,-5.1394,-5.1394,-5.1394,-5.1402,-5.1408,-5.137,-5.136,-5.1347,-5.1282,-5.1088,-5.0904,-5.0801,-5.0783,-5.0591,-5.007,-4.9649,0.0,0.0,-4.8508,-4.8179,-4.8372,-4.8392,-4.8392,0.0,0.0,0.0,0.0,-4.99,-5.0183,-5.0589,-5.1254,-5.1699,-5.1892,-5.255,-5.2995,-5.3188,-5.3401,-5.3498,-5.3498,-5.3498,-5.3498,-5.3498,-5.3498,-5.3981,-5.4793,-5.4793,-5.5277,-5.6012,-5.6012,-5.694,-5.8217,-5.7559,-5.841,-5.9803,-5.643,-5.6606,-5.6606,-5.6606,-5.5552,-5.483,-5.524,-5.3873,-5.278,-5.2704,-5.2351,-5.1921,-5.1453,-5.0692,-5.0535,-5.1336,-5.0965,-5.0906,-5.1375,-5.1394,-5.1394,-5.1394,-5.1394,-5.1394,-5.1394,-5.1394,-5.1394,-5.1394,-5.1394,-5.1394,-5.1394,-5.1394,-5.1394,-5.1394,-5.1394,-5.1394,-5.1394,-5.1394,-5.1394,-5.1394,-5.1394,-5.1394,-5.1394,-5.1394,-5.1394,-5.1394,-5.1394,-5.1394,-5.1394,-5.1394,-5.1394,-5.1394,-5.1394,-5.1394,-5.1394,-5.1394,-5.1394,-5.1394,-5.1394,-5.1394,-5.1394,-5.1394,-5.1394,-5.1394,-5.1394,-5.1394,-5.1394,-5.1394,-5.1398,-5.139,-5.1345,-5.1327,-5.1289,-5.12,-5.1147,-5.0944,-5.0461,-4.9984,0.0,-4.9707,-4.9281,-4.9146,-4.9513,-4.9552,-4.9552,-4.9552,0.0,0.0,-5.079,-5.1254,-5.1486,-5.1486,-5.2337,-5.2782,-5.2782,-5.3652,-5.4097,-5.4097,-5.4465,-5.4639,-5.4639,-5.4639,-5.4639,-5.4639,-5.4639,-5.4909,-5.5354,-5.5354,-5.5606,-5.6012,-5.6012,-5.6824,-5.7946,-5.7473,-5.8159,-5.9242,-5.6391,-5.6606,-5.6567,-5.643,-5.5064,-5.4205,-5.481,-5.2917,-5.1668,-5.2411,-5.1863,-5.1355,-5.1219,-5.0008,-4.9735,-5.1082,-5.1316,-5.1394,-5.1394,-5.1394,-5.1394,-5.1394,-5.1394,-5.1394,-5.1394,-5.1394,-5.1394,-5.1394,-5.1394,-5.1394,-5.1394,-5.1394,-5.1394,-5.1394,-5.1394,-5.1394,-5.1394,-5.1394,-5.1394,-5.1394,-5.1394,-5.1394,-5.1394,-5.1394,-5.1394,-5.1394,-5.1394,-5.1394,-5.1394,-5.1394,-5.1394,-5.1394,-5.1394,-5.1394,-5.1394,-5.1394,-5.1394,-5.1394,-5.1394,-5.1394,-5.1394,-5.1394,-5.1394,-5.1394,-5.1394,-5.1394,-5.1394,-5.1394,-5.1394,-5.1396,-5.1407,-5.1344,-5.1307,-5.1296,-5.12,-5.085,-5.0106,0.0,-4.9903,-4.9881,-4.9881,-5.0152,-5.0821,-5.1014,-5.1091,-5.1091,-5.1207,-5.1621,0.0,-5.2519,-5.2597,-5.2597,-5.3304,-5.3749,-5.3884,-5.46,-5.4987,-5.4987,-5.5664,-5.6012,-5.6012,-5.6012,-5.6012,-5.6012,-5.6012,-5.6012,-5.6012,-5.6012,-5.6012,-5.6012,-5.6012,-5.6525,-5.7299,-5.7299,-5.7772,-5.841,-5.6274,-5.6606,-5.6372,-5.563,-5.4674,-5.3795,-5.3192,-5.2136,-5.1453,-5.159,-5.1472,-5.1121,-5.0377,-5.0711,-5.0809,-5.0338,-5.0984,-5.1394,-5.1394,-5.1394,-5.1394,-5.1394,-5.1394,-5.1394,-5.1394,-5.1394,-5.1394,-5.1394,-5.1394,-5.1394,-5.1394,-5.1394,-5.1394,-5.1394,-5.1394,-5.1394,-5.1394,-5.1394,-5.1394,-5.1394,-5.1394,-5.1394,-5.1394,-5.1394,-5.1394,-5.1394,-5.1394,-5.1394,-5.1394,-5.1394,-5.1394,-5.1394,-5.1394,-5.1394,-5.1394,-5.1394,-5.1394,-5.1394,-5.1394,-5.1394,-5.1394,-5.1394,-5.1394,-5.1394,-5.1394,-5.1394,-5.1394,-5.1394,-5.1394,-5.1394,-5.1396,-5.1389,-5.1363,-5.1303,-5.1288,-5.118,-5.0925,0.0,-5.0836,-5.072,-5.0705,-5.0763,-5.0898,-5.1563,-5.1989,-5.1989,-5.2685,-5.3149,-5.3285,-5.4,-5.4407,-5.4407,-5.4523,-5.4929,-5.5606,-5.576,-5.5818,-5.5818,-5.5935,-5.6012,-5.6012,-5.6012,-5.6012,-5.6012,-5.6012,-5.6012,-5.6012,-5.6012,-5.6012,-5.6012,-5.6012,-5.6525,-5.7299,-5.7299,-5.7396,-5.7617,-5.4947,-5.5201,-5.5064,-5.4674,-5.3873,-5.3014,-5.2136,-5.1668,-5.1238,-5.077,-5.1102,-5.1258,-5.0848,-5.0748,-5.0729,-5.0789,-5.0748,-5.0906,-5.1375,-5.1394,-5.1394,-5.1394,-5.1394,-5.1394,-5.1394,-5.1394,-5.1394,-5.1394,-5.1394,-5.1394,-5.1394,-5.1394,-5.1394,-5.1394,-5.1394,-5.1394,-5.1394,-5.1394,-5.1394,-5.1394,-5.1394,-5.1394,-5.1394,-5.1394,-5.1394,-5.1394,-5.1394,-5.1394,-5.1394,-5.1394,-5.1394,-5.1394,-5.1394,-5.1394,-5.1394,-5.1394,-5.1394,-5.1394,-5.1394,-5.1394,-5.1394,-5.1394,-5.1394,-5.1394,-5.1394,-5.1394,-5.1394,-5.1394,-5.1394,-5.1394,-5.1394,-5.1398,-5.139,-5.1365,-5.1327,0.0,0.0,-5.1172,-5.1268,-5.1612,-5.1262,-5.1344,-5.2229,-5.224,-5.2384,-5.2859,-5.3265,-5.3691,-5.4175,-5.4581,-5.5006,-5.5432,-5.5451,-5.5625,-5.6012,-5.6012,-5.6012,-5.6012,-5.6012,-5.6012,-5.6012,-5.6012,-5.6012,-5.6012,-5.6012,-5.6012,-5.6012,-5.6012,-5.6012,-5.6012,-5.6012,-5.6525,-5.7299,-5.7299,-5.7598,-5.8062,-5.3483,-5.3698,-5.3639,-5.3424,-5.3014,-5.2411,-5.1531,-5.1394,-5.116,-5.0494,-5.0984,-5.1316,-5.1121,-5.067,-5.0592,-5.1063,-5.067,-5.069,-5.1355,-5.1219,-5.1199,-5.1394,-5.1394,-5.1394,-5.1394,-5.1394,-5.1394,-5.1394,-5.1394,-5.1394,-5.1394,-5.1394,-5.1394,-5.1394,-5.1394,-5.1394,-5.1394,-5.1394,-5.1394,-5.1394,-5.1394,-5.1394,-5.1394,-5.1394,-5.1394,-5.1394,-5.1394,-5.1394,-5.1394,-5.1394,-5.1394,-5.1394,-5.1394,-5.1394,-5.1394,-5.1394,-5.1394,-5.1394,-5.1394,-5.1394,-5.1394,-5.1394,-5.1394,-5.1394,-5.1394,-5.1394,-5.1394,-5.1394,-5.1394,-5.1394,-5.1394,-5.1394,-5.1398,-5.1408,0.0,0.0,0.0,-5.1267,-5.1491,-5.2216,-5.1746,-5.1942,-5.3359,-5.3072,-5.3072,-5.3749,-5.3981,-5.4368,-5.5045,-5.5084,-5.5354,-5.5993,-5.6012,-5.6012,-5.6012,-5.6012,-5.6012,-5.6012,-5.6012,-5.6012,-5.6012,-5.6012,-5.6012,-5.6012,-5.6012,-5.6012,-5.6012,-5.6012,-5.6128,-5.6293,-5.6293,-5.6699,-5.7357,-5.7763,-5.8062,-5.8372,-5.2468,-5.2802,-5.2546,-5.1726,-5.2214,-5.2411,-5.1531,-5.1394,-5.1375,-5.1316,-5.1355,-5.1082,-5.028,-5.0867,-5.1004,-5.026,-5.0887,-5.1336,-5.1394,-5.0631,-5.0553,-5.1355,-5.1394,-5.1394,-5.1394,-5.1394,-5.1394,-5.1394,-5.1394,-5.1394,-5.1394,-5.1394,-5.1394,-5.1394,-5.1394,-5.1394,-5.1394,-5.1394,-5.1394,-5.1394,-5.1394,-5.1394,-5.1394,-5.1394,-5.1394,-5.1394,-5.1394,-5.1394,-5.1394,-5.1394,-5.1394,-5.1394,-5.1394,-5.1394,-5.1394,-5.1394,-5.1394,-5.1394,-5.1394,-5.1394,-5.1394,-5.1394,-5.1394,-5.1394,-5.1394,-5.1394,-5.1394,-5.1394,-5.1394,-5.1394,-5.1394,-5.1394,-5.1398,-5.1408,0.0,0.0,-5.1317,-5.1309,-5.1545,-5.2222,-5.2251,-5.2544,-5.3417,-5.4175,-5.4639,-5.4697,-5.5393,-5.5838,-5.5915,-5.5915,-5.5935,-5.6012,-5.6012,-5.6012,-5.6012,-5.6012,-5.6012,-5.6012,-5.6012,-5.6012,-5.6012,-5.6012,-5.6012,-5.6012,-5.6012,-5.6012,-5.6012,-5.6012,-5.6467,-5.7202,-5.7202,-5.7241,-5.7492,-5.9106,-5.8739,-5.7724,-5.1765,-5.1882,-5.1785,-5.1453,-5.1668,-5.1609,-5.0729,-5.1043,-5.1219,-5.0651,-5.1063,-5.1277,-5.0945,-5.1199,-5.1277,-5.0945,-5.1219,-5.1394,-5.1394,-5.0573,-5.0241,-5.0573,-5.0592,-5.0848,-5.1394,-5.1394,-5.1394,-5.1394,-5.1394,-5.1394,-5.1394,-5.1394,-5.1394,-5.1394,-5.1394,-5.1394,-5.1394,-5.1394,-5.1394,-5.1394,-5.1394,-5.1394,-5.1394,-5.1394,-5.1394,-5.1394,-5.1394,-5.1394,-5.1394,-5.1394,-5.1394,-5.1394,-5.1394,-5.1394,-5.1394,-5.1394,-5.1394,-5.1394,-5.1394,-5.1394,-5.1394,-5.1394,-5.1394,-5.1394,-5.1394,-5.1394,-5.155,-5.2097,-5.2214,-5.2214,-5.2214,-5.2214,-5.2021,-5.1498,0.0,-5.1585,-5.2107,-5.2168,-5.2652,-5.3933,-5.3621,-5.3792,-5.5054,-5.4968,-5.5048,-5.5518,-5.5838,-5.6012,-5.6012,-5.6012,-5.6012,-5.6012,-5.6012,-5.6012,-5.6012,-5.6012,-5.6012,-5.6012,-5.6545,-5.6525,-5.6051,-5.7114,-5.7327,-5.6835,-5.7385,-5.7617,-5.7559,-5.7037,-5.7327,-5.8043,-5.7512,-5.7965,-5.899,-5.9667,-5.9803,-5.9803,-5.0984,-5.0984,-5.0984,-5.0984,-5.1219,-5.1199,-5.0592,-5.1023,-5.1199,-5.0592,-5.1023,-5.1394,-5.1394,-5.1394,-5.1394,-5.1394,-5.1394,-5.1394,-5.1394,-5.034,-4.9694,-4.9694,-4.9694,-5.0104,-5.0965,-5.0984,-5.1121,-5.1394,-5.1394,-5.1394,-5.1394,-5.1394,-5.1394,-5.1394,-5.1394,-5.1394,-5.1394,-5.1394,-5.1394,-5.1394,-5.1394,-5.1394,-5.1394,-5.1394,-5.1394,-5.1394,-5.1394,-5.1394,-5.1394,-5.1394,-5.1394,-5.1394,-5.1394,-5.1394,-5.1394,-5.1394,-5.1394,-5.1394,-5.1394,-5.1394,-5.1394,-5.1394,-5.1394,-5.1472,-5.1746,-5.1804,-5.2058,-5.2936,-5.3112,-5.3112,-5.3112,-5.3112,-5.2917,-5.2312,-5.2214,-5.2433,-5.3027,-5.3111,-5.3631,-5.5023,-5.4664,-5.4819,-5.6103,-5.5681,-5.5514,-5.6025,-5.6018,-5.6012,-5.6012,-5.6012,-5.6012,-5.6012,-5.6012,-5.6012,-5.6012,-5.6012,-5.6147,-5.6409,-5.7009,-5.7125,-5.6863,-5.8043,-5.8275,-5.7733,-5.8333,-5.8613,-5.8555,-5.7946,-5.8062,-5.8565,-5.8236,-5.8681,-5.9551,-6.0074,-6.046,-6.077,-5.0104,-5.0104,-5.0104,-5.0104,-5.0828,-5.1394,-5.1394,-5.1394,-5.1394,-5.1394,-5.1394,-5.1394,-5.1394,-5.1394,-5.1394,-5.1394,-5.1394,-5.1394,-5.1375,-4.9755,-4.8798,-4.8779,-4.8798,-4.9208,-5.0085,-5.0104,-5.0534,-5.1394,-5.1394,-5.1394,-5.1394,-5.1394,-5.1394,-5.1394,-5.1394,-5.1394,-5.1394,-5.1394,-5.1394,-5.1394,-5.1394,-5.1394,-5.1394,-5.1394,-5.1394,-5.1394,-5.1394,-5.1394,-5.1394,-5.1394,-5.1394,-5.1394,-5.1394,-5.1394,-5.1394,-5.1394,-5.1394,-5.1394,-5.1394,-5.1394,-5.1394,-5.1394,-5.1394,-5.1629,-5.2509,-5.2704,-5.2958,-5.3834,-5.401,-5.401,-5.401,-5.401,-5.401,-5.401,-5.401,-5.3994,-5.4003,-5.4005,-5.4312,-5.5122,-5.5214,-5.5506,-5.6223,-5.6233,-5.6194,-5.6194,-5.6071,-5.6012,-5.6012,-5.6012,-5.6012,-5.6012,-5.6012,-5.6012,-5.6012,-5.6012,-5.6429,-5.728,-5.7299,-5.7753,-5.8593,-5.8613,-5.8632,-5.8613,-5.8632,-5.8632,-5.8632,-5.8613,-5.8613,-5.8709,-5.9551,-5.9377,-5.8816,-6.0499,-6.0596,-6.0016,-5.0221,-5.0104,-5.028,-5.0906,-5.0709,-5.069,-5.1316,-5.1394,-5.1394,-5.1394,-5.1394,-5.1394,-5.1394,-5.1394,-5.1394,-5.1394,-5.1394,-5.0887,-4.9657,-4.8564,-4.7686,-4.7061,-4.7627,-4.8621,-5.0065,-5.0104,-5.0534,-5.1394,-5.1394,-5.1394,-5.1394,-5.1394,-5.1394,-5.1394,-5.1394,-5.1394,-5.1394,-5.1394,-5.1394,-5.1394,-5.1394,-5.1394,-5.1394,-5.1394,-5.1394,-5.1394,-5.1394,-5.1394,-5.1394,-5.1394,-5.1394,-5.1394,-5.1394,-5.1394,-5.1394,-5.1394,-5.1394,-5.1394,-5.1394,-5.1394,-5.1394,-5.1394,-5.1394,-5.1629,-5.2509,-5.2704,-5.3114,-5.4615,-5.4908,-5.4908,-5.4908,-5.4908,-5.4713,-5.4108,-5.401,-5.4205,-5.4836,-5.4919,-5.5221,-5.607,-5.6171,-5.6226,-5.6367,-5.6397,-5.6347,-5.6207,-5.6071,-5.6012,-5.6012,-5.6012,-5.6012,-5.6012,-5.6012,-5.6012,-5.6012,-5.6012,-5.6119,-5.639,-5.7637,-5.8023,-5.7753,-5.9532,-6.0054,-5.9532,-6.0112,-6.0344,-6.0306,-5.9745,-5.9841,-6.0325,-6.0016,-6.0093,-6.0402,-6.0925,-6.0944,-6.0789,-5.0709,-5.0612,-5.0789,-5.1316,-5.0965,-5.0789,-5.1316,-5.1394,-5.1394,-5.1394,-5.1394,-5.1394,-5.1394,-5.1394,-5.1394,-5.1394,-5.1394,-5.0653,-4.8915,-4.8662,-4.8055,-4.6866,-4.7627,-4.8545,-4.9558,-4.9928,-5.0534,-5.1394,-5.1394,-5.1394,-5.1394,-5.1394,-5.1394,-5.1394,-5.1394,-5.1394,-5.1394,-5.1394,-5.1394,-5.1394,-5.1394,-5.1394,-5.1394,-5.1394,-5.1394,-5.1394,-5.1394,-5.1394,-5.1394,-5.1394,-5.1394,-5.1394,-5.1394,-5.1394,-5.1394,-5.1394,-5.1394,-5.1394,-5.1394,-5.1394,-5.1472,-5.1824,-5.1668,-5.1726,-5.2936,-5.321,-5.3717,-5.5454,-5.5806,-5.5806,-5.5806,-5.5806,-5.563,-5.5103,-5.5025,-5.5201,-5.5747,-5.5812,-5.6012,-5.6543,-5.661,-5.6579,-5.6483,-5.6469,-5.64,-5.625,-5.6148,-5.6071,-5.6071,-5.6026,-5.6012,-5.6012,-5.6012,-5.6012,-5.6012,-5.6332,-5.6689,-5.7037,-5.8101,-5.8662,-5.8846,-6.0402,-6.0828,-6.0402,-6.0886,-6.1099,-6.106,-6.0576,-6.046,-6.0615,-6.0441,-6.048,-6.0654,-6.0983,-6.1099,-6.1099,-5.1277,-5.1277,-5.1316,-5.1394,-5.1336,-5.1316,-5.1394,-5.1394,-5.1394,-5.1394,-5.1394,-5.1394,-5.1394,-5.1394,-5.1394,-5.1394,-5.1336,-5.0614,-4.9013,-4.9597,-4.9304,-4.7762,-4.8486,-4.8915,-4.8915,-4.9694,-5.0534,-5.1394,-5.1394,-5.1394,-5.1394,-5.1394,-5.1394,-5.1394,-5.1394,-5.1394,-5.1394,-5.1394,-5.1394,-5.1394,-5.1394,-5.1394,-5.1394,-5.1394,-5.1394,-5.1394,-5.1394,-5.1394,-5.1394,-5.1394,-5.1394,-5.1394,-5.1394,-5.1394,-5.1394,-5.1394,-5.1394,-5.1394,-5.1394,-5.1453,-5.1707,-5.2509,-5.2156,-5.2078,-5.3737,-5.4127,-5.4596,-5.6255,-5.6606,-5.6606,-5.6606,-5.6606,-5.6606,-5.6606,-5.6606,-5.6606,-5.6606,-5.6606,-5.6608,-5.6598,-5.66,-5.6605,-5.6592,-5.6482,-5.6387,-5.6328,-5.6244,-5.6213,-5.6213,-5.6087,-5.601,-5.601,-5.602,-5.6051,-5.6128,-5.6893,-5.7695,-5.8488,-5.8642,-5.9513,-6.1002,-6.1079,-6.1099,-6.1099,-6.1099,-6.1099,-6.1099,-6.1099,-6.0673,-6.0074,-6.0809,-6.0654,-6.0093,-6.0828,-6.1099,-6.1099,-5.0377,-5.0377,-5.0592,-5.1277,-5.0848,-5.0612,-5.1297,-5.1394,-5.1394,-5.1394,-5.1394,-5.1394,-5.1394,-5.1394,-5.1394,-5.1394,-5.0789,-5.0221,-4.9831,-4.9364,-4.8915,-4.8564,-4.9364,-4.9811,-4.9811,-5.0007,-5.0534,-5.1394,-5.1394,-5.1394,-5.1394,-5.1394,-5.1394,-5.1394,-5.1394,-5.1394,-5.1394,-5.1394,-5.1394,-5.1394,-5.1394,-5.1394,-5.1394,-5.1394,-5.1394,-5.1394,-5.1394,-5.1394,-5.1394,-5.1394,-5.1394,-5.1394,-5.1394,-5.1394,-5.1394,-5.1394,-5.1394,-5.1394,-5.1394,-5.1902,-5.247,-5.2646,-5.3073,-5.3717,-5.4771,-5.5025,-5.5318,-5.6372,-5.6606,-5.6606,-5.6606,-5.6606,-5.6606,-5.6606,-5.6606,-5.6606,-5.6606,-5.6606,-5.6606,-5.6608,-5.6596,-5.6602,-5.6603,-5.6483,-5.6419,-5.6455,-5.6348,-5.6281,-5.6281,-5.6206,-5.6167,-5.6167,-5.604,-5.6332,-5.7009,-5.7202,-5.7396,-5.7598,-5.8971,-5.9803,-6.017,-6.0809,-6.1099,-6.1099,-6.1099,-6.1099,-6.1099,-6.1099,-6.1002,-6.0867,-6.1041,-6.0983,-6.0867,-6.1041,-6.1099,-6.1099,-5.0631,-5.0709,-5.0867,-5.1316,-5.1023,-5.0867,-5.1336,-5.1394,-5.1394,-5.1394,-5.1394,-5.1394,-5.1394,-5.1394,-5.1394,-5.1394,-5.0984,-5.0534,-5.0124,-5.0067,-4.9852,-4.9442,-5.0262,-5.0709,-5.0709,-5.0709,-5.0945,-5.1394,-5.1394,-5.1394,-5.1394,-5.1394,-5.1394,-5.1394,-5.1394,-5.1394,-5.1394,-5.1394,-5.1394,-5.1394,-5.1394,-5.1394,-5.1394,-5.1394,-5.1394,-5.1394,-5.1394,-5.1394,-5.1394,-5.1394,-5.1394,-5.1394,-5.1394,-5.1394,-5.1394,-5.1394,-5.1687,-5.2019,-5.2019,-5.2663,-5.3424,-5.3836,-5.4283,-5.4732,-5.5201,-5.53,-5.5552,-5.6411,-5.6606,-5.6606,-5.6606,-5.6606,-5.6606,-5.6606,-5.6606,-5.6606,-5.6606,-5.6606,-5.6606,-5.6606,-5.6591,-5.6596,-5.66,-5.6912,-5.6951,-5.6576,-5.7185,-5.7402,-5.6992,-5.7303,-5.7481,-5.7481,-5.7417,-5.7578,-5.7963,-5.8382,-5.8574,-5.8546,-5.9455,-6.0093,-6.0499,-6.0905,-6.1099,-6.1099,-6.1099,-6.1099,-6.1099,-6.1099,-6.1099,-6.1099,-6.1099,-6.1099,-6.1099,-6.1099,-6.1099,-6.1099,-5.1238,-5.1394,-5.1394,-5.1394,-5.1394,-5.1394,-5.1394,-5.1394,-5.1394,-5.1394,-5.1394,-5.1394,-5.1394,-5.1394,-5.1394,-5.1394,-5.1394,-5.1082,-5.0377,-5.1004,-5.1082,-5.0358,-5.1004,-5.1394,-5.1394,-5.1394,-5.1394,-5.1394,-5.1394,-5.1394,-5.1394,-5.1394,-5.1394,-5.1394,-5.1394,-5.1394,-5.1394,-5.1394,-5.1394,-5.1394,-5.1394,-5.1394,-5.1394,-5.1394,-5.1394,-5.1394,-5.1394,-5.1394,-5.1394,-5.1394,-5.1394,-5.1394,-5.1394,-5.1394,-5.1394,-5.1394,-5.2019,-5.2704,-5.2704,-5.3444,-5.44,-5.5123,-5.5415,-5.5513,-5.5513,-5.5513,-5.5728,-5.645,-5.6606,-5.6606,-5.6606,-5.6606,-5.6606,-5.6606,-5.6606,-5.6606,-5.6606,-5.6606,-5.6606,-5.6606,-5.6606,-5.6649,-5.6795,-5.733,-5.7492,-5.7067,-5.8139,-5.8552,-5.7986,-5.8562,-5.8913,-5.8913,-5.8901,-5.891,-5.8959,-5.9672,-6.0078,-6.0151,-6.0151,-6.0485,-6.1099,-6.1099,-6.1099,-6.1099,-6.1099,-6.1099,-6.1099,-6.1099,-6.1099,-6.1099,-6.1136,-6.1125,-6.1134,-6.1141,-6.1133,-6.1125,-5.1238,-5.1394,-5.1394,-5.1394,-5.1394,-5.1394,-5.1394,-5.1394,-5.1394,-5.1394,-5.1394,-5.1394,-5.1394,-5.1394,-5.1394,-5.1394,-5.1394,-5.1355,-5.1238,-5.1336,-5.1355,-5.1238,-5.1336,-5.1394,-5.1394,-5.1394,-5.1394,-5.1394,-5.1394,-5.1394,-5.1394,-5.1394,-5.1394,-5.1394,-5.1394,-5.1394,-5.1394,-5.1394,-5.1394,-5.1394,-5.1394,-5.1394,-5.1394,-5.1394,-5.1394,-5.1394,-5.1394,-5.1394,-5.1394,-5.1394,-5.1394,-5.1394,-5.1394,-5.1394,-5.1394,-5.1394,-5.2019,-5.2704,-5.2704,-5.3895,-5.5142,-5.5259,-5.5864,-5.6411,-5.6411,-5.6411,-5.6469,-5.6586,-5.6606,-5.6606,-5.6606,-5.6606,-5.6606,-5.6606,-5.6606,-5.6606,-5.6606,-5.6606,-5.6606,-5.6606,-5.6606,-5.6864,-5.7578,-5.7111,-5.7329,-5.8663,-5.8318,-5.8339,-5.8964,-5.8988,-5.898,-5.898,-5.8928,-5.9254,-5.9996,-6.0112,-6.0512,-6.1192,-6.1192,-6.1155,-6.1099,-6.1099,-6.1099,-6.1099,-6.1099,-6.1099,-6.1099,-6.1099,-6.1099,-6.1117,-6.124,-6.1274,-6.1269,-6.1334,-6.1324,-6.1274,-5.1238,-5.1394,-5.1394,-5.1394,-5.1394,-5.1394,-5.1394,-5.1394,-5.1394,-5.1394,-5.1394,-5.1394,-5.1394,-5.1394,-5.1394,-5.1394,-5.1394,-5.1394,-5.1394,-5.1394,-5.1394,-5.1394,-5.1394,-5.1394,-5.1394,-5.1394,-5.1394,-5.1394,-5.1394,-5.1394,-5.1394,-5.1394,-5.1394,-5.1394,-5.1394,-5.1394,-5.1394,-5.1394,-5.1394,-5.1394,-5.1394,-5.1394,-5.1394,-5.1394,-5.1394,-5.1394,-5.1394,-5.1394,-5.1394,-5.1394,-5.1394,-5.1492,-5.196,-5.2136,-5.2214,-5.2702,-5.3463,-5.4149,-5.4149,-5.5064,-5.602,-5.602,-5.6313,-5.6606,-5.6606,-5.6606,-5.6606,-5.6606,-5.6606,-5.6606,-5.6606,-5.6606,-5.6606,-5.6606,-5.6606,-5.6606,-5.6606,-5.6606,-5.6606,-5.6606,-5.6996,-5.7408,-5.7766,-5.8355,-5.8829,-5.9084,-5.9678,-5.9976,-5.988,-6.0273,-6.0504,-6.0502,-6.0471,-6.0627,-6.0981,-6.0981,-6.1116,-6.1393,-6.1393,-6.1342,-6.1272,-6.1272,-6.1272,-6.1272,-6.1272,-6.1272,-6.1265,-6.1237,-6.1232,-6.1265,-6.129,-6.1318,-6.1365,-6.1393,-6.1383,-6.1359]},{"header":{"parameterUnit":"m.s-1","parameterCategory":1,"la1":30.6,"la2":28.766,"lo1":-90.7593,"lo2":-88.6598,"dy":0.0162,"dx":0.0183,"nx":116,"ny":114,"refTime":"2023-02-27T06:00:00:Z","depth":0,"parameterNumber":3,"parameterNumberName":"V-component_of_WINDS"},"data":[0.0,0.0,0.0,0.0,0.0,0.0,0.0,0.0,0.0,0.0,0.0,0.0,0.0,0.0,0.0,0.0,0.0,0.0,0.0,0.0,0.0,0.0,0.0,0.0,0.0,0.0,0.0,0.0,0.0,0.0,0.0,0.0,0.0,0.0,0.0,0.0,0.0,0.0,0.0,0.0,0.0,0.0,0.0,0.0,0.0,0.0,0.0,0.0,0.0,0.0,0.0,0.0,0.0,0.0,0.0,0.0,0.0,0.0,0.0,0.0,0.0,0.0,0.0,0.0,0.0,0.0,0.0,0.0,0.0,0.0,0.0,0.0,0.0,0.0,0.0,0.0,0.0,0.0,0.0,0.0,0.0,0.0,0.0,0.0,0.0,0.0,0.0,0.0,0.0,0.0,0.0,0.0,0.0,0.0,0.0,0.0,0.0,0.0,0.0,0.0,0.0,0.0,0.0,0.0,0.0,0.0,0.0,0.0,0.0,0.0,0.0,0.0,0.0,0.0,0.0,0.0,0.0,0.0,0.0,0.0,0.0,0.0,0.0,0.0,0.0,0.0,0.0,0.0,0.0,0.0,0.0,0.0,0.0,0.0,0.0,0.0,0.0,0.0,0.0,0.0,0.0,0.0,0.0,0.0,0.0,0.0,0.0,0.0,0.0,0.0,0.0,0.0,0.0,0.0,0.0,0.0,0.0,0.0,0.0,0.0,0.0,0.0,0.0,0.0,0.0,0.0,0.0,0.0,0.0,0.0,0.0,0.0,0.0,0.0,0.0,0.0,0.0,0.0,0.0,0.0,0.0,0.0,0.0,0.0,0.0,0.0,0.0,0.0,0.0,0.0,0.0,0.0,0.0,0.0,0.0,0.0,0.0,0.0,0.0,0.0,0.0,0.0,0.0,0.0,0.0,0.0,0.0,0.0,0.0,0.0,0.0,0.0,0.0,0.0,0.0,0.0,0.0,0.0,0.0,0.0,0.0,0.0,0.0,0.0,0.0,0.0,0.0,0.0,0.0,0.0,0.0,0.0,0.0,0.0,0.0,0.0,0.0,0.0,0.0,0.0,0.0,0.0,0.0,0.0,0.0,0.0,0.0,0.0,0.0,0.0,0.0,0.0,0.0,0.0,0.0,0.0,0.0,0.0,0.0,0.0,0.0,0.0,0.0,0.0,0.0,0.0,0.0,0.0,0.0,0.0,0.0,0.0,0.0,0.0,0.0,0.0,0.0,0.0,0.0,0.0,0.0,0.0,0.0,0.0,0.0,0.0,0.0,0.0,0.0,0.0,0.0,0.0,0.0,0.0,0.0,0.0,0.0,0.0,0.0,0.0,0.0,0.0,0.0,0.0,0.0,0.0,0.0,0.0,0.0,0.0,0.0,0.0,0.0,0.0,0.0,0.0,0.0,0.0,0.0,0.0,0.0,0.0,0.0,0.0,0.0,0.0,0.0,0.0,0.0,0.0,0.0,0.0,0.0,0.0,0.0,0.0,0.0,0.0,0.0,0.0,0.0,0.0,0.0,0.0,0.0,0.0,0.0,0.0,0.0,0.0,0.0,0.0,0.0,0.0,0.0,0.0,0.0,0.0,0.0,0.0,0.0,0.0,0.0,0.0,0.0,0.0,0.0,0.0,0.0,0.0,0.0,0.0,0.0,0.0,0.0,0.0,0.0,0.0,0.0,0.0,0.0,0.0,0.0,0.0,0.0,0.0,0.0,0.0,0.0,0.0,0.0,0.0,0.0,0.0,0.0,0.0,0.0,0.0,0.0,0.0,0.0,0.0,0.0,0.0,0.0,0.0,0.0,0.0,0.0,0.0,0.0,0.0,0.0,0.0,0.0,0.0,0.0,0.0,0.0,0.0,0.0,0.0,0.0,0.0,0.0,0.0,0.0,0.0,0.0,0.0,0.0,0.0,0.0,0.0,0.0,0.0,0.0,0.0,0.0,0.0,0.0,0.0,0.0,0.0,0.0,0.0,0.0,0.0,0.0,0.0,0.0,0.0,0.0,0.0,0.0,0.0,0.0,0.0,0.0,0.0,0.0,0.0,0.0,0.0,0.0,0.0,0.0,0.0,0.0,0.0,0.0,0.0,0.0,0.0,0.0,0.0,0.0,0.0,0.0,0.0,0.0,0.0,0.0,0.0,0.0,0.0,0.0,0.0,0.0,0.0,0.0,0.0,0.0,0.0,0.0,0.0,0.0,0.0,0.0,0.0,0.0,0.0,0.0,0.0,0.0,0.0,0.0,0.0,0.0,0.0,0.0,0.0,0.0,0.0,0.0,0.0,0.0,0.0,0.0,0.0,0.0,0.0,0.0,0.0,0.0,0.0,0.0,0.0,0.0,0.0,0.0,0.0,0.0,0.0,0.0,0.0,0.0,0.0,0.0,0.0,0.0,0.0,0.0,0.0,0.0,0.0,0.0,0.0,0.0,0.0,0.0,0.0,0.0,0.0,0.0,0.0,0.0,0.0,0.0,0.0,0.0,0.0,0.0,0.0,0.0,0.0,0.0,0.0,0.0,0.0,0.0,0.0,0.0,0.0,0.0,0.0,0.0,0.0,0.0,0.0,0.0,0.0,0.0,0.0,0.0,0.0,0.0,0.0,0.0,0.0,0.0,0.0,0.0,0.0,0.0,0.0,0.0,0.0,0.0,0.0,0.0,0.0,0.0,0.0,0.0,0.0,0.0,0.0,0.0,0.0,0.0,0.0,0.0,0.0,0.0,0.0,0.0,0.0,0.0,0.0,0.0,0.0,0.0,0.0,0.0,0.0,0.0,0.0,0.0,0.0,0.0,0.0,0.0,0.0,0.0,0.0,0.0,0.0,0.0,0.0,0.0,0.0,0.0,0.0,0.0,0.0,0.0,0.0,0.0,0.0,0.0,0.0,0.0,0.0,0.0,0.0,0.0,0.0,0.0,0.0,0.0,0.0,0.0,0.0,0.0,0.0,0.0,0.0,0.0,0.0,0.0,0.0,0.0,0.0,0.0,0.0,0.0,0.0,0.0,0.0,0.0,0.0,0.0,0.0,0.0,0.0,0.0,0.0,0.0,0.0,0.0,0.0,0.0,0.0,0.0,0.0,0.0,0.0,0.0,0.0,0.0,0.0,0.0,0.0,0.0,0.0,0.0,0.0,0.0,0.0,0.0,0.0,0.0,0.0,0.0,0.0,0.0,0.0,0.0,0.0,0.0,0.0,0.0,0.0,0.0,0.0,0.0,0.0,0.0,0.0,0.0,0.0,0.0,0.0,0.0,0.0,0.0,0.0,0.0,0.0,0.0,0.0,0.0,0.0,0.0,0.0,0.0,0.0,0.0,0.0,0.0,0.0,0.0,0.0,0.0,0.0,0.0,0.0,0.0,0.0,0.0,0.0,0.0,0.0,0.0,0.0,0.0,0.0,0.0,0.0,0.0,0.0,0.0,0.0,0.0,0.0,0.0,0.0,0.0,0.0,0.0,0.0,0.0,0.0,0.0,0.0,0.0,0.0,0.0,0.0,0.0,0.0,0.0,0.0,0.0,0.0,0.0,0.0,0.0,0.0,0.0,0.0,0.0,0.0,0.0,0.0,0.0,0.0,0.0,0.0,0.0,0.0,0.0,0.0,0.0,0.0,0.0,0.0,0.0,0.0,0.0,0.0,0.0,0.0,0.0,0.0,0.0,0.0,0.0,0.0,0.0,0.0,0.0,0.0,0.0,0.0,0.0,0.0,0.0,0.0,0.0,0.0,0.0,0.0,0.0,0.0,0.0,0.0,0.0,0.0,0.0,0.0,0.0,0.0,0.0,0.0,0.0,0.0,0.0,0.0,0.0,0.0,0.0,0.0,0.0,0.0,0.0,0.0,0.0,0.0,0.0,0.0,0.0,0.0,0.0,0.0,0.0,0.0,0.0,0.0,0.0,0.0,0.0,0.0,0.0,0.0,0.0,0.0,0.0,0.0,0.0,0.0,0.0,0.0,0.0,0.0,0.0,0.0,0.0,0.0,0.0,0.0,0.0,0.0,0.0,0.0,0.0,0.0,0.0,0.0,0.0,0.0,0.0,0.0,0.0,0.0,0.0,0.0,0.0,0.0,0.0,0.0,0.0,0.0,0.0,0.0,0.0,0.0,0.0,0.0,0.0,0.0,0.0,0.0,0.0,0.0,0.0,0.0,0.0,0.0,0.0,0.0,0.0,0.0,0.0,0.0,0.0,0.0,0.0,0.0,0.0,0.0,0.0,0.0,0.0,0.0,0.0,0.0,0.0,0.0,0.0,0.0,0.0,0.0,0.0,0.0,0.0,0.0,0.0,0.0,0.0,0.0,0.0,0.0,0.0,0.0,0.0,0.0,0.0,0.0,0.0,0.0,0.0,0.0,0.0,0.0,0.0,0.0,0.0,0.0,0.0,0.0,0.0,0.0,0.0,0.0,0.0,0.0,0.0,0.0,0.0,0.0,0.0,0.0,0.0,0.0,0.0,0.0,0.0,0.0,0.0,0.0,0.0,0.0,0.0,0.0,0.0,0.0,0.0,0.0,0.0,0.0,0.0,0.0,0.0,0.0,0.0,0.0,0.0,0.0,0.0,0.0,0.0,0.0,0.0,0.0,0.0,0.0,0.0,0.0,0.0,0.0,0.0,0.0,0.0,0.0,0.0,0.0,0.0,0.0,0.0,0.0,0.0,0.0,0.0,0.0,0.0,0.0,0.0,0.0,0.0,0.0,0.0,0.0,0.0,0.0,0.0,0.0,0.0,0.0,0.0,0.0,0.0,0.0,0.0,0.0,0.0,0.0,0.0,0.0,0.0,0.0,0.0,0.0,0.0,0.0,0.0,0.0,0.0,0.0,0.0,0.0,0.0,0.0,0.0,0.0,0.0,0.0,0.0,0.0,0.0,0.0,0.0,0.0,0.0,0.0,0.0,0.0,0.0,0.0,0.0,0.0,0.0,0.0,0.0,0.0,0.0,0.0,0.0,0.0,0.0,0.0,0.0,0.0,0.0,0.0,0.0,0.0,0.0,0.0,0.0,0.0,0.0,0.0,0.0,0.0,0.0,0.0,0.0,0.0,0.0,0.0,0.0,0.0,0.0,0.0,0.0,0.0,0.0,0.0,0.0,0.0,0.0,0.0,0.0,0.0,0.0,0.0,0.0,0.0,0.0,0.0,0.0,0.0,0.0,0.0,0.0,0.0,0.0,0.0,0.0,0.0,0.0,0.0,0.0,0.0,0.0,0.0,0.0,0.0,0.0,0.0,0.0,0.0,0.0,0.0,0.0,0.0,0.0,0.0,0.0,0.0,0.0,0.0,0.0,0.0,0.0,0.0,0.0,0.0,0.0,0.0,0.0,0.0,0.0,0.0,0.0,0.0,0.0,0.0,0.0,0.0,0.0,0.0,0.0,0.0,0.0,0.0,0.0,0.0,0.0,0.0,0.0,0.0,0.0,0.0,0.0,0.0,0.0,0.0,0.0,0.0,0.0,0.0,0.0,0.0,0.0,0.0,0.0,0.0,0.0,0.0,0.0,0.0,0.0,0.0,0.0,0.0,0.0,0.0,0.0,0.0,0.0,0.0,0.0,0.0,0.0,0.0,0.0,0.0,0.0,0.0,0.0,0.0,0.0,0.0,0.0,0.0,0.0,0.0,0.0,0.0,0.0,0.0,0.0,0.0,0.0,0.0,0.0,0.0,0.0,0.0,0.0,0.0,0.0,0.0,0.0,0.0,0.0,0.0,0.0,0.0,0.0,0.0,0.0,0.0,0.0,0.0,0.0,0.0,0.0,0.0,0.0,0.0,0.0,0.0,0.0,0.0,0.0,0.0,0.0,0.0,0.0,0.0,0.0,0.0,0.0,0.0,0.0,0.0,0.0,0.0,0.0,0.0,0.0,0.0,0.0,0.0,0.0,0.0,0.0,0.0,0.0,0.0,0.0,0.0,0.0,0.0,0.0,0.0,0.0,0.0,0.0,0.0,0.0,0.0,0.0,0.0,0.0,0.0,0.0,0.0,0.0,0.0,0.0,0.0,0.0,0.0,0.0,0.0,0.0,0.0,0.0,0.0,0.0,0.0,0.0,0.0,0.0,0.0,0.0,0.0,0.0,0.0,0.0,0.0,0.0,0.0,0.0,0.0,-1.1958,0.0,0.0,0.0,0.0,0.0,0.0,0.0,0.0,0.0,0.0,0.0,0.0,0.0,0.0,0.0,0.0,0.0,0.0,0.0,0.0,0.0,0.0,0.0,0.0,0.0,0.0,0.0,0.0,0.0,0.0,0.0,0.0,0.0,0.0,0.0,0.0,0.0,0.0,0.0,0.0,0.0,0.0,0.0,0.0,0.0,0.0,0.0,0.0,0.0,0.0,0.0,0.0,0.0,0.0,0.0,0.0,0.0,0.0,0.0,0.0,0.0,0.0,0.0,0.0,0.0,0.0,0.0,0.0,0.0,0.0,0.0,0.0,0.0,0.0,0.0,0.0,0.0,0.0,0.0,0.0,0.0,0.0,0.0,0.0,0.0,0.0,0.0,0.0,0.0,0.0,0.0,0.0,0.0,0.0,0.0,0.0,0.0,0.0,0.0,0.0,0.0,0.0,0.0,0.0,0.0,0.0,0.0,0.0,0.0,0.0,0.0,0.0,0.0,0.0,0.0,0.0,-1.2089,0.0,0.0,0.0,0.0,0.0,0.0,0.0,0.0,0.0,0.0,0.0,0.0,0.0,0.0,0.0,0.0,0.0,0.0,0.0,0.0,0.0,0.0,0.0,0.0,0.0,0.0,0.0,0.0,0.0,0.0,0.0,0.0,0.0,0.0,0.0,0.0,0.0,0.0,0.0,0.0,0.0,0.0,0.0,0.0,0.0,0.0,0.0,0.0,0.0,0.0,0.0,0.0,0.0,0.0,0.0,0.0,0.0,0.0,0.0,0.0,0.0,0.0,0.0,0.0,0.0,0.0,0.0,0.0,0.0,0.0,0.0,0.0,0.0,0.0,0.0,0.0,0.0,0.0,0.0,0.0,0.0,0.0,0.0,0.0,0.0,0.0,0.0,0.0,0.0,0.0,0.0,0.0,0.0,0.0,0.0,0.0,0.0,0.0,0.0,0.0,0.0,0.0,0.0,0.0,0.0,0.0,0.0,0.0,-1.332,-1.3882,-1.3845,-1.4111,-1.4111,-1.3857,-1.3019,-1.2457,-1.2125,0.0,0.0,0.0,0.0,0.0,0.0,0.0,0.0,0.0,0.0,0.0,0.0,0.0,0.0,0.0,0.0,0.0,0.0,0.0,0.0,0.0,0.0,0.0,0.0,0.0,0.0,0.0,0.0,0.0,0.0,0.0,0.0,0.0,0.0,0.0,0.0,0.0,0.0,0.0,-0.138,-0.1455,-0.1485,-0.1465,0.0,0.0,0.0,0.0,0.0,0.0,0.0,0.0,0.0,0.0,0.0,0.0,0.0,0.0,0.0,0.0,0.0,0.0,0.0,0.0,0.0,0.0,0.0,0.0,0.0,0.0,0.0,0.0,0.0,0.0,0.0,0.0,0.0,0.0,0.0,0.0,0.0,0.0,0.0,0.0,0.0,0.0,0.0,0.0,-0.662,-0.6364,0.0,0.0,0.0,0.0,0.0,0.0,0.0,0.0,0.0,0.0,0.0,0.0,0.0,0.0,-1.1926,-1.2278,-1.2881,-1.3612,-1.3823,-1.3785,-1.3574,-1.3839,-1.3936,-1.3912,-1.3996,0.0,-1.2903,-1.2705,0.0,0.0,0.0,0.0,0.0,0.0,0.0,0.0,0.0,0.0,0.0,0.0,0.0,0.0,0.0,0.0,0.0,0.0,0.0,0.0,0.0,0.0,0.0,0.0,0.0,0.0,0.0,0.0,0.0,0.0,0.0,0.0,0.0,0.0,0.0,0.0,-0.1325,-0.1383,-0.144,-0.1517,-0.1548,-0.1576,-0.1549,-0.1523,-0.1499,-0.1472,0.0,0.0,0.0,0.0,0.0,0.0,0.0,0.0,0.0,0.0,0.0,0.0,0.0,0.0,0.0,0.0,0.0,0.0,0.0,0.0,0.0,0.0,0.0,0.0,0.0,0.0,0.0,0.0,0.0,0.0,0.0,0.0,0.0,0.0,0.0,0.0,0.0,0.0,0.0,-0.7014,-0.6936,-0.6552,-0.6766,-0.6892,0.0,0.0,0.0,0.0,0.0,0.0,0.0,0.0,0.0,-0.8265,-0.9944,-1.1139,-1.1766,-1.3121,-1.4056,-1.4588,-1.4883,-1.504,-1.5077,-1.5354,-1.539,-1.524,-1.5209,-1.4829,-1.4195,-1.3616,-1.3206,-1.2928,0.0,0.0,0.0,0.0,0.0,-1.2964,0.0,0.0,0.0,0.0,0.0,0.0,0.0,0.0,0.0,0.0,0.0,0.0,0.0,0.0,0.0,0.0,0.0,0.0,0.0,0.0,0.0,0.0,0.0,0.0,0.0,0.0,0.0,0.0,-0.1216,-0.1266,-0.1318,-0.1442,-0.1521,-0.1547,-0.1599,-0.1609,-0.1536,-0.1505,-0.1488,0.0,0.0,0.0,0.0,0.0,0.0,0.0,0.0,0.0,0.0,0.0,0.0,0.0,0.0,0.0,0.0,0.0,0.0,0.0,0.0,0.0,0.0,0.0,0.0,0.0,0.0,0.0,0.0,0.0,0.0,0.0,0.0,0.0,0.0,0.0,0.0,0.0,0.0,-0.7217,-0.7248,-0.6759,-0.7065,-0.7179,0.0,0.0,0.0,0.0,0.0,0.0,-0.7328,-0.8204,-0.8725,-0.886,-1.0807,-1.2064,-1.2475,-1.3999,-1.5009,-1.5523,-1.591,-1.6163,-1.629,-1.6495,-1.6441,-1.6169,-1.5976,-1.5626,-1.5143,-1.434,-1.3773,-1.3411,-1.3278,-1.3139,-1.3031,-1.3169,-1.3179,-1.3254,0.0,0.0,0.0,0.0,0.0,0.0,0.0,0.0,0.0,0.0,0.0,0.0,0.0,0.0,0.0,0.0,0.0,0.0,0.0,0.0,0.0,0.0,0.0,0.0,0.0,0.0,0.0,-0.1013,-0.0815,-0.0748,-0.0828,-0.1159,-0.134,-0.1307,-0.1634,-0.1778,-0.1686,-0.1572,-0.1556,-0.1598,0.0,0.0,0.0,0.0,0.0,0.0,0.0,0.0,0.0,0.0,0.0,0.0,0.0,0.0,0.0,0.0,0.0,0.0,0.0,0.0,0.0,0.0,0.0,0.0,0.0,0.0,0.0,0.0,0.0,0.0,0.0,0.0,0.0,0.0,0.0,0.0,0.0,0.0,0.0,-0.677,-0.7339,0.0,0.0,0.0,0.0,-0.7756,-0.778,-0.7848,-0.7938,-0.9919,-1.1241,-1.1746,-1.2992,-1.4437,-1.6012,-1.5327,-1.5524,-1.6622,-1.6652,-1.6525,-1.6278,-1.6296,-1.6157,-1.591,-1.5897,-1.5734,-1.5421,-1.4606,-1.4262,-1.4189,-1.3688,-1.364,-1.3815,-1.3586,-1.3495,-1.3501,0.0,0.0,0.0,0.0,0.0,0.0,0.0,0.0,0.0,0.0,0.0,0.0,0.0,0.0,0.0,0.0,0.0,0.0,0.0,0.0,0.0,0.0,0.0,0.0,0.0,0.0,-0.0976,-0.1058,-0.085,-0.0778,-0.0859,-0.0984,-0.1168,-0.1356,-0.1485,-0.1659,-0.1813,-0.1692,-0.1609,-0.1555,-0.1464,-0.1424,0.0,0.0,0.0,0.0,0.0,0.0,0.0,0.0,0.0,0.0,0.0,0.0,0.0,0.0,0.0,0.0,0.0,0.0,0.0,0.0,0.0,0.0,0.0,0.0,0.0,0.0,0.0,0.0,0.0,0.0,0.0,0.0,0.0,0.0,0.0,0.0,0.0,-0.7329,-0.7851,0.0,0.0,-0.7851,-0.797,-0.7821,-0.8916,-0.9595,-0.9556,-1.133,-1.2457,-1.2615,-1.392,-1.4845,-1.5468,-1.5906,-1.6295,-1.6706,-1.6869,-1.6899,-1.6809,-1.6978,-1.6911,-1.6652,-1.6483,-1.6254,-1.5958,-1.5324,-1.4871,-1.4552,-1.4364,-1.4232,-1.4171,-1.4256,-1.4286,-1.4316,0.0,0.0,0.0,0.0,0.0,0.0,0.0,0.0,0.0,0.0,0.0,0.0,0.0,0.0,0.0,0.0,0.0,0.0,0.0,0.0,0.0,0.0,0.0,0.0,0.0,-0.1015,-0.0888,-0.1011,-0.0677,-0.0536,-0.0607,-0.0786,-0.1027,-0.1277,-0.1474,-0.1664,-0.1896,-0.1814,-0.1712,-0.1598,-0.1568,-0.1538,-0.1505,0.0,0.0,0.0,0.0,0.0,0.0,0.0,0.0,0.0,0.0,0.0,0.0,0.0,0.0,0.0,0.0,0.0,0.0,0.0,0.0,0.0,0.0,0.0,0.0,0.0,0.0,0.0,0.0,0.0,0.0,0.0,0.0,0.0,0.0,0.0,-0.8099,-0.7855,-0.8347,-0.8554,-0.8153,-0.8347,-0.864,-0.8885,-0.969,-1.0295,-1.0671,-1.2169,-1.3035,-1.3107,-1.4788,-1.5773,-1.5852,-1.6612,-1.6966,-1.6966,-1.7141,-1.7177,-1.7098,-1.7267,-1.7159,-1.6821,-1.6646,-1.6459,-1.6254,-1.5903,-1.5614,-1.5354,-1.4992,-1.4787,-1.4714,-1.4811,-1.4847,-1.4871,0.0,0.0,0.0,0.0,0.0,0.0,0.0,0.0,0.0,0.0,0.0,0.0,0.0,0.0,0.0,0.0,0.0,0.0,0.0,0.0,0.0,0.0,0.0,0.0,-0.1394,-0.0974,-0.0745,-0.0801,-0.0272,0.0,0.0,-0.0628,-0.0929,-0.1003,-0.1619,-0.1872,-0.1932,0.0,0.0,0.0,0.0,0.0,-0.1701,0.0,0.0,0.0,0.0,0.0,0.0,0.0,0.0,0.0,0.0,0.0,0.0,0.0,0.0,0.0,0.0,0.0,0.0,0.0,0.0,0.0,0.0,0.0,0.0,0.0,0.0,0.0,0.0,0.0,0.0,0.0,0.0,0.0,-0.7621,-0.8126,-0.8445,-0.8368,-0.8866,-0.9105,-0.8754,-0.8866,-0.9513,-1.0952,-0.9957,-0.9916,-1.1273,-1.2483,-1.3203,-1.3523,-1.5872,-1.7225,-1.7479,-1.7485,-1.7485,-1.7485,-1.7485,-1.7346,-1.7105,-1.7105,-1.6827,-1.6344,-1.6338,-1.6326,-1.6308,-1.6296,-1.6453,-1.6598,-1.5565,-1.5312,-1.5505,-1.524,-1.5143,-1.5131,0.0,0.0,0.0,0.0,0.0,0.0,0.0,0.0,0.0,0.0,0.0,0.0,0.0,0.0,0.0,0.0,0.0,0.0,0.0,0.0,0.0,0.0,0.0,0.0,-0.1519,-0.1241,-0.109,-0.114,-0.0559,-0.0284,-0.0286,0.0,0.0,0.0,0.0,0.0,0.0,0.0,0.0,0.0,0.0,0.0,-0.1705,0.0,0.0,0.0,0.0,0.0,0.0,0.0,0.0,0.0,0.0,0.0,0.0,0.0,0.0,0.0,0.0,0.0,0.0,0.0,0.0,0.0,0.0,0.0,0.0,0.0,0.0,0.0,0.0,0.0,0.0,0.0,0.0,-0.8085,-0.8085,-0.8506,-0.8838,-0.8958,-0.9249,-0.9364,-0.9118,-0.9269,-0.9511,-0.9838,-1.0571,-1.1608,-1.2958,-1.4197,-1.5344,-1.6359,-1.702,-1.7412,-1.7485,-1.7485,-1.7485,-1.7485,-1.7485,-1.7443,-1.7376,-1.7376,-1.7298,-1.7153,-1.696,-1.6875,-1.6857,-1.6664,-1.6628,-1.667,-1.638,-1.6308,-1.6338,-1.606,-1.5837,-1.5674,0.0,0.0,0.0,0.0,0.0,0.0,0.0,0.0,0.0,0.0,0.0,0.0,0.0,0.0,0.0,0.0,0.0,0.0,0.0,0.0,0.0,0.0,0.0,-0.1498,-0.1657,-0.1355,-0.1296,0.0,0.0,0.0,0.0,0.0,0.0,0.0,0.0,0.0,0.0,0.0,0.0,0.0,0.0,0.0,-0.1765,-0.1731,-0.1705,-0.1657,-0.1596,-0.1581,-0.1585,-0.155,0.0,0.0,0.0,0.0,0.0,0.0,0.0,0.0,0.0,0.0,0.0,0.0,0.0,0.0,0.0,0.0,0.0,0.0,0.0,0.0,0.0,0.0,0.0,0.0,-0.8296,-0.8615,-0.8804,-0.9001,-0.9201,-0.9408,-0.9646,-0.9747,-0.9695,-0.9727,-0.9963,-1.0534,-1.1298,-1.2082,-1.2942,-1.4127,-1.5154,-1.5871,-1.6408,-1.6944,-1.7479,-1.7485,-1.7485,-1.7485,-1.7485,-1.7485,-1.7485,-1.7485,-1.7424,0.0,-1.7159,-1.7092,-1.708,-1.693,-1.693,0.0,0.0,0.0,0.0,0.0,-1.6181,-1.6036,0.0,0.0,0.0,0.0,0.0,0.0,0.0,0.0,0.0,0.0,0.0,0.0,0.0,0.0,0.0,0.0,0.0,0.0,0.0,0.0,0.0,0.0,-0.1433,-0.1584,0.0,0.0,0.0,0.0,0.0,0.0,0.0,0.0,0.0,0.0,0.0,0.0,0.0,0.0,0.0,0.0,0.0,0.0,-0.1919,-0.1804,-0.1776,-0.1792,-0.1731,-0.1785,-0.1845,-0.1833,0.0,0.0,0.0,0.0,0.0,0.0,0.0,0.0,0.0,0.0,0.0,0.0,0.0,0.0,0.0,0.0,0.0,0.0,0.0,0.0,0.0,0.0,0.0,0.0,-0.8804,-0.9164,-0.9598,-0.9557,-0.9581,-0.9842,-0.993,-1.0131,-1.0266,-1.0154,-1.0562,-1.1894,-1.1668,-1.1728,-1.2184,0.0,0.0,0.0,0.0,-1.6349,-1.7479,-1.7485,-1.7485,-1.7485,-1.7485,-1.7485,-1.7485,-1.7485,-1.7358,-1.7135,-1.7135,-1.7135,-1.7135,-1.7135,-1.7274,-1.7436,-1.6972,-1.6754,-1.667,-1.6416,-1.629,0.0,0.0,0.0,0.0,0.0,0.0,0.0,0.0,0.0,0.0,0.0,0.0,0.0,0.0,0.0,0.0,0.0,0.0,0.0,0.0,0.0,0.0,0.0,0.0,0.0,0.0,0.0,0.0,0.0,0.0,0.0,0.0,0.0,0.0,0.0,0.0,0.0,0.0,0.0,0.0,0.0,0.0,0.0,-0.1863,-0.1851,-0.1826,-0.1823,-0.1763,-0.2479,-0.3342,-0.331,-0.4169,-0.5297,-0.586,0.0,0.0,0.0,0.0,0.0,0.0,0.0,0.0,0.0,0.0,0.0,0.0,0.0,0.0,0.0,0.0,0.0,0.0,0.0,0.0,-0.8791,-0.9205,-0.9595,-0.9982,-1.0049,-1.0127,-1.0185,-1.0219,-1.0246,-1.0276,-1.0253,-1.0373,-1.0654,-1.0482,-1.1241,-1.3407,-1.3653,0.0,-1.6703,-1.7003,-1.7244,-1.7485,-1.7485,-1.7485,-1.7485,0.0,0.0,-1.7485,-1.7485,-1.7455,-1.7406,-1.7406,-1.7406,-1.7406,-1.7406,-1.7436,-1.7473,-1.737,-1.7074,-1.6694,-1.664,-1.6344,-1.5958,0.0,0.0,0.0,0.0,0.0,0.0,0.0,0.0,0.0,0.0,0.0,0.0,0.0,0.0,0.0,0.0,0.0,0.0,0.0,0.0,0.0,0.0,0.0,0.0,0.0,0.0,0.0,0.0,0.0,0.0,0.0,0.0,0.0,0.0,0.0,0.0,0.0,0.0,0.0,0.0,0.0,0.0,-0.2016,-0.1969,-0.2367,-0.3005,-0.2899,-0.376,-0.4906,-0.4805,-0.5562,-0.6624,-0.6885,-0.7188,-0.7497,0.0,0.0,0.0,0.0,0.0,0.0,0.0,0.0,0.0,0.0,0.0,0.0,0.0,0.0,-0.8089,0.0,0.0,-0.8967,-0.936,-0.9747,-1.0022,-1.0243,-1.0405,-1.0473,-1.0395,-1.0385,-1.0415,-1.0493,-1.0432,-1.0419,-1.0493,-1.1402,-1.2291,-1.3004,-1.4072,-1.5213,-1.6526,-1.6526,-1.6885,-1.7479,-1.7485,-1.7485,-1.7485,-1.7485,-1.7485,-1.7485,-1.7485,-1.7485,-1.7485,-1.7485,-1.7485,-1.7485,-1.7485,-1.7485,-1.7473,-1.734,-1.7129,-1.6881,-1.6748,-1.6441,-1.6066,0.0,0.0,0.0,0.0,0.0,0.0,0.0,0.0,0.0,0.0,0.0,0.0,0.0,0.0,0.0,0.0,0.0,0.0,0.0,0.0,0.0,0.0,0.0,0.0,0.0,0.0,0.0,0.0,0.0,0.0,0.0,0.0,0.0,0.0,0.0,0.0,0.0,0.0,0.0,0.0,0.0,0.0,-0.2587,-0.281,-0.3276,-0.3791,-0.3894,-0.479,-0.5905,-0.6068,-0.6847,-0.7748,-0.7572,-0.8027,-0.852,-0.8041,-0.7946,0.0,0.0,0.0,0.0,0.0,0.0,0.0,0.0,0.0,-0.7811,-0.7957,-0.8252,-0.8587,-0.892,-0.9171,-0.9496,-1.0012,-1.0222,-1.0371,-1.0517,-1.0643,-1.0673,-1.0551,-1.0534,-1.0585,-1.0707,-1.0609,-1.0716,-1.1104,-1.2657,-1.342,-1.3022,-1.4615,-1.5715,-1.6055,-1.6061,-1.6541,-1.7557,-1.7557,-1.7533,-1.7485,-1.7485,-1.7485,-1.7485,-1.7485,-1.7485,-1.7485,-1.7485,-1.7485,-1.7485,-1.7485,-1.7455,-1.7394,-1.7231,-1.7074,-1.6911,-1.67,-1.6441,-1.6175,0.0,0.0,0.0,0.0,0.0,0.0,0.0,0.0,0.0,0.0,0.0,0.0,0.0,0.0,0.0,0.0,0.0,0.0,0.0,0.0,0.0,0.0,0.0,0.0,0.0,0.0,0.0,0.0,0.0,0.0,0.0,0.0,0.0,0.0,0.0,0.0,0.0,0.0,0.0,0.0,0.0,0.0,-0.416,-0.5436,-0.4401,-0.2435,-0.3492,-0.4476,-0.5584,-0.6805,-0.8002,-0.8997,-0.91,-0.9144,-0.9019,-0.8439,0.0,-0.7736,-0.7223,-0.7109,-0.724,-0.7742,-0.7743,-0.7784,0.0,0.0,-0.8428,-0.8577,-0.8954,-0.9232,-0.9204,-0.9578,-1.0015,-1.0222,-1.0375,-1.0521,-1.0673,-1.0711,-1.0714,-1.0697,-1.0694,-1.07,-1.0717,-1.0704,-1.1226,-1.2487,-1.2462,-1.3385,-1.5654,-1.5647,-1.6207,-1.7577,-1.7643,-1.7709,-1.7829,-1.7829,-1.7714,-1.7485,-1.7485,-1.7485,-1.7485,-1.7485,-1.7485,-1.7485,-1.7485,-1.7485,-1.7485,-1.7485,-1.7346,-1.7159,-1.7358,-1.7002,-1.6368,-1.6338,-1.6163,-1.5928,0.0,0.0,0.0,0.0,0.0,0.0,0.0,0.0,0.0,0.0,0.0,0.0,0.0,0.0,0.0,0.0,0.0,0.0,0.0,0.0,0.0,0.0,0.0,0.0,0.0,0.0,0.0,0.0,0.0,0.0,0.0,0.0,0.0,0.0,0.0,0.0,0.0,0.0,0.0,0.0,0.0,0.0,-0.573,-0.6043,-0.5271,-0.4254,-0.5504,-0.6558,0.0,0.0,-0.8501,-0.8937,-0.9231,-0.9086,-0.8794,-0.8286,-0.8045,0.0,-0.7397,-0.74,0.0,0.0,-0.795,-0.8258,-0.8757,-0.8903,-0.894,-0.9184,-0.952,-0.9778,-0.9805,-1.0083,-1.0358,0.0,-1.0585,-1.0646,-1.0711,-1.0643,-1.0585,-1.0585,-1.0514,-1.0531,-1.0704,-1.1442,-1.2161,-1.275,-1.3187,-1.4273,-1.6348,-1.6032,-1.6556,-1.8106,-1.7956,-1.7871,-1.7871,-1.7726,-1.7666,-1.7708,-1.7551,-1.7563,-1.7702,-1.7551,-1.7485,-1.7485,-1.7485,-1.7485,-1.7485,-1.7485,-1.7418,-1.7316,-1.7267,-1.705,-1.6754,-1.6754,-1.6386,-1.591,0.0,0.0,0.0,0.0,0.0,0.0,0.0,0.0,0.0,0.0,0.0,0.0,0.0,0.0,0.0,0.0,0.0,0.0,0.0,0.0,0.0,0.0,0.0,0.0,0.0,0.0,0.0,0.0,0.0,0.0,0.0,0.0,0.0,0.0,0.0,0.0,0.0,0.0,0.0,0.0,0.0,0.0,-0.7102,-0.7059,-0.6817,-0.6517,-0.7062,-0.7576,0.0,0.0,-0.8404,-0.8455,-0.875,-0.8754,-0.856,-0.8059,-0.784,-0.7692,-0.7499,0.0,0.0,-0.7892,-0.8258,-0.871,-0.9093,-0.9262,-0.9425,-0.973,-0.9995,-1.0192,-1.0266,-1.0429,0.0,-1.0646,-1.0694,-1.0721,-1.0721,-1.0588,-1.049,-1.049,-1.0331,-1.0317,-1.0575,-1.1545,-1.2481,-1.3261,-1.3916,-1.4914,-1.6459,-1.6513,-1.7112,-1.839,-1.8203,-1.8094,-1.8094,-1.7907,-1.7871,-1.7986,-1.7714,-1.769,-1.7865,-1.7605,-1.7485,-1.7485,-1.7485,-1.7485,-1.7485,-1.7485,-1.7443,-1.7364,-1.7243,-1.7111,-1.6996,-1.7062,-1.6628,-1.6024,0.0,0.0,0.0,0.0,0.0,0.0,0.0,0.0,0.0,0.0,0.0,0.0,0.0,0.0,0.0,0.0,0.0,0.0,0.0,0.0,0.0,0.0,0.0,0.0,0.0,0.0,0.0,0.0,0.0,0.0,0.0,0.0,0.0,0.0,0.0,0.0,0.0,0.0,0.0,0.0,0.0,0.0,-0.8247,-0.932,-0.9297,-0.8611,-0.7141,0.0,0.0,0.0,-0.7634,-0.7685,-0.7931,-0.8265,0.0,-0.795,-0.7462,0.0,0.0,0.0,-0.795,-0.8533,-0.8801,-0.9023,-0.9663,-0.9798,-0.9886,-1.0198,-1.0378,-1.0436,-1.0304,-1.0517,-1.0666,-1.0521,-1.0622,-1.0721,-1.0721,-1.0588,-1.049,-1.049,-1.0232,-1.0117,0.0,-1.0483,-1.1717,-1.4409,-1.4339,-1.4778,-1.6342,-1.7343,-1.8118,-1.8656,-1.8668,-1.8662,-1.8662,-1.865,-1.8523,-1.8275,-1.7998,-1.7865,-1.7865,-1.7605,-1.7485,-1.7485,-1.7485,-1.7485,-1.7485,-1.7485,-1.7334,-1.7129,-1.7376,-1.7159,-1.6742,-1.6996,-1.6754,-1.626,0.0,0.0,0.0,0.0,0.0,0.0,0.0,0.0,0.0,0.0,0.0,0.0,0.0,0.0,0.0,0.0,0.0,0.0,0.0,0.0,0.0,0.0,0.0,0.0,0.0,0.0,0.0,0.0,0.0,0.0,0.0,0.0,0.0,0.0,0.0,0.0,0.0,0.0,0.0,0.0,0.0,0.0,-0.9564,-0.9284,-0.8927,-0.8383,0.0,0.0,0.0,0.0,0.0,0.0,-0.7763,0.0,0.0,-0.7425,0.0,0.0,0.0,0.0,-0.8655,-0.9055,-0.934,-0.9656,-1.0154,-1.0266,-1.0297,-1.0399,-1.0222,-1.0032,-0.9985,-0.9897,-0.991,-1.0158,-1.0327,-1.0463,-1.0555,-1.0443,-1.0314,-1.0209,-0.9774,0.0,0.0,0.0,0.0,-1.4572,-1.4518,-1.5465,-1.8076,-1.7542,-1.7747,-1.8933,-1.8776,-1.8686,-1.8686,-1.8511,-1.8469,-1.8553,-1.8281,-1.8052,-1.7865,-1.7605,-1.7485,-1.7485,-1.7485,-1.7485,-1.7485,-1.7485,-1.743,-1.7358,-1.7449,-1.7376,-1.7207,-1.7123,-1.6869,-1.6531,0.0,0.0,0.0,0.0,0.0,0.0,0.0,0.0,0.0,0.0,0.0,0.0,0.0,0.0,0.0,0.0,0.0,0.0,0.0,0.0,0.0,0.0,0.0,0.0,0.0,0.0,0.0,0.0,0.0,0.0,0.0,0.0,0.0,0.0,0.0,0.0,0.0,0.0,0.0,0.0,0.0,0.0,-0.9486,-0.8798,-0.8258,0.0,0.0,0.0,0.0,0.0,0.0,0.0,0.0,0.0,0.0,0.0,0.0,0.0,0.0,-0.8604,-0.9167,-0.9462,-0.9764,-1.0063,-1.0351,-1.0415,-1.0385,-1.0273,-0.9981,-0.971,-0.9602,-0.9429,-0.9395,-0.9683,-0.9859,-1.0046,-1.03,-1.0164,-1.0,-0.9933,-0.9529,0.0,0.0,0.0,0.0,-1.434,-1.4875,-1.5966,-1.8058,-1.7696,-1.7967,-1.9066,-1.8915,-1.8825,-1.8825,-1.8656,-1.8607,-1.868,-1.842,-1.8143,-1.7865,-1.7605,-1.7485,-1.7485,-1.7485,-1.7485,-1.7485,-1.7485,-1.7485,-1.7485,-1.7485,-1.7485,-1.7443,-1.708,-1.6845,-1.6664,0.0,0.0,0.0,0.0,0.0,0.0,0.0,0.0,0.0,0.0,0.0,0.0,0.0,0.0,0.0,0.0,0.0,0.0,0.0,0.0,0.0,0.0,0.0,0.0,0.0,0.0,0.0,0.0,0.0,0.0,0.0,0.0,0.0,0.0,0.0,0.0,0.0,0.0,0.0,0.0,0.0,0.0,-0.8289,-0.7919,0.0,0.0,0.0,0.0,0.0,0.0,0.0,0.0,0.0,0.0,0.0,0.0,0.0,-0.8007,-0.8587,-0.9079,-0.9496,-0.9785,-1.0076,-1.029,-1.0283,-1.028,-1.0188,-0.9866,-0.9666,-0.9462,0.0,0.0,-0.9166,-0.9204,-0.9347,-0.9547,-0.9926,-0.9754,-0.9674,0.0,0.0,0.0,0.0,0.0,0.0,-1.4019,0.0,-1.6291,-1.6555,-1.7923,-1.8819,-1.9066,-1.9078,-1.9072,-1.9078,-1.9078,-1.8951,-1.8704,-1.8438,-1.8167,-1.7883,-1.7624,-1.7497,-1.7485,-1.7485,-1.7485,-1.7485,-1.7485,-1.7485,-1.7485,-1.7485,-1.7485,-1.7418,-1.6911,-1.6718,-1.6682,0.0,0.0,0.0,0.0,0.0,0.0,0.0,0.0,0.0,0.0,0.0,0.0,0.0,0.0,0.0,0.0,0.0,0.0,0.0,0.0,0.0,0.0,0.0,0.0,0.0,0.0,0.0,0.0,0.0,0.0,0.0,0.0,0.0,0.0,0.0,0.0,0.0,0.0,0.0,0.0,0.0,0.0,-0.8275,0.0,0.0,0.0,0.0,0.0,0.0,0.0,0.0,0.0,0.0,0.0,-0.78,0.0,0.0,-0.8924,-0.9137,-0.9622,-1.0097,-1.0273,-1.0382,-1.0412,-1.0304,-1.028,-1.0131,-0.9602,-0.9106,-0.8747,0.0,0.0,0.0,-0.9118,-0.9378,0.0,-0.994,-0.9827,0.0,0.0,0.0,-0.9422,-1.1022,-1.1849,0.0,0.0,-1.5809,-1.693,-1.833,-1.8806,-1.9006,-1.9072,-1.9078,-1.895,-1.8699,-1.8699,-1.867,-1.8599,-1.859,-1.8444,-1.8179,-1.7901,-1.7666,-1.7485,-1.7485,-1.7485,-1.7485,-1.7485,-1.7485,-1.7485,-1.7485,-1.7485,-1.7443,-1.7117,-1.699,-1.6954,0.0,0.0,0.0,0.0,0.0,0.0,0.0,0.0,0.0,0.0,0.0,0.0,0.0,0.0,0.0,0.0,0.0,0.0,0.0,0.0,0.0,0.0,0.0,0.0,0.0,0.0,0.0,0.0,0.0,0.0,0.0,0.0,0.0,0.0,0.0,0.0,0.0,0.0,0.0,0.0,0.0,0.0,0.0,0.0,0.0,0.0,0.0,0.0,0.0,0.0,0.0,-0.7597,-0.7797,-0.8031,-0.8303,-0.8655,0.0,-0.9313,-0.9598,-1.0066,-1.0477,-1.0487,-1.0541,-1.0487,-1.008,-0.9985,-0.9758,-0.8957,-0.8577,0.0,0.0,0.0,0.0,0.0,0.0,0.0,-0.9625,-0.9529,-0.9417,0.0,-0.9497,0.0,-1.1582,-1.2892,-1.4312,0.0,-1.6816,-1.7622,-1.8625,-1.8948,-1.9014,-1.8892,-1.8886,-1.8693,-1.8366,-1.8507,-1.8571,-1.8571,-1.8686,-1.8547,-1.8281,-1.8004,-1.7732,-1.7485,0.0,-1.7485,-1.7485,-1.7485,-1.7485,-1.7485,-1.7485,-1.7485,-1.7449,-1.7189,-1.7092,-1.705,0.0,0.0,0.0,0.0,0.0,0.0,0.0,0.0,0.0,0.0,0.0,0.0,0.0,0.0,0.0,0.0,0.0,0.0,0.0,0.0,0.0,0.0,0.0,0.0,0.0,0.0,0.0,0.0,0.0,0.0,0.0,0.0,0.0,0.0,0.0,0.0,0.0,0.0,0.0,0.0,0.0,0.0,0.0,0.0,0.0,0.0,0.0,0.0,0.0,0.0,-0.7797,-0.8001,-0.8411,-0.8598,-0.8771,-0.9337,-0.9513,-0.9622,-0.999,-1.0466,-1.0741,-1.0592,-1.0609,-1.0473,-0.9744,-0.9534,-0.9208,-0.8164,0.0,0.0,-0.7834,0.0,-0.7991,-0.8438,0.0,-0.8763,-0.9252,-0.9211,-0.9152,-0.9201,-1.0131,-1.1269,-1.2526,-1.3973,-1.5443,-1.7058,-1.7777,-1.8155,-1.8155,-1.8691,-1.8822,-1.8507,-1.8507,-1.8308,-1.791,-1.8308,-1.8507,-1.8501,-1.8623,-1.8547,-1.8281,-1.8004,-1.7732,-1.7485,0.0,0.0,-1.7485,-1.7485,-1.7485,-1.7485,-1.7485,-1.7485,-1.7449,-1.7189,-1.7117,-1.7105,0.0,0.0,0.0,0.0,0.0,0.0,0.0,0.0,0.0,0.0,-0.7933,-0.7729,0.0,0.0,0.0,0.0,0.0,0.0,0.0,0.0,0.0,0.0,0.0,0.0,0.0,0.0,0.0,0.0,0.0,0.0,0.0,0.0,0.0,0.0,0.0,0.0,0.0,0.0,0.0,0.0,0.0,0.0,0.0,0.0,0.0,0.0,0.0,0.0,0.0,0.0,-0.8333,-0.8591,-0.8794,-0.9195,-0.9659,-1.0019,-1.0209,-1.0371,-1.0634,-1.0934,-1.105,-1.0904,-1.0612,-1.0192,-0.9564,-0.9133,0.0,0.0,0.0,-0.7838,-0.7668,-0.7834,0.0,-0.8598,0.0,0.0,0.0,0.0,-0.9535,0.0,0.0,0.0,0.0,0.0,0.0,0.0,0.0,0.0,-1.8035,-1.8139,-1.8168,-1.8103,-1.7852,-1.7664,-1.7599,-1.791,-1.8103,-1.8098,-1.8491,-1.8547,-1.8281,-1.8004,-1.7732,-1.7485,0.0,0.0,-1.7485,-1.7485,-1.7485,-1.7485,-1.7485,-1.7485,-1.7449,-1.7189,-1.7231,-1.7376,0.0,0.0,0.0,0.0,0.0,0.0,0.0,-0.816,-0.8214,-0.836,-0.8252,-0.8106,-0.7967,-0.7875,0.0,0.0,0.0,0.0,0.0,0.0,0.0,0.0,0.0,0.0,0.0,0.0,0.0,0.0,0.0,0.0,0.0,0.0,0.0,0.0,0.0,0.0,0.0,0.0,0.0,0.0,0.0,0.0,0.0,0.0,0.0,0.0,0.0,0.0,0.0,0.0,-0.8581,-0.8896,-0.9276,-0.9589,-0.9967,-1.0493,-1.0619,-1.0677,-1.0978,-1.1111,-1.1111,-1.0887,-1.0555,-1.0063,-0.9222,0.0,0.0,0.0,0.0,-0.7743,-0.7522,0.0,0.0,0.0,0.0,0.0,0.0,0.0,0.0,0.0,0.0,0.0,0.0,0.0,0.0,0.0,0.0,0.0,-1.7653,-1.7717,-1.7717,-1.7717,-1.7394,-1.7265,-1.7265,-1.7588,-1.7717,-1.7717,-1.8378,-1.85,-1.8232,-1.8292,-1.807,-1.7684,-1.7684,0.0,-1.7485,-1.7485,-1.7485,-1.7485,-1.7485,-1.7485,-1.7467,-1.734,-1.7376,-1.7461,0.0,0.0,0.0,0.0,0.0,0.0,0.0,-0.8323,-0.8333,-0.8509,-0.8503,-0.8452,-0.8374,-0.8228,-0.8073,0.0,0.0,0.0,0.0,0.0,0.0,0.0,0.0,0.0,0.0,0.0,0.0,0.0,0.0,0.0,0.0,0.0,0.0,0.0,0.0,0.0,0.0,0.0,0.0,0.0,0.0,0.0,0.0,0.0,0.0,0.0,0.0,0.0,0.0,0.0,-0.8618,-0.8933,-0.9466,-0.9765,-1.0085,-1.059,-1.0789,-1.0833,-1.1131,-1.1212,-1.1141,-1.0843,-1.0473,-0.9924,-0.8937,-0.8516,0.0,0.0,-0.7472,-0.7645,-0.746,0.0,0.0,0.0,0.0,0.0,0.0,0.0,0.0,0.0,0.0,0.0,0.0,0.0,0.0,0.0,0.0,0.0,-1.7335,-1.74,-1.74,-1.74,-1.7136,-1.7001,-1.7001,-1.7335,-1.747,-1.7535,-1.8192,-1.8371,-1.8228,-1.8494,-1.8366,-1.7962,-1.7901,0.0,0.0,-1.7503,-1.7485,-1.7485,-1.7485,-1.7485,-1.7485,-1.7485,-1.7485,-1.7485,0.0,0.0,0.0,0.0,0.0,0.0,0.0,-0.8323,-0.837,-0.8652,-0.8567,-0.853,-0.8655,-0.8533,-0.8391,0.0,0.0,0.0,0.0,0.0,0.0,0.0,0.0,0.0,0.0,0.0,0.0,0.0,0.0,0.0,0.0,0.0,0.0,0.0,0.0,0.0,0.0,0.0,0.0,0.0,0.0,0.0,0.0,0.0,0.0,0.0,0.0,0.0,0.0,0.0,0.0,-0.8581,-0.8913,-0.9434,-1.0027,-1.0283,0.0,0.0,-1.129,-1.1369,-1.1301,-1.1002,-1.0392,-0.9659,-0.8886,0.0,0.0,0.0,-0.7429,-0.745,-0.7422,-0.7624,-0.7882,0.0,0.0,0.0,0.0,0.0,0.0,0.0,0.0,0.0,0.0,0.0,0.0,0.0,0.0,0.0,0.0,-1.7071,-1.7071,-1.7071,-1.7007,-1.7001,-1.7001,-1.7335,-1.747,-1.7529,-1.8001,-1.8189,-1.8217,-1.8309,-1.8306,-1.8239,0.0,0.0,0.0,-1.7581,-1.7485,-1.7485,-1.7485,-1.7485,-1.7485,-1.7485,-1.7485,-1.7485,0.0,0.0,0.0,0.0,0.0,0.0,-0.836,-0.8397,-0.8506,-0.8808,-0.8794,-0.8747,-0.8713,-0.8737,-0.8659,0.0,0.0,0.0,0.0,0.0,0.0,0.0,0.0,0.0,0.0,0.0,0.0,0.0,0.0,0.0,0.0,0.0,0.0,0.0,0.0,0.0,0.0,0.0,0.0,0.0,0.0,0.0,0.0,0.0,0.0,0.0,0.0,0.0,0.0,0.0,0.0,0.0,-0.8308,-0.8733,0.0,0.0,-1.0395,-1.0741,-1.1043,-1.1189,-1.1162,-1.0768,-1.011,-0.9408,-0.8838,0.0,0.0,-0.7434,-0.7512,-0.7584,-0.745,-0.7611,-0.7831,0.0,0.0,0.0,0.0,0.0,0.0,0.0,0.0,0.0,0.0,0.0,0.0,0.0,0.0,0.0,0.0,-1.7001,-1.7001,-1.7001,-1.7001,-1.7001,-1.7001,-1.7136,-1.7201,-1.7201,-1.7622,-1.7891,-1.8076,-1.837,-1.8498,-1.8517,0.0,0.0,0.0,-1.7587,-1.7485,-1.7497,-1.7654,-1.7714,-1.7738,-1.7907,-1.7968,-1.795,0.0,0.0,0.0,0.0,0.0,-0.8089,-0.8435,-0.8482,-0.8591,-0.8844,-0.8885,-0.8844,-0.8791,-0.8817,-0.8797,-0.8635,0.0,0.0,0.0,0.0,0.0,0.0,0.0,0.0,0.0,0.0,0.0,0.0,0.0,0.0,0.0,0.0,0.0,0.0,0.0,0.0,0.0,0.0,0.0,0.0,0.0,0.0,0.0,0.0,0.0,0.0,0.0,0.0,0.0,0.0,0.0,0.0,0.0,0.0,0.0,0.0,-0.992,-1.0351,-1.0612,-1.0853,-1.0934,-1.0531,-0.99,-0.9239,0.0,0.0,0.0,-0.7482,-0.7567,-0.7645,-0.7526,-0.7672,-0.7811,0.0,0.0,0.0,0.0,0.0,0.0,0.0,0.0,0.0,0.0,0.0,0.0,0.0,0.0,0.0,0.0,-1.7001,-1.7001,-1.7001,-1.7001,-1.7001,-1.7001,-1.7001,-1.7001,-1.7001,-1.7335,-1.7658,-1.8033,-1.8437,-1.8663,-1.8782,0.0,0.0,0.0,-1.7708,-1.7551,-1.7509,-1.7774,-1.7871,-1.7907,-1.8191,-1.8294,-1.8263,0.0,0.0,0.0,0.0,0.0,0.0,-0.8435,-0.8482,-0.8591,-0.8844,-0.8885,-0.8885,-0.8881,-0.8881,-0.8881,-0.8878,0.0,0.0,0.0,0.0,0.0,0.0,0.0,0.0,0.0,0.0,-0.8878,-0.8881,0.0,0.0,0.0,0.0,0.0,0.0,0.0,0.0,0.0,0.0,0.0,0.0,0.0,0.0,0.0,0.0,0.0,0.0,0.0,0.0,0.0,0.0,0.0,0.0,0.0,0.0,0.0,0.0,-0.913,-0.9863,-1.0081,-1.0385,-1.0653,-1.0354,-0.9829,-0.9188,0.0,0.0,0.0,-0.7597,-0.7478,-0.7465,-0.7753,-0.7811,-0.7811,-0.7811,0.0,0.0,0.0,0.0,0.0,0.0,0.0,0.0,0.0,0.0,0.0,0.0,0.0,0.0,0.0,-1.7001,-1.7001,-1.7001,-1.7001,-1.7001,-1.7001,-1.7001,-1.7001,-1.7001,-1.7335,-1.7658,-1.8033,-1.8437,-1.8758,0.0,0.0,0.0,0.0,-1.7986,-1.7714,-1.7509,-1.7774,-1.7871,-1.7907,-1.8191,-1.8294,-1.8294,0.0,0.0,0.0,0.0,0.0,0.0,0.0,-0.8482,-0.8591,-0.8844,-0.8885,-0.8885,-0.8885,-0.8885,-0.8885,-0.8885,0.0,0.0,0.0,0.0,0.0,0.0,0.0,0.0,0.0,0.0,-0.8834,-0.8781,-0.8733,-0.8682,0.0,0.0,0.0,0.0,0.0,0.0,0.0,0.0,0.0,0.0,0.0,0.0,0.0,0.0,0.0,0.0,0.0,0.0,0.0,0.0,0.0,0.0,0.0,0.0,0.0,0.0,0.0,0.0,-0.9249,-0.9466,-0.9605,-0.9412,-0.891,-0.8431,-0.8299,0.0,0.0,-0.758,-0.7638,-0.7699,-0.7794,-0.7811,-0.7748,-0.7658,0.0,0.0,0.0,0.0,0.0,0.0,0.0,0.0,0.0,0.0,0.0,0.0,0.0,0.0,0.0,0.0,-1.6024,-1.6942,-1.7001,-1.7001,-1.7001,-1.7001,-1.7001,-1.7001,-1.6973,-1.7216,-1.7719,-1.792,0.0,0.0,0.0,0.0,0.0,-1.7714,-1.766,-1.7774,-1.8052,-1.8269,-1.8463,-1.8728,-1.8831,-1.8801,0.0,0.0,0.0,0.0,0.0,0.0,0.0,-0.8482,-0.8591,-0.8844,-0.8885,-0.8885,-0.8885,-0.8885,-0.8885,-0.8885,0.0,0.0,0.0,0.0,0.0,0.0,0.0,0.0,0.0,-0.8885,-0.8838,-0.8798,-0.8737,-0.8662,-0.857,-0.8665,-0.871,0.0,0.0,0.0,0.0,0.0,0.0,0.0,0.0,0.0,-0.8885,0.0,0.0,0.0,0.0,0.0,0.0,0.0,0.0,0.0,0.0,0.0,0.0,0.0,0.0,0.0,0.0,-0.8957,-0.9163,-0.8903,-0.8486,0.0,0.0,0.0,0.0,0.0,-0.7672,-0.7767,-0.7875,-0.7801,-0.7684,-0.763,0.0,0.0,0.0,0.0,0.0,0.0,0.0,0.0,0.0,0.0,0.0,0.0,0.0,0.0,0.0,0.0,-1.5298,-1.6154,-1.6742,-1.7001,-1.7001,-1.7001,-1.6964,-1.6872,-1.6732,-1.6992,-1.7468,-1.7531,0.0,0.0,0.0,0.0,0.0,-1.7811,-1.7823,-1.7913,-1.8294,-1.8541,-1.8716,-1.8976,-1.9078,-1.9054,0.0,0.0,0.0,0.0,0.0,0.0,0.0,0.0,-0.8604,-0.8844,-0.8885,-0.8885,-0.8885,-0.8885,-0.8885,-0.8885,0.0,0.0,0.0,0.0,0.0,0.0,0.0,0.0,-0.8885,-0.8885,-0.8871,-0.8851,-0.8774,-0.8699,-0.8679,-0.8699,-0.871,-0.8716,-0.8814,-0.8885,-0.8885,-0.8885,-0.8885,-0.8885,-0.8885,-0.8885,0.0,0.0,0.0,0.0,0.0,0.0,0.0,0.0,0.0,0.0,0.0,0.0,0.0,0.0,0.0,0.0,0.0,0.0,0.0,0.0,0.0,0.0,0.0,0.0,0.0,0.0,0.0,0.0,-0.7938,-0.7743,-0.7547,-0.7547,0.0,0.0,0.0,0.0,0.0,0.0,0.0,0.0,0.0,0.0,0.0,0.0,0.0,0.0,0.0,0.0,-1.4754,-1.4889,-1.6242,-1.6969,-1.7001,-1.7001,-1.6888,-1.6725,-1.6709,-1.6893,-1.7212,-1.7274,0.0,0.0,0.0,0.0,0.0,-1.8149,-1.8125,-1.7956,-1.8481,-1.8692,-1.874,-1.8982,-1.9078,-1.9078,0.0,0.0,0.0,0.0,0.0,0.0,0.0,0.0,0.0,0.0,-0.8885,-0.8885,-0.8885,-0.8885,-0.8885,0.0,0.0,0.0,0.0,0.0,0.0,0.0,0.0,0.0,-0.8885,-0.8885,-0.8825,-0.8587,-0.8669,-0.8594,-0.8381,-0.8604,-0.871,-0.8716,-0.8814,-0.8885,-0.8885,-0.8885,-0.8885,-0.8885,-0.8885,-0.8885,0.0,0.0,0.0,0.0,-0.8885,-0.8885,0.0,0.0,0.0,0.0,0.0,0.0,0.0,0.0,-0.7965,0.0,0.0,0.0,0.0,0.0,0.0,0.0,0.0,0.0,0.0,0.0,0.0,0.0,0.0,0.0,0.0,0.0,0.0,0.0,0.0,0.0,0.0,0.0,0.0,0.0,0.0,0.0,0.0,0.0,0.0,0.0,0.0,0.0,-1.3504,-1.4616,-1.5866,-1.6646,-1.7001,-1.7001,-1.6888,-1.6725,-1.6484,-1.6455,-1.6647,-1.6878,0.0,0.0,0.0,0.0,-1.7593,-1.7865,-1.8058,-1.8227,-1.8559,-1.8807,-1.8988,-1.9054,-1.9078,-1.9078,0.0,0.0,0.0,0.0,0.0,0.0,0.0,0.0,0.0,0.0,0.0,0.0,0.0,0.0,0.0,0.0,0.0,0.0,0.0,0.0,0.0,0.0,0.0,-0.8811,-0.8881,-0.8801,-0.8682,-0.8587,-0.8669,-0.8591,-0.8374,-0.8676,-0.8777,-0.8716,-0.8814,-0.8885,-0.8885,-0.8885,-0.8885,-0.8885,-0.8885,0.0,0.0,0.0,0.0,0.0,-0.8885,-0.8885,0.0,-0.879,-0.8713,-0.856,0.0,0.0,0.0,0.0,-0.7988,0.0,0.0,0.0,0.0,0.0,0.0,0.0,0.0,0.0,0.0,0.0,0.0,0.0,0.0,0.0,0.0,0.0,0.0,0.0,0.0,0.0,0.0,0.0,0.0,0.0,0.0,0.0,0.0,0.0,0.0,0.0,0.0,0.0,-1.1811,-1.2668,-1.4465,-1.5862,-1.6684,-1.6791,-1.6673,-1.6396,-1.6323,-1.6318,-1.6275,-1.6449,0.0,0.0,0.0,0.0,-1.7509,-1.7907,-1.8082,-1.8155,-1.8668,-1.8879,-1.8909,-1.903,-1.9078,-1.9078,0.0,0.0,0.0,0.0,0.0,0.0,0.0,0.0,0.0,0.0,0.0,0.0,0.0,0.0,0.0,0.0,0.0,0.0,0.0,0.0,0.0,0.0,0.0,-0.876,-0.8811,-0.8638,-0.857,-0.8676,-0.8723,-0.8679,-0.8557,-0.8862,-0.8927,-0.8784,-0.8838,-0.8885,-0.8885,-0.8885,-0.8885,-0.8885,-0.8885,0.0,0.0,0.0,0.0,0.0,0.0,0.0,0.0,-0.8885,-0.8835,-0.8682,-0.853,0.0,0.0,0.0,0.0,0.0,0.0,0.0,0.0,0.0,0.0,0.0,0.0,0.0,0.0,0.0,0.0,0.0,0.0,0.0,0.0,0.0,0.0,0.0,0.0,0.0,0.0,0.0,0.0,0.0,0.0,0.0,0.0,0.0,0.0,0.0,0.0,0.0,0.0,-1.0405,-1.2913,-1.47,-1.5577,-1.6092,-1.6003,-1.5394,-1.5782,-1.5899,-1.572,-1.5963,-1.6377,0.0,0.0,0.0,-1.7462,-1.8022,-1.8088,-1.7943,-1.8674,-1.8819,-1.8656,-1.8921,-1.9018,-1.9018,0.0,0.0,0.0,0.0,0.0,0.0,0.0,0.0,0.0,0.0,0.0,0.0,0.0,0.0,0.0,0.0,0.0,0.0,0.0,0.0,0.0,0.0,-0.8655,-0.8662,-0.8554,-0.8632,-0.8621,-0.8516,-0.8777,-0.8838,-0.8821,-0.9174,-0.9232,-0.9135,-0.8981,-0.8885,-0.8885,-0.8885,-0.8885,-0.8885,0.0,0.0,0.0,0.0,0.0,0.0,0.0,0.0,0.0,-0.8885,-0.8835,-0.8682,-0.853,0.0,0.0,0.0,0.0,0.0,-0.7988,-0.7988,0.0,0.0,0.0,0.0,0.0,0.0,0.0,0.0,0.0,0.0,0.0,0.0,0.0,0.0,0.0,0.0,0.0,0.0,0.0,0.0,0.0,0.0,0.0,0.0,0.0,0.0,0.0,0.0,0.0,0.0,0.0,-1.01,-1.2525,-1.3333,-1.2423,-1.3956,-1.4031,-1.2689,-1.3821,-1.4261,-1.4088,-1.5477,-1.6146,0.0,0.0,-1.7026,-1.7103,-1.7697,-1.7913,-1.7907,-1.8269,-1.839,-1.8384,-1.865,-1.874,-1.8776,0.0,0.0,0.0,0.0,0.0,0.0,0.0,0.0,0.0,0.0,0.0,0.0,0.0,0.0,0.0,0.0,0.0,0.0,0.0,0.0,0.0,-0.8482,-0.8476,-0.8516,-0.8604,-0.852,-0.8557,-0.8726,-0.8788,-0.8896,-0.9059,-0.9195,-0.9275,-0.9204,-0.9001,-0.8885,-0.8885,-0.8885,-0.8885,-0.8885,0.0,0.0,0.0,0.0,0.0,0.0,0.0,0.0,0.0,0.0,-0.8838,-0.8794,-0.8557,0.0,0.0,0.0,0.0,0.0,-0.7988,-0.7892,-0.7793,0.0,0.0,0.0,0.0,0.0,0.0,0.0,0.0,0.0,0.0,0.0,0.0,0.0,0.0,0.0,0.0,0.0,0.0,0.0,0.0,0.0,0.0,0.0,0.0,0.0,0.0,0.0,0.0,0.0,0.0,0.0,-1.0673,-1.0952,-0.9684,-1.1164,-1.1877,-1.1922,-1.3301,-1.3919,-1.3725,-1.5175,-1.5903,-1.6146,0.0,-1.6838,-1.7044,-1.7649,-1.7787,-1.7702,-1.8131,-1.8197,-1.8118,-1.8535,-1.8776,-1.8915,0.0,0.0,0.0,0.0,0.0,0.0,0.0,0.0,0.0,0.0,0.0,0.0,0.0,0.0,0.0,0.0,0.0,0.0,0.0,0.0,-0.8482,-0.8482,-0.8347,-0.8391,-0.8652,-0.8472,-0.856,-0.8885,-0.8855,-0.895,-0.9262,-0.9262,-0.9245,-0.9204,-0.9001,-0.8885,-0.8885,-0.8885,-0.8885,-0.8885,0.0,0.0,0.0,0.0,0.0,0.0,0.0,0.0,0.0,0.0,0.0,0.0,0.0,0.0,0.0,0.0,0.0,-0.7892,-0.7892,-0.7693,-0.7494,0.0,0.0,0.0,0.0,0.0,0.0,0.0,0.0,0.0,0.0,0.0,0.0,0.0,0.0,0.0,0.0,0.0,0.0,0.0,0.0,0.0,0.0,0.0,0.0,0.0,0.0,0.0,0.0,0.0,0.0,0.0,-0.9197,-0.9201,-0.7933,-0.914,-1.0165,-1.0831,-1.2296,-1.3081,-1.3301,-1.457,-1.5477,-1.6022,-1.6366,-1.6661,-1.6914,-1.7524,-1.7666,-1.7527,-1.7937,-1.801,-1.7931,-1.8414,-1.8758,-1.8994,0.0,0.0,0.0,0.0,0.0,0.0,0.0,0.0,0.0,0.0,0.0,0.0,0.0,0.0,0.0,0.0,0.0,0.0,0.0,0.0,-0.8482,-0.8482,-0.8347,-0.8343,-0.8496,-0.8618,-0.8764,-0.8885,-0.9062,-0.9262,-0.9364,-0.9364,-0.9347,-0.9204,-0.9001,-0.8885,-0.8885,-0.8885,-0.8885,-0.8885,-0.8885,0.0,0.0,0.0,0.0,0.0,0.0,0.0,0.0,0.0,0.0,0.0,0.0,0.0,0.0,0.0,0.0,-0.7646,-0.7646,-0.7444,-0.7238,-0.7238,-0.7042,0.0,-0.6995,-0.6867,0.0,0.0,0.0,0.0,0.0,0.0,0.0,0.0,0.0,0.0,0.0,0.0,0.0,0.0,0.0,0.0,0.0,0.0,0.0,0.0,0.0,0.0,0.0,0.0,0.0,0.0,0.0,-0.9201,-0.7933,-0.914,-0.9262,-0.8175,-0.9511,-1.0721,-1.1912,-1.3241,-1.451,-1.5661,-1.6248,-1.6537,-1.6596,-1.7268,-1.7497,-1.7485,-1.7527,-1.7678,-1.7907,-1.8209,-1.8487,-1.8746,0.0,0.0,0.0,0.0,0.0,0.0,0.0,0.0,0.0,0.0,0.0,0.0,0.0,0.0,0.0,0.0,0.0,0.0,0.0,0.0,-0.8665,-0.876,-0.8533,-0.8516,-0.876,-0.8635,-0.8828,-0.9354,-0.9412,-0.9418,-0.9381,-0.9344,-0.9265,-0.9204,-0.9001,-0.8885,-0.8885,-0.8885,-0.8885,-0.8885,-0.8885,-0.8885,0.0,0.0,0.0,0.0,0.0,0.0,0.0,0.0,0.0,0.0,0.0,0.0,0.0,0.0,0.0,-0.7547,-0.7391,-0.7141,-0.6942,-0.6942,-0.6739,0.0,0.0,-0.7044,0.0,0.0,0.0,0.0,0.0,0.0,0.0,0.0,0.0,0.0,0.0,0.0,0.0,0.0,0.0,0.0,0.0,0.0,0.0,0.0,0.0,0.0,0.0,0.0,0.0,0.0,0.0,-0.8416,-0.7933,-0.8355,-0.8355,-0.7933,-0.9201,-1.0468,-1.1732,-1.3062,-1.4391,-1.5655,-1.6242,-1.6478,-1.6537,-1.7244,-1.7485,-1.7485,-1.7485,-1.7642,-1.7883,-1.7992,-1.8306,-1.8698,0.0,0.0,0.0,0.0,0.0,0.0,0.0,0.0,0.0,0.0,0.0,0.0,0.0,0.0,0.0,0.0,0.0,0.0,-0.8885,-0.8842,-0.8828,-0.8878,-0.8693,-0.8696,-0.8998,-0.871,-0.8876,-0.9537,-0.9588,-0.9483,-0.9239,-0.9238,-0.9183,-0.9083,-0.8984,-0.8885,-0.8885,-0.8885,-0.8885,-0.8885,-0.8885,-0.8885,0.0,0.0,0.0,0.0,0.0,0.0,0.0,0.0,0.0,0.0,0.0,0.0,0.0,0.0,0.0,0.0,-0.7141,-0.6892,-0.6692,0.0,0.0,0.0,0.0,0.0,0.0,0.0,0.0,0.0,0.0,0.0,0.0,0.0,0.0,0.0,0.0,0.0,0.0,0.0,0.0,0.0,0.0,0.0,0.0,0.0,0.0,0.0,0.0,0.0,0.0,0.0,0.0,0.0,-0.7872,-0.7872,-0.7872,-0.7933,-0.8778,-0.9866,-1.1129,-1.2457,-1.3784,-1.5051,-1.5946,-1.6425,-1.6537,-1.7132,-1.7426,-1.7485,-1.7485,-1.7593,-1.7756,-1.7847,-1.8167,-1.8571,0.0,0.0,0.0,0.0,0.0,0.0,0.0,0.0,0.0,0.0,0.0,0.0,0.0,0.0,0.0,0.0,0.0,0.0,-0.8885,-0.8885,-0.8885,-0.8885,-0.8794,-0.8849,-0.92,-0.8866,-0.8933,-0.9381,-0.953,-0.9378,-0.8888,-0.9086,-0.9076,-0.8885,-0.8885,-0.8885,-0.8885,-0.8885,-0.8885,-0.8885,-0.8885,-0.8885,-0.8885,0.0,0.0,0.0,0.0,0.0,0.0,0.0,0.0,0.0,0.0,0.0,0.0,0.0,0.0,-0.7138,-0.6892,-0.6589,0.0,0.0,0.0,0.0,0.0,0.0,0.0,0.0,0.0,0.0,0.0,0.0,0.0,0.0,0.0,0.0,0.0,0.0,0.0,0.0,0.0,0.0,0.0,0.0,0.0,0.0,0.0,0.0,0.0,0.0,0.0,0.0,0.0,0.0,-0.7869,-0.7872,-0.7872,-0.7872,-0.7869,-0.8596,-0.9866,-1.1129,-1.2457,-1.3784,-1.5418,-1.6253,-1.6532,-1.6838,-1.7197,-1.7485,-1.7485,-1.7485,-1.7515,-1.7774,-1.8046,-1.8324,0.0,0.0,0.0,0.0,0.0,0.0,0.0,0.0,0.0,0.0,0.0,0.0,0.0,0.0,0.0,0.0,0.0,0.0,-0.8885,-0.8885,-0.8885,-0.8885,-0.8841,-0.8913,-0.9001,-0.9015,-0.9142,-0.9279,-0.9323,-0.9218,-0.9089,-0.919,-0.9187,-0.9089,-0.9089,-0.9089,-0.9083,-0.8981,-0.8885,-0.8885,-0.8885,-0.8885,-0.8871,0.0,0.0,0.0,0.0,0.0,0.0,0.0,0.0,0.0,0.0,0.0,0.0,0.0,-0.6995,-0.6842,-0.6589,0.0,0.0,0.0,0.0,0.0,0.0,0.0,0.0,0.0,0.0,0.0,0.0,0.0,0.0,0.0,0.0,0.0,0.0,0.0,0.0,0.0,0.0,0.0,0.0,0.0,0.0,0.0,0.0,0.0,0.0,0.0,0.0,0.0,0.0,0.0,-0.7752,-0.7831,-0.7872,-0.7869,-0.779,-0.8931,-1.1129,-1.1551,-1.2806,-1.4827,-1.5709,-1.6158,-1.6356,-1.7055,-1.7426,-1.7485,-1.7485,-1.7485,-1.7491,-1.7569,-1.7768,-1.804,0.0,0.0,0.0,0.0,0.0,0.0,0.0,0.0,0.0,0.0,0.0,0.0,0.0,0.0,0.0,0.0,0.0,0.0,0.0,-0.8885,-0.8885,-0.8885,-0.8885,-0.8885,-0.8885,-0.9025,-0.9066,-0.9066,-0.918,-0.918,-0.9069,-0.9183,-0.921,-0.9214,-0.9272,-0.9265,-0.9204,-0.9059,-0.8991,-0.8885,-0.8885,-0.8885,-0.8865,0.0,0.0,0.0,0.0,0.0,0.0,0.0,0.0,0.0,0.0,0.0,0.0,0.0,-0.6795,-0.6742,-0.6487,0.0,0.0,0.0,0.0,0.0,0.0,0.0,0.0,0.0,0.0,0.0,0.0,0.0,0.0,0.0,0.0,0.0,0.0,0.0,0.0,0.0,0.0,0.0,0.0,0.0,0.0,0.0,0.0,0.0,0.0,0.0,0.0,0.0,0.0,0.0,-0.763,-0.7744,-0.778,-0.7731,-0.7663,-0.8722,-1.0814,-1.1415,-1.2442,-1.3903,-1.5419,-1.6119,-1.6252,-1.7032,-1.7367,-1.7485,-1.7485,-1.7485,-1.7485,-1.7485,-1.7648,-1.7901,0.0,0.0,0.0,0.0,0.0,0.0,0.0,0.0,0.0,0.0,0.0,0.0,0.0,0.0,0.0,0.0,0.0,0.0,0.0,0.0,-0.8885,-0.8885,-0.8885,-0.8885,-0.8885,-0.8885,-0.8885,-0.8885,-0.9069,-0.9066,-0.8888,-0.9086,-0.9217,-0.9234,-0.9293,-0.9279,-0.9228,-0.9187,-0.9045,-0.8885,-0.8881,-0.8875,-0.8848,-0.8639,0.0,0.0,0.0,0.0,0.0,0.0,0.0,0.0,0.0,0.0,0.0,-0.6877,-0.6742,0.0,0.0,0.0,0.0,0.0,0.0,0.0,0.0,0.0,0.0,0.0,0.0,0.0,0.0,0.0,0.0,0.0,0.0,0.0,0.0,0.0,0.0,0.0,0.0,0.0,0.0,0.0,0.0,0.0,0.0,0.0,0.0,0.0,0.0,0.0,0.0,0.0,-0.7502,-0.7625,-0.7627,0.0,-0.7508,-0.8084,-0.9252,-1.086,-1.1671,-1.2007,-1.4821,-1.6015,-1.6073,-1.671,-1.7173,-1.7485,-1.7479,-1.7485,-1.7485,-1.7485,-1.763,-1.7841,0.0,0.0,0.0,0.0,0.0,0.0,0.0,0.0,0.0,0.0,0.0,0.0,0.0,0.0,0.0,0.0,0.0,0.0,0.0,0.0,-0.8885,-0.8885,-0.8885,-0.8885,-0.8885,-0.8885,-0.8885,-0.8885,-0.8967,-0.8967,-0.8888,-0.9086,-0.9275,-0.9323,-0.9123,-0.9144,-0.931,-0.8957,-0.8855,-0.8881,-0.8657,-0.8533,-0.8368,-0.8009,-0.7781,0.0,0.0,0.0,0.0,0.0,0.0,0.0,0.0,-0.6935,-0.6877,-0.6598,-0.6487,0.0,0.0,0.0,0.0,0.0,0.0,0.0,0.0,0.0,0.0,0.0,0.0,0.0,0.0,0.0,0.0,0.0,0.0,0.0,0.0,0.0,0.0,0.0,0.0,0.0,0.0,0.0,0.0,0.0,0.0,0.0,0.0,0.0,0.0,0.0,0.0,-0.7344,-0.7317,-0.7497,-0.7546,0.0,-0.7421,-0.7539,-0.7985,-1.045,-1.2131,-1.3229,-1.4824,-1.5112,-1.4586,-1.6102,-1.6891,-1.7138,-1.7426,-1.7485,-1.7485,-1.7485,-1.7521,-1.7599,0.0,0.0,0.0,0.0,0.0,0.0,0.0,0.0,0.0,0.0,0.0,0.0,0.0,0.0,0.0,0.0,0.0,0.0,0.0,0.0,0.0,-0.8885,-0.8885,-0.8885,-0.8885,-0.8885,-0.8885,-0.8885,-0.8885,-0.8885,-0.8888,-0.9086,-0.9251,-0.9323,-0.911,-0.9127,-0.9252,-0.8778,-0.8603,-0.8613,-0.8333,-0.8138,-0.7952,-0.7657,-0.7507,-0.7479,-0.7287,0.0,0.0,0.0,0.0,0.0,0.0,0.0,-0.6589,-0.6437,0.0,0.0,0.0,0.0,0.0,0.0,0.0,0.0,0.0,0.0,0.0,0.0,0.0,0.0,0.0,0.0,0.0,0.0,0.0,0.0,0.0,0.0,0.0,0.0,0.0,0.0,0.0,0.0,0.0,0.0,0.0,0.0,0.0,0.0,0.0,0.0,-0.7225,-0.7168,-0.7168,-0.7285,-0.7288,-0.7176,-0.7171,-0.7564,-0.8309,-0.9838,-1.1173,-1.236,-1.3735,-1.4085,-1.3909,-1.5528,-1.6547,-1.702,-1.7197,-1.7367,-1.7485,-1.7485,-1.7485,-1.7503,0.0,0.0,0.0,0.0,0.0,0.0,0.0,0.0,0.0,0.0,0.0,0.0,0.0,0.0,0.0,0.0,0.0,0.0,0.0,0.0,0.0,-0.8885,-0.8885,-0.8885,-0.8885,-0.8885,-0.8885,-0.8885,-0.8885,-0.8895,-0.8866,-0.9072,-0.9187,-0.9207,-0.9072,-0.901,-0.9043,-0.8569,-0.8272,-0.8192,-0.7917,-0.773,-0.7605,-0.7386,-0.7325,-0.7292,-0.7127,-0.7039,-0.7039,-0.6792,0.0,0.0,0.0,0.0,-0.6387,0.0,0.0,0.0,0.0,0.0,0.0,0.0,0.0,0.0,0.0,0.0,0.0,0.0,0.0,0.0,0.0,0.0,0.0,0.0,0.0,0.0,0.0,0.0,0.0,0.0,0.0,0.0,0.0,0.0,0.0,0.0,0.0,0.0,0.0,0.0,-0.716,-0.7185,-0.7076,-0.6986,-0.6986,-0.7152,-0.71,-0.6834,-0.6937,-0.7617,-0.8684,-0.8924,-0.9628,-1.0771,-1.2152,-1.2927,-1.335,-1.4782,-1.5959,-1.6849,-1.6961,-1.7197,-1.7426,-1.7485,-1.7485,-1.7485,0.0,0.0,0.0,0.0,0.0,0.0,0.0,0.0,0.0,0.0,0.0,0.0,0.0,0.0,0.0,0.0,0.0,0.0,0.0,0.0,0.0,-0.8885,-0.8885,-0.8885,-0.8885,-0.8885,-0.8885,-0.8885,-0.8885,-0.8837,0.0,-0.8847,-0.9032,-0.9193,-0.853,-0.8393,-0.8543,-0.789,-0.7688,-0.7731,-0.7405,-0.7223,-0.7167,-0.6833,-0.6655,-0.6559,-0.6492,-0.6487,-0.6487,-0.6487,-0.6437,0.0,0.0,0.0,0.0,0.0,0.0,0.0,0.0,0.0,0.0,0.0,0.0,0.0,0.0,0.0,0.0,0.0,0.0,0.0,0.0,0.0,0.0,0.0,0.0,0.0,0.0,0.0,0.0,0.0,0.0,0.0,0.0,0.0,0.0,0.0,0.0,0.0,0.0,-0.7016,-0.6967,-0.6877,-0.6945,-0.6986,-0.6986,-0.7152,-0.7144,-0.6961,-0.6978,-0.7045,-0.7121,-0.7367,-0.8255,-0.9596,-1.0894,-1.1548,-1.1799,-1.3374,-1.4896,-1.6259,-1.679,-1.7026,-1.7079,-1.7367,-1.7485,-1.7485,0.0,0.0,0.0,0.0,0.0,0.0,0.0,0.0,0.0,0.0,0.0,0.0,0.0,0.0,0.0,0.0,0.0,0.0,0.0,0.0,0.0,0.0,-0.8885,-0.8885,-0.8885,-0.8885,-0.8885,-0.8885,-0.8885,0.0,0.0,-0.8667,-0.8677,0.0,0.0,0.0,0.0,0.0,0.0,0.0,0.0,-0.6781,-0.6673,-0.6569,-0.6433,-0.6387,-0.6387,-0.6387,-0.6387,-0.6387,-0.6387,-0.6387,-0.6387,0.0,0.0,0.0,0.0,0.0,0.0,0.0,0.0,0.0,0.0,0.0,0.0,0.0,0.0,0.0,0.0,0.0,0.0,0.0,0.0,0.0,0.0,0.0,0.0,0.0,0.0,0.0,0.0,0.0,0.0,0.0,0.0,0.0,0.0,0.0,-0.6893,-0.6948,-0.6989,-0.6999,-0.6923,-0.6915,-0.6986,-0.7035,-0.7035,-0.6983,-0.6915,-0.6855,-0.6804,-0.691,-0.7308,-0.7968,-0.9346,-1.0351,-1.1212,-1.2756,-1.4351,-1.594,-1.6321,-1.6672,-1.702,-1.7197,-1.7367,-1.7485,0.0,0.0,0.0,0.0,0.0,0.0,0.0,0.0,0.0,0.0,0.0,0.0,0.0,0.0,0.0,0.0,0.0,0.0,0.0,0.0,0.0,0.0,0.0,-0.8885,-0.8885,-0.8885,-0.8881,-0.8826,0.0,0.0,-0.8467,-0.8406,-0.8193,0.0,-0.8023,-0.7936,0.0,0.0,0.0,0.0,0.0,-0.6468,-0.6387,-0.6387,-0.6387,-0.6387,-0.6387,-0.6387,-0.6387,-0.6387,-0.6387,-0.6387,-0.6387,-0.6387,0.0,0.0,0.0,0.0,0.0,0.0,0.0,0.0,0.0,0.0,0.0,0.0,0.0,0.0,0.0,0.0,0.0,0.0,0.0,0.0,0.0,0.0,0.0,0.0,0.0,0.0,0.0,0.0,0.0,0.0,0.0,0.0,0.0,0.0,-0.6815,-0.6918,-0.701,-0.7117,-0.6926,-0.6893,-0.6983,-0.6986,-0.6986,-0.6983,-0.6861,-0.6785,-0.6757,-0.6787,-0.6768,-0.6777,-0.7946,-0.9192,-1.048,-1.202,-1.3595,-1.5108,-1.577,-1.634,-1.6815,-1.6938,-1.7197,-1.7485,0.0,0.0,0.0,0.0,0.0,0.0,0.0,0.0,0.0,0.0,0.0,0.0,-0.8885,-0.8885,-0.8885,-0.8885,0.0,0.0,0.0,0.0,0.0,0.0,0.0,0.0,-0.8885,-0.8885,-0.8768,0.0,0.0,0.0,-0.784,-0.792,-0.7717,-0.7326,-0.7416,-0.7344,-0.722,0.0,0.0,0.0,0.0,0.0,-0.6387,-0.6387,0.0,0.0,0.0,-0.6387,-0.6387,-0.6387,-0.6387,-0.6387,-0.6387,-0.6387,-0.6387,0.0,0.0,0.0,0.0,0.0,0.0,0.0,0.0,0.0,0.0,0.0,0.0,0.0,0.0,0.0,0.0,0.0,0.0,0.0,0.0,0.0,0.0,0.0,0.0,0.0,0.0,0.0,0.0,0.0,0.0,0.0,0.0,0.0,-0.6809,-0.6918,-0.6934,-0.6823,-0.6921,-0.6978,-0.6986,-0.6986,-0.6986,-0.6983,-0.6861,-0.6741,-0.6632,-0.6749,-0.6676,-0.643,-0.7058,-0.8036,-0.932,-1.0713,-1.2069,-1.3427,-1.5097,-1.5958,-1.6281,-1.6815,-1.7197,-1.7485,0.0,0.0,0.0,0.0,0.0,0.0,0.0,0.0,0.0,0.0,0.0,0.0,0.0,-0.8325,-0.8325,-0.8325,-0.8325,0.0,0.0,0.0,0.0,0.0,0.0,0.0,0.0,-0.8277,0.0,0.0,0.0,-0.7981,-0.778,-0.7551,-0.7411,-0.7328,-0.7446,-0.7311,-0.6957,-0.6807,0.0,0.0,0.0,0.0,0.0,0.0,0.0,0.0,0.0,0.0,0.0,-0.6387,-0.6387,-0.6387,-0.6387,-0.6387,-0.6387,-0.6387,-0.6387,0.0,0.0,0.0,0.0,0.0,0.0,0.0,0.0,0.0,0.0,0.0,0.0,0.0,0.0,0.0,0.0,0.0,0.0,0.0,0.0,0.0,0.0,0.0,0.0,0.0,0.0,0.0,0.0,0.0,0.0,0.0,-0.6921,-0.7029,-0.7128,-0.7084,-0.7125,-0.7114,-0.6986,-0.7111,-0.7111,-0.6983,-0.6861,-0.6779,-0.6733,-0.6619,-0.6468,-0.64,-0.6703,-0.754,-0.8816,-0.9667,-1.0689,-1.1907,-1.362,-1.4465,-1.4966,-1.6211,-1.6897,-1.7197,0.0,0.0,0.0,0.0,0.0,0.0,0.0,0.0,0.0,-0.7989,0.0,0.0,0.0,0.0,-0.7989,-0.7989,-0.7989,-0.7989,-0.7989,0.0,0.0,0.0,0.0,0.0,0.0,0.0,0.0,0.0,0.0,0.0,0.0,-0.7135,-0.7048,-0.7154,-0.7295,-0.7115,0.0,0.0,0.0,-0.6389,0.0,0.0,-0.6389,0.0,0.0,0.0,0.0,0.0,0.0,0.0,0.0,0.0,-0.6387,-0.6387,-0.6387,-0.6387,0.0,0.0,0.0,0.0,0.0,0.0,0.0,0.0,0.0,0.0,0.0,0.0,0.0,0.0,0.0,0.0,0.0,0.0,0.0,0.0,0.0,0.0,0.0,0.0,0.0,0.0,0.0,0.0,0.0,0.0,0.0,0.0,-0.7037,-0.713,-0.7169,-0.721,-0.7174,-0.7117,-0.6986,-0.7114,-0.7114,-0.6983,-0.6902,-0.6842,-0.6796,-0.6592,-0.6425,-0.6392,-0.6564,-0.7151,-0.8078,-0.879,-0.9572,-1.0484,-1.2495,-1.3533,-1.4031,-1.5668,-1.6592,-1.702,0.0,0.0,0.0,0.0,0.0,0.0,0.0,0.0,-0.7989,-0.7989,0.0,0.0,0.0,0.0,0.0,-0.7983,-0.798,-0.7977,-0.7977,-0.791,0.0,0.0,0.0,0.0,0.0,0.0,0.0,0.0,0.0,0.0,0.0,0.0,-0.6681,-0.6801,-0.6796,-0.6793,-0.679,0.0,-0.6497,-0.6398,0.0,-0.6548,-0.6403,0.0,0.0,0.0,-0.6387,-0.6387,0.0,0.0,0.0,0.0,0.0,0.0,0.0,0.0,0.0,0.0,0.0,0.0,0.0,0.0,0.0,0.0,0.0,0.0,0.0,0.0,0.0,0.0,0.0,0.0,0.0,0.0,0.0,0.0,0.0,0.0,0.0,0.0,0.0,0.0,0.0,0.0,0.0,0.0,0.0,-0.6902,-0.7188,-0.7043,-0.7035,-0.7202,-0.7043,-0.6983,-0.698,-0.698,-0.698,-0.698,-0.698,-0.6918,-0.6804,-0.6676,-0.6554,-0.6398,-0.6564,-0.6684,-0.6918,-0.8154,-0.8726,-0.9096,-1.171,-1.3035,-1.3702,-1.5144,-1.6209,-1.6903,0.0,0.0,0.0,0.0,0.0,0.0,0.0,-0.7432,-0.7432,0.0,0.0,0.0,-0.7432,-0.7356,-0.725,-0.725,-0.7166,-0.7113,-0.7113,-0.7135,-0.7073,-0.6983,-0.7068,-0.7073,-0.698,0.0,0.0,0.0,0.0,0.0,0.0,0.0,0.0,0.0,-0.6616,-0.6586,-0.6668,-0.6632,0.0,0.0,-0.657,-0.66,0.0,0.0,0.0,0.0,0.0,-0.6387,-0.6387,0.0,-0.6387,-0.6387,0.0,0.0,0.0,0.0,0.0,0.0,-0.6387,0.0,0.0,0.0,0.0,0.0,0.0,0.0,0.0,0.0,0.0,0.0,0.0,0.0,0.0,0.0,0.0,0.0,0.0,0.0,0.0,0.0,0.0,0.0,0.0,0.0,0.0,0.0,-0.6839,-0.6831,-0.6896,-0.6953,-0.6999,-0.7029,-0.7002,-0.6942,-0.6855,-0.6853,-0.6853,-0.6853,-0.6853,-0.688,-0.6929,-0.6714,-0.66,-0.6564,-0.646,-0.6605,-0.6812,-0.7308,-0.7488,-0.7704,-0.9541,-1.0993,-1.221,-1.3857,-1.479,-1.5224,0.0,0.0,0.0,0.0,0.0,0.0,0.0,-0.721,-0.721,0.0,0.0,0.0,-0.7144,-0.7024,-0.6964,-0.6912,-0.6842,-0.6801,-0.6801,-0.6755,-0.6695,-0.6622,-0.6687,-0.6692,-0.6622,0.0,0.0,0.0,0.0,0.0,0.0,0.0,0.0,0.0,0.0,0.0,0.0,0.0,0.0,0.0,-0.6627,0.0,0.0,-0.6714,-0.6676,0.0,0.0,0.0,-0.6387,-0.6387,-0.6387,0.0,0.0,0.0,0.0,0.0,0.0,0.0,0.0,0.0,0.0,0.0,0.0,0.0,0.0,-0.6387,0.0,0.0,0.0,0.0,0.0,0.0,0.0,0.0,0.0,0.0,0.0,0.0,0.0,0.0,0.0,0.0,0.0,0.0,0.0,0.0,-0.6755,-0.6749,-0.6798,-0.6869,-0.691,-0.691,-0.6858,-0.6798,-0.6725,-0.6725,-0.6752,-0.6801,-0.6855,-0.6915,-0.698,-0.6836,-0.6744,-0.6692,-0.6622,-0.6671,-0.6812,-0.6934,-0.7013,-0.7232,-0.8595,-0.9741,-1.0759,-1.2249,-1.317,-1.36,0.0,0.0,0.0,0.0,0.0,0.0,0.0,-0.721,-0.721,0.0,-0.721,-0.7166,-0.6997,-0.6972,-0.6915,-0.6793,-0.6771,-0.676,-0.676,-0.666,-0.66,-0.66,-0.66,-0.66,-0.66,-0.6706,0.0,0.0,0.0,0.0,0.0,0.0,0.0,0.0,0.0,0.0,0.0,0.0,0.0,-0.6408,-0.6703,-0.6662,0.0,0.0,-0.6752,0.0,-0.6564,-0.6478,-0.6387,-0.6387,-0.6387,0.0,0.0,0.0,0.0,0.0,-0.6387,0.0,0.0,0.0,0.0,0.0,0.0,0.0,-0.6387,-0.6387,-0.6416,0.0,0.0,0.0,0.0,0.0,0.0,0.0,0.0,0.0,0.0,0.0,0.0,0.0,0.0,0.0,0.0,0.0,-0.6476,-0.6744,-0.666,-0.6646,-0.6755,-0.6774,-0.6782,-0.6782,-0.6676,-0.6619,-0.6619,-0.6605,-0.666,-0.6785,-0.6907,-0.6972,-0.6986,-0.6986,-0.6926,-0.6823,-0.6806,-0.6809,-0.6831,-0.6926,-0.7032,-0.7304,-0.8325,-0.9004,-0.9538,-1.0593,-1.1447,-1.1916,0.0,0.0,0.0,0.0,0.0,0.0,0.0,0.0,-0.721,-0.721,-0.721,-0.7166,-0.6997,-0.6896,-0.6787,-0.6665,-0.6564,-0.6457,-0.6457,-0.6435,-0.6422,-0.6422,-0.6422,-0.6422,-0.6422,-0.6446,-0.6446,0.0,0.0,0.0,0.0,0.0,0.0,0.0,0.0,0.0,0.0,0.0,0.0,-0.6408,-0.6703,0.0,-0.6603,-0.6774,-0.6733,-0.6575,-0.6449,-0.6406,-0.6387,0.0,-0.6387,-0.6387,0.0,0.0,0.0,0.0,0.0,0.0,0.0,0.0,0.0,0.0,0.0,0.0,-0.6387,-0.6387,-0.6392,0.0,0.0,0.0,0.0,0.0,0.0,0.0,0.0,0.0,0.0,0.0,0.0,0.0,0.0,0.0,0.0,0.0,-0.6406,-0.6454,-0.6435,-0.6433,-0.6457,-0.66,-0.6654,-0.6654,-0.6632,-0.6619,-0.6619,-0.647,-0.6481,-0.6657,-0.6779,-0.6891,-0.6986,-0.6986,-0.6972,-0.6945,-0.6844,-0.6858,-0.6945,-0.6869,-0.691,-0.7092,-0.7449,-0.8355,-0.9436,-0.9793,-1.0256,-1.06,0.0,0.0,0.0,0.0,0.0,0.0,0.0,0.0,-0.721,-0.721,-0.721,-0.7144,-0.6912,-0.6839,-0.6728,-0.6495,-0.6476,-0.6452,-0.6389,-0.6443,-0.6449,-0.6389,-0.6387,-0.6387,-0.6387,-0.6387,-0.6387,0.0,0.0,0.0,0.0,0.0,0.0,0.0,0.0,0.0,0.0,0.0,-0.6387,-0.64,-0.6635,0.0,-0.6632,-0.6755,-0.6725,-0.6619,-0.6619,-0.6581,-0.6468,-0.6408,-0.6387,0.0,0.0,-0.6387,-0.6387,0.0,-0.6387,-0.6387,0.0,0.0,0.0,-0.6387,0.0,0.0,0.0,-0.6387,0.0,0.0,0.0,0.0,0.0,0.0,0.0,0.0,0.0,0.0,0.0,0.0,0.0,0.0,0.0,0.0,0.0,0.0,-0.6411,-0.6473,-0.6422,-0.6414,-0.6473,-0.6476,-0.6476,-0.6476,-0.6476,-0.6476,-0.6476,-0.6416,-0.6449,-0.6622,-0.6744,-0.6866,-0.6986,-0.7046,-0.7125,-0.7119,-0.7005,-0.7013,-0.7119,-0.7005,-0.7013,-0.7136,-0.7198,-0.7752,-0.846,-0.8598,-0.8852,-0.9089,0.0,0.0,0.0,0.0,0.0,0.0,0.0,0.0,-0.6763,-0.6541,-0.6707,-0.6733,-0.6505,-0.6643,-0.6722,-0.6473,-0.6575,-0.6597,-0.6495,-0.6611,-0.6611,-0.646,-0.6457,-0.6446,-0.6422,-0.6443,-0.6443,-0.6422,0.0,0.0,0.0,0.0,0.0,0.0,0.0,0.0,0.0,0.0,0.0,-0.6395,0.0,-0.6584,-0.6597,-0.6719,-0.669,-0.6597,-0.6698,-0.6668,-0.6567,-0.6419,0.0,-0.6387,-0.6387,-0.6387,0.0,0.0,0.0,0.0,0.0,0.0,0.0,0.0,0.0,-0.6387,0.0,0.0,0.0,0.0,0.0,0.0,0.0,0.0,0.0,0.0,0.0,0.0,0.0,0.0,0.0,0.0,0.0,0.0,0.0,0.0,-0.6427,-0.6578,-0.6441,-0.643,-0.6578,-0.6438,-0.6387,-0.6387,-0.6387,-0.6387,-0.6387,-0.6387,-0.6435,-0.6586,-0.6733,-0.6855,-0.6953,-0.7147,-0.721,-0.721,-0.721,-0.721,-0.7204,-0.7161,-0.7169,-0.7215,-0.7262,-0.7345,-0.7535,-0.7682,-0.7793,-0.7872,-0.317,-0.3692,0.0,0.0,0.0,0.0,0.0,0.0,-0.5202,-0.4139,-0.4921,-0.5522,-0.5224,0.0,0.0,0.0,0.0,0.0,-0.691,0.0,-0.6777,-0.676,-0.676,-0.6709,-0.66,-0.6706,-0.6709,-0.6597,0.0,0.0,0.0,0.0,0.0,0.0,-0.6449,0.0,0.0,0.0,-0.6387,0.0,-0.64,-0.6408,0.0,-0.6594,-0.6564,-0.6408,-0.6422,-0.6419,-0.6403,0.0,-0.6387,-0.6387,0.0,-0.6387,0.0,0.0,0.0,0.0,0.0,0.0,0.0,0.0,-0.6387,0.0,0.0,0.0,0.0,0.0,0.0,0.0,0.0,0.0,0.0,0.0,0.0,0.0,0.0,0.0,0.0,0.0,0.0,0.0,0.0,0.0,0.0,-0.6406,-0.6395,-0.6392,-0.6406,-0.6392,-0.6387,-0.6387,-0.6387,-0.6387,-0.6387,-0.6387,-0.6392,-0.6411,-0.6692,-0.6809,-0.6831,-0.7109,-0.721,-0.721,-0.721,-0.721,-0.7193,-0.6929,-0.6967,-0.7232,-0.7394,-0.7494,-0.7546,-0.7769,-0.7858,-0.7872,-0.1285,-0.2071,0.0,0.0,0.0,0.0,0.0,0.0,0.0,-0.3692,-0.4049,0.0,0.0,0.0,0.0,0.0,0.0,-0.6422,0.0,0.0,-0.6698,-0.6698,0.0,0.0,-0.6725,-0.6777,-0.6777,-0.6725,-0.6777,0.0,0.0,0.0,0.0,0.0,-0.6481,0.0,-0.6387,0.0,0.0,0.0,0.0,0.0,0.0,-0.6443,-0.6473,-0.6481,-0.6411,-0.6433,-0.6481,0.0,-0.6387,0.0,0.0,0.0,0.0,0.0,0.0,0.0,0.0,0.0,0.0,0.0,0.0,0.0,0.0,0.0,-0.6387,0.0,0.0,0.0,0.0,0.0,0.0,0.0,0.0,0.0,0.0,0.0,0.0,0.0,0.0,0.0,0.0,0.0,0.0,0.0,0.0,-0.6387,-0.6387,-0.6387,-0.6387,-0.6387,-0.6387,-0.6387,-0.6387,-0.6387,-0.6422,-0.6495,-0.6719,-0.6839,-0.6912,-0.7136,-0.721,-0.721,-0.721,-0.7174,-0.7054,-0.7021,-0.7027,-0.7086,-0.7399,-0.7519,-0.7546,-0.7782,-0.7872,-0.7872,0.0,0.0,0.0,0.0,0.0,0.0,0.0,0.0,0.0,0.0,0.0,0.0,-0.2942,-0.4006,0.0,0.0,-0.4884,-0.5614,0.0,0.0,-0.6382,0.0,0.0,0.0,0.0,0.0,-0.6883,-0.6853,0.0,0.0,0.0,0.0,0.0,0.0,0.0,-0.6468,-0.6387,0.0,0.0,-0.6387,-0.6387,-0.6387,-0.6387,-0.6387,-0.6441,-0.6556,-0.6419,-0.6443,-0.6505,-0.6416,-0.6387,0.0,-0.6387,0.0,0.0,0.0,0.0,0.0,-0.6427,0.0,0.0,0.0,0.0,0.0,0.0,0.0,0.0,0.0,0.0,0.0,0.0,0.0,0.0,0.0,0.0,0.0,0.0,0.0,0.0,0.0,0.0,0.0,0.0,0.0,0.0,0.0,-0.6387,0.0,-0.6387,-0.6387,-0.6387,-0.6387,-0.6387,-0.6387,-0.6387,-0.6419,-0.6478,-0.6622,-0.6779,-0.6899,-0.6989,-0.7158,-0.721,-0.721,-0.7177,-0.7117,-0.6986,-0.7002,-0.6999,-0.701,-0.7271,-0.7432,-0.7546,-0.7782,-0.7872,-0.7872,0.0,-0.0055,0.0,0.0,0.0,0.0,0.0,0.0,0.0,0.0,0.0,0.0,0.0,0.0,0.0,0.0,0.0,-0.406,-0.5317,0.0,-0.593,0.0,0.0,-0.7144,0.0,0.0,0.0,0.0,0.0,0.0,0.0,0.0,0.0,0.0,0.0,-0.6389,-0.6387,-0.6387,-0.6387,-0.6387,-0.6387,-0.6387,-0.6387,0.0,-0.6389,-0.6392,-0.6387,0.0,0.0,-0.6387,-0.6387,0.0,0.0,0.0,0.0,0.0,0.0,0.0,0.0,0.0,0.0,-0.6584,0.0,0.0,0.0,0.0,-0.6387,0.0,0.0,0.0,0.0,0.0,-0.6401,-0.6293,0.0,0.0,0.0,0.0,0.0,0.0,0.0,0.0,0.0,0.0,0.0,-0.6387,-0.6387,0.0,-0.6387,-0.6387,-0.6387,-0.6387,-0.6387,-0.6387,-0.6387,-0.6554,-0.6616,-0.6622,-0.6864,-0.698,-0.6989,-0.7158,-0.721,-0.7204,-0.7037,-0.6989,-0.6967,-0.6733,-0.6774,-0.6986,-0.6997,-0.7214,-0.7546,-0.7782,-0.7872,-0.7872,0.0,0.0,0.0,0.0,0.0,0.0,0.0,-0.059,0.0,0.0,0.0,0.0,0.0,0.0,-0.2012,0.0,0.0,-0.3249,-0.2928,-0.42,0.0,0.0,0.0,-0.6978,0.0,0.0,0.0,0.0,0.0,0.0,0.0,0.0,0.0,0.0,0.0,-0.6387,0.0,0.0,0.0,0.0,0.0,-0.6387,-0.6387,0.0,0.0,-0.6387,-0.6387,-0.6387,0.0,-0.6387,-0.6387,-0.6387,-0.6387,-0.6441,-0.6556,-0.6556,-0.6556,0.0,0.0,0.0,-0.6586,-0.6709,0.0,0.0,0.0,0.0,0.0,0.0,0.0,0.0,0.0,0.0,-0.6373,-0.6385,-0.6363,0.0,0.0,0.0,0.0,0.0,0.0,0.0,0.0,0.0,0.0,-0.6325,-0.6325,-0.6325,0.0,-0.6396,-0.6387,-0.6387,-0.6387,-0.6387,-0.6387,-0.6556,-0.666,-0.6741,-0.6907,-0.7024,-0.7152,-0.7193,-0.721,-0.7207,-0.7169,-0.7109,-0.6986,-0.6978,-0.6978,-0.6999,-0.7157,-0.729,-0.7426,-0.7668,-0.7807,-0.7872,0.0,0.0,0.0,0.0,0.0,0.0,0.0,0.0,0.0,0.0,0.0,0.0,0.0,0.0,-0.086,0.0,-0.1339,-0.2195,-0.2167,-0.3178,0.0,-0.5072,-0.5458,0.0,0.0,0.0,0.0,0.0,0.0,-0.6738,0.0,0.0,0.0,0.0,0.0,0.0,0.0,0.0,-0.6387,0.0,0.0,-0.6387,0.0,0.0,-0.6452,-0.6452,0.0,-0.6478,-0.6564,-0.6564,-0.6564,-0.6564,-0.6564,-0.6622,-0.6684,-0.6684,-0.6684,-0.6711,-0.6834,-0.6779,0.0,-0.6782,-0.6709,0.0,-0.6564,0.0,0.0,0.0,0.0,0.0,0.0,0.0,-0.6387,-0.6387,-0.6387,-0.6387,0.0,0.0,0.0,0.0,0.0,0.0,0.0,0.0,-0.6328,-0.6328,-0.6328,-0.6328,0.0,0.0,-0.6387,-0.6387,-0.6387,-0.6408,-0.6452,-0.6624,-0.6747,-0.6869,-0.6989,-0.7139,-0.721,-0.721,-0.721,-0.7207,-0.7166,-0.7027,-0.6926,-0.6999,-0.6986,-0.694,-0.7135,-0.7263,-0.7309,-0.7611,-0.7774,-0.7872,0.0,0.0,0.0,0.0,0.0,0.0,0.0,0.0,0.0,0.0,0.0,0.0,0.0,0.0,0.0,0.0,0.0,0.0,-0.2882,-0.2256,0.0,0.0,-0.4058,-0.4127,-0.5277,0.0,0.0,0.0,0.0,0.0,0.0,0.0,0.0,0.0,-0.6387,0.0,-0.6387,-0.6387,-0.6387,-0.6387,-0.6392,-0.6395,-0.6408,-0.6581,0.0,-0.6635,-0.663,-0.6703,-0.6801,-0.6801,-0.6801,-0.6801,-0.6801,-0.6806,-0.6812,-0.6812,-0.6812,-0.6836,-0.6959,-0.6904,-0.6812,-0.6817,0.0,0.0,0.0,0.0,-0.6387,0.0,0.0,0.0,0.0,0.0,0.0,-0.6387,-0.6387,-0.6387,0.0,0.0,0.0,0.0,0.0,0.0,0.0,-0.6381,-0.6379,-0.6379,-0.6379,0.0,0.0,0.0,-0.6387,-0.6387,-0.6387,-0.6443,-0.6619,-0.6741,-0.6864,-0.6986,-0.7155,-0.721,-0.721,-0.721,-0.721,-0.7204,-0.704,-0.6923,-0.6812,-0.6817,-0.6817,-0.6823,-0.6945,-0.7138,-0.7317,-0.7614,-0.7774,-0.7872,0.0,0.0,0.0,0.0,0.0,0.0,0.0,0.0,0.0,0.0,0.0,0.0,0.0,0.0,0.0,0.0,0.0,0.0,0.0,0.0,0.0,-0.2598,-0.318,-0.3624,-0.4071,-0.4711,0.0,-0.5507,0.0,0.0,-0.6433,0.0,0.0,0.0,0.0,0.0,-0.6387,-0.6387,-0.6387,-0.6395,-0.6487,-0.6573,0.0,0.0,-0.6812,-0.688,-0.6787,-0.6777,-0.6801,-0.6801,-0.6801,-0.6801,-0.6801,-0.6864,-0.694,-0.694,-0.694,-0.6964,-0.7136,-0.7027,-0.6959,-0.7098,-0.6907,-0.6747,0.0,0.0,0.0,0.0,0.0,0.0,0.0,0.0,0.0,0.0,-0.6387,0.0,0.0,0.0,0.0,0.0,0.0,0.0,0.0,-0.6361,-0.6312,-0.6312,-0.6312,0.0,0.0,0.0,0.0,-0.6387,-0.6387,-0.6443,-0.6619,-0.6741,-0.6864,-0.6986,-0.7155,-0.721,-0.721,-0.721,-0.721,-0.721,-0.718,-0.7046,-0.6945,-0.7029,-0.7016,-0.695,-0.7119,-0.726,-0.7491,-0.7646,-0.7774,-0.7872,0.0356,0.0,0.0,0.0202,0.0,0.0,0.0,0.0,0.0,0.0,0.0,0.0,0.0,0.0,0.0,0.0,0.0,0.0,0.0,0.0,0.0,-0.1689,-0.1829,-0.2216,-0.281,-0.3275,0.0,-0.499,0.0,0.0,-0.6387,0.0,0.0,0.0,0.0,-0.6387,0.0,-0.6443,-0.6465,-0.6476,-0.6497,0.0,0.0,-0.6518,-0.6547,-0.6603,-0.6588,-0.6743,-0.6956,-0.6956,-0.6956,-0.6956,-0.6956,-0.7005,-0.7114,-0.7114,-0.7114,-0.7128,-0.7193,-0.7163,-0.7117,-0.713,-0.694,-0.6787,-0.6736,-0.6575,-0.6387,0.0,0.0,0.0,0.0,0.0,0.0,0.0,0.0,0.0,0.0,0.0,0.0,0.0,0.0,0.0,-0.6387,-0.638,-0.6342,-0.6342,-0.6393,0.0,0.0,0.0,0.0,-0.6387,-0.6489,-0.663,-0.6698,-0.6869,-0.6991,-0.7114,-0.718,-0.721,-0.721,-0.721,-0.721,-0.721,-0.721,-0.7144,-0.6994,-0.7163,-0.7144,-0.6997,-0.7166,-0.7304,-0.7527,-0.7595,-0.7728,-0.7872,0.0,0.0,0.0,0.0,0.0,0.0,0.0,0.0055,0.0,0.0,0.0,0.0,0.0,0.0,0.0,0.0,0.0,-0.0371,-0.1302,-0.0538,-0.0417,-0.1326,-0.0518,-0.0517,-0.155,-0.1586,0.0,0.0,0.0,0.0,0.0,0.0,0.0,0.0,0.0,0.0,0.0,-0.6516,-0.6567,0.0,-0.6406,-0.6353,-0.6366,-0.6204,-0.6136,-0.6148,-0.6241,-0.6662,-0.7102,-0.7102,-0.7099,-0.7154,-0.7154,-0.7154,-0.721,-0.721,-0.721,-0.721,-0.721,-0.721,-0.7185,-0.7032,-0.6915,-0.6798,-0.6692,-0.6559,-0.6411,-0.6411,-0.6398,-0.6387,0.0,0.0,0.0,0.0,0.0,0.0,0.0,0.0,0.0,0.0,0.0,0.0,0.0,0.0,0.0,0.0,0.0,0.0,0.0,0.0,0.0,0.0,-0.6643,0.0,-0.6825,0.0,-0.7172,-0.7235,-0.7202,-0.7196,-0.721,-0.721,-0.721,-0.721,-0.721,-0.7144,-0.6994,-0.7163,-0.7152,-0.7018,-0.7172,-0.7304,-0.7519,-0.7519,-0.7668,-0.7872,0.0,0.0,0.0,0.0,0.0,0.0813,0.0736,0.0292,0.0,0.0,0.0,0.0,0.0,0.0,0.0,0.0,0.0,0.0,0.0,0.0,0.0,-0.0293,-0.0116,-0.0115,-0.0287,-0.1148,-0.181,0.0,0.0,0.0,0.0,0.0,0.0,0.0,0.0,0.0,-0.6395,-0.6315,0.0,-0.6282,-0.617,-0.614,-0.6155,-0.626,-0.6246,-0.6248,-0.627,-0.6386,-0.6439,-0.6439,-0.6606,-0.6768,-0.6768,-0.6988,-0.721,-0.721,-0.721,-0.721,-0.721,-0.721,-0.7204,-0.7185,-0.7037,-0.6948,-0.6926,-0.6747,-0.6586,-0.6586,-0.6457,-0.6387,-0.6387,0.0,0.0,0.0,0.0,0.0,0.0,0.0,0.0,0.0,0.0,0.0,0.0,0.0,0.0,0.0,0.0,0.0,0.0,0.0,0.0,0.0,0.0,0.0,0.0,0.0,-0.6912,-0.7301,-0.7108,-0.7119,-0.721,-0.721,-0.721,-0.721,-0.721,-0.7144,-0.6994,-0.7163,-0.7199,-0.7182,-0.7202,-0.7304,-0.7519,-0.7519,-0.7668,-0.7872,0.0,0.0,0.0,0.0,0.0,0.0,0.0,0.0718,0.0,0.0544,0.0489,0.0493,0.0493,0.0497,0.0436,0.0247,0.0245,0.0242,0.0239,0.0236,0.0235,0.0233,0.0229,0.0,0.0,-0.0495,-0.1026,-0.1618,0.0,0.0,0.0,0.0,0.0,0.0,0.0,-0.5179,0.0,0.0,0.0,-0.4259,-0.414,-0.4088,-0.4147,-0.4686,-0.4533,-0.403,-0.47,-0.4477,-0.4085,-0.5035,-0.5425,-0.5423,-0.4806,-0.5142,-0.581,-0.598,-0.6429,-0.6988,-0.7154,-0.721,-0.721,-0.721,-0.7125,-0.6986,-0.6986,-0.6844,-0.6698,-0.6632,-0.6573,-0.6462,-0.6398,-0.6387,0.0,0.0,0.0,0.0,0.0,0.0,0.0,0.0,0.0,0.0,0.0,0.0,0.0,0.0,0.0,-0.6454,-0.6389,0.0,0.0,0.0,0.0,0.0,0.0,0.0,0.0,-0.7241,-0.7127,-0.7158,-0.721,-0.721,-0.721,-0.721,-0.721,-0.718,-0.713,-0.7188,-0.721,-0.7215,-0.7225,-0.7358,-0.7527,-0.7589,-0.7722,-0.7872,0.0,0.1657,0.0,0.0,0.1441,0.0,0.1233,0.121,0.1168,0.1033,0.102,0.101,0.1007,0.0969,0.0855,0.0601,0.06,0.0536,0.0528,0.0521,0.0517,0.0515,0.0508,0.0393,0.0168,0.0166,-0.0219,0.0,0.0,0.0,0.0,0.0,0.0,0.0,0.0,0.0,0.0,0.0,-0.2403,-0.2408,-0.2209,-0.2125,-0.218,-0.2909,-0.2629,-0.1903,-0.2854,-0.263,-0.1959,-0.3131,-0.3744,-0.3855,-0.2907,-0.3297,-0.4136,-0.436,-0.5087,-0.5926,-0.6146,-0.6258,-0.6371,-0.6652,-0.6701,-0.6741,-0.6937,-0.6891,-0.6766,-0.6643,-0.6597,-0.6551,-0.6403,-0.6387,0.0,0.0,0.0,0.0,0.0,0.0,0.0,0.0,0.0,0.0,0.0,0.0,0.0,0.0,0.0,-0.6487,-0.6392,-0.6503,0.0,0.0,0.0,-0.6815,-0.6839,0.0,-0.7172,0.0,-0.7199,-0.7185,-0.721,-0.721,-0.721,-0.721,-0.721,-0.721,-0.721,-0.721,-0.721,-0.7224,-0.7288,-0.741,-0.7535,-0.7657,-0.7774,-0.7875,0.0,0.0,0.0,0.0,0.0,0.0,0.0,0.1877,0.1667,0.1109,0.0985,0.0979,0.0904,0.0905,0.0901,0.0887,0.0886,0.0879,0.0865,0.0863,0.0857,0.0844,0.0842,0.0841,0.0841,0.0827,0.0765,0.0,0.0,0.0,0.0,0.0,0.0,0.0,0.0,0.0,0.0,-0.2251,-0.2123,-0.2126,-0.1944,-0.1847,-0.1847,-0.1959,-0.1903,-0.1791,-0.1903,-0.1903,-0.1679,-0.0728,-0.1287,-0.2403,-0.2291,-0.2516,-0.2851,-0.2907,-0.2962,-0.3074,-0.313,-0.3297,-0.3745,-0.4864,-0.5306,-0.5782,-0.679,-0.6891,-0.6766,-0.6643,-0.6478,-0.64,-0.6389,-0.6387,-0.6387,0.0,0.0,0.0,0.0,0.0,0.0,0.0,0.0,0.0,0.0,0.0,0.0,0.0,0.0,-0.6398,-0.6387,-0.6503,-0.6562,-0.6389,0.0,-0.6855,-0.6967,-0.688,0.0,-0.7315,-0.7103,-0.7109,-0.721,-0.721,-0.721,-0.721,-0.721,-0.721,-0.721,-0.721,-0.721,-0.7224,-0.7288,-0.741,-0.7535,-0.7657,-0.7774,-0.7947,0.0,0.0,0.0,0.0,0.0,0.0,0.0,0.1961,0.1915,0.1606,0.1592,0.1519,0.1509,0.1495,0.1418,0.1221,0.122,0.1211,0.1134,0.1133,0.113,0.1122,0.1121,0.1065,0.0897,0.0891,0.0888,0.0,0.0,0.0,0.0,0.0,0.0,0.0,0.0,-0.1315,-0.0843,-0.0108,0.0218,0.0273,0.0334,0.0336,0.028,-0.0448,-0.028,0.028,-0.0448,-0.028,0.0448,0.0897,0.0224,-0.0728,0.0,-0.0392,-0.112,-0.1287,-0.1845,-0.2459,-0.2627,-0.2795,-0.2962,-0.3466,-0.3689,-0.4074,-0.5212,-0.5562,-0.5818,-0.635,-0.6478,-0.6473,-0.64,-0.6446,-0.647,0.0,0.0,0.0,0.0,0.0,0.0,0.0,0.0,0.0,0.0,0.0,0.0,0.0,0.0,0.0,-0.6387,-0.6433,0.0,-0.6495,0.0,-0.6787,-0.6983,-0.6937,-0.7018,-0.7225,-0.7133,-0.7166,-0.721,-0.721,-0.721,-0.721,-0.721,-0.721,-0.7215,-0.7233,-0.7263,-0.7282,-0.7481,-0.7584,-0.7652,-0.7842,-0.8002,-0.8059,0.1849,0.0,0.184,0.0,0.1912,0.1927,0.197,0.1977,0.1973,0.1964,0.1937,0.1918,0.1918,0.1898,0.1811,0.1544,0.1541,0.1477,0.1459,0.1458,0.1458,0.1458,0.1458,0.0,0.1177,0.1177,0.1177,0.1177,0.1378,0.0,0.0,0.0,0.0,0.0,0.0213,0.0268,0.0645,0.1476,0.1818,0.182,0.1787,0.1795,0.1683,0.0841,0.1065,0.1683,0.0841,0.1065,0.1795,0.1795,0.1234,0.0673,0.1514,0.1234,0.0504,0.028,-0.0336,-0.1063,-0.1286,-0.1454,-0.1622,-0.1957,-0.2125,-0.2456,-0.3665,-0.405,-0.4514,-0.5616,-0.621,-0.6546,-0.6508,-0.6586,-0.6592,-0.6454,0.0,0.0,0.0,0.0,0.0,0.0,0.0,0.0,0.0,0.0,0.0,0.0,0.0,0.0,0.0,0.0,0.0,0.0,0.0,0.0,0.0,-0.7018,-0.713,-0.721,-0.721,-0.721,-0.721,-0.721,-0.721,-0.721,-0.721,-0.7232,-0.7214,-0.7301,-0.7298,-0.741,-0.7619,-0.7701,-0.7725,-0.7988,-0.8086,-0.8133,0.1868,0.1885,0.1904,0.1964,0.1975,0.1976,0.1977,0.1977,0.1966,0.1936,0.1905,0.1887,0.1887,0.1886,0.1862,0.1801,0.1795,0.1795,0.1795,0.1795,0.1795,0.0,0.0,0.1795,0.1795,0.1795,0.1795,0.1795,0.0,0.0,0.1748,0.0,0.0692,0.1652,0.0596,0.071,0.1806,0.1781,0.1794,0.1795,0.1795,0.1795,0.1795,0.1795,0.1795,0.1795,0.1795,0.1795,0.1795,0.1795,0.1795,0.1795,0.1795,0.1795,0.1795,0.1795,0.1739,0.1739,0.1739,0.1514,0.1009,-0.0168,-0.0672,-0.1226,-0.2298,-0.2507,-0.2927,-0.4314,-0.5578,-0.6487,-0.6745,-0.67,-0.6619,-0.6619,0.0,0.0,0.0,0.0,0.0,0.0,0.0,0.0,0.0,0.0,0.0,0.0,0.0,0.0,0.0,0.0,0.0,-0.6619,-0.6855,0.0,-0.6986,-0.7152,-0.721,-0.721,-0.721,-0.721,-0.721,-0.721,-0.721,-0.721,-0.721,-0.7222,-0.7277,-0.728,-0.735,-0.7529,-0.7655,-0.7701,-0.7717,-0.7831,-0.8012,-0.8133,0.1938,0.1947,0.1954,0.1973,0.1977,0.1977,0.1977,0.1977,0.1966,0.1935,0.1923,0.19,0.1859,0.1836,0.1816,0.0,0.1795,0.1795,0.0,0.1795,0.1795,0.1795,0.1795,0.1795,0.1795,0.1795,0.1795,0.1795,0.0,0.0,0.0,0.1413,0.1464,0.1736,0.1436,0.1447,0.1781,0.1791,0.1795,0.1795,0.1795,0.1795,0.1795,0.1795,0.1795,0.1795,0.1795,0.1795,0.1795,0.1795,0.1795,0.1795,0.1795,0.1795,0.1795,0.1795,0.1795,0.1795,0.1795,0.1739,0.157,0.1177,0.1009,0.0615,-0.0556,-0.1541,-0.2395,-0.303,-0.3675,-0.4308,-0.5161,-0.5499,-0.5875,-0.6597,-0.6744,0.0,0.0,0.0,0.0,0.0,0.0,0.0,0.0,-0.6387,0.0,0.0,0.0,0.0,0.0,0.0,0.0,0.0,-0.6945,0.0,-0.7155,-0.7191,-0.721,-0.721,-0.721,-0.721,-0.721,-0.721,-0.721,-0.721,-0.721,-0.7222,-0.7285,-0.7426,-0.7532,-0.7655,-0.7771,-0.7869,-0.7956,-0.8076,-0.8195,-0.8318,0.1971,0.1977,0.1977,0.1977,0.1967,0.1963,0.1975,0.1957,0.1936,0.1917,0.1904,0.1819,0.1829,0.1796,0.0,0.1794,0.1795,0.1795,0.1795,0.1795,0.1795,0.1795,0.1795,0.1795,0.1795,0.0,0.0,0.1795,0.1795,0.1785,0.1822,0.1822,0.1822,0.1823,0.1787,0.1795,0.1795,0.1795,0.1795,0.1795,0.1795,0.1795,0.1795,0.1795,0.1795,0.1795,0.1795,0.1795,0.1795,0.1795,0.1795,0.1795,0.1795,0.1795,0.1795,0.1795,0.1795,0.1795,0.1795,0.1795,0.1795,0.1795,0.1795,0.1627,0.0841,-0.0334,-0.1378,-0.1651,-0.2256,-0.2961,-0.385,-0.4564,-0.5268,-0.6073,-0.66,-0.6839,-0.6747,0.0,0.0,0.0,0.0,0.0,0.0,-0.6575,0.0,0.0,0.0,0.0,0.0,0.0,0.0,-0.6978,-0.6986,0.0,-0.721,-0.721,-0.7232,-0.7222,-0.7269,-0.7293,-0.7293,-0.7293,-0.7293,-0.7293,-0.7293,-0.7361,-0.7478,-0.7554,-0.7657,-0.7771,-0.7842,-0.8007,-0.8128,-0.8138,-0.8274,-0.8429,0.1971,0.1977,0.0,0.0,0.1952,0.0,0.1969,0.1924,0.1885,0.1883,0.1857,0.1772,0.1798,0.1825,0.1819,0.1793,0.0,0.0,0.0,0.1795,0.1795,0.1795,0.1795,0.1795,0.1795,0.1795,0.1795,0.1795,0.1795,0.1795,0.1795,0.1795,0.1795,0.1795,0.1795,0.1795,0.1795,0.1795,0.1795,0.1795,0.1795,0.1795,0.1795,0.1795,0.1795,0.1795,0.1795,0.1795,0.1795,0.1795,0.1795,0.1795,0.1795,0.1795,0.1795,0.1795,0.1795,0.1795,0.1795,0.1795,0.1795,0.1795,0.1795,0.1795,0.1795,0.0953,0.0056,-0.0168,-0.1174,-0.218,-0.2796,-0.3752,-0.464,-0.5079,-0.612,-0.681,-0.6687,0.0,0.0,0.0,0.0,0.0,0.0,-0.6801,-0.6801,0.0,0.0,0.0,0.0,0.0,-0.676,-0.6989,-0.7005,-0.7059,-0.7221,-0.7232,-0.7236,-0.7293,-0.7464,-0.7519,-0.7519,-0.7519,-0.7519,-0.7519,-0.7519,-0.7587,-0.7701,-0.7701,-0.7769,-0.7872,-0.7872,-0.8012,-0.8128,-0.8119,-0.8209,-0.8416,0.0,0.0,0.1977,0.1977,0.1952,0.1934,0.1941,0.191,0.1877,0.1854,0.1787,0.1772,0.1798,0.1789,0.1787,0.1794,0.1774,0.1825,0.1793,0.1795,0.1795,0.1795,0.1795,0.1795,0.1795,0.1795,0.1795,0.1795,0.1795,0.1795,0.1795,0.1795,0.1795,0.1795,0.1795,0.1795,0.1795,0.1795,0.1795,0.1795,0.1795,0.1795,0.1795,0.1795,0.1795,0.1795,0.1795,0.1795,0.1795,0.1795,0.1795,0.1795,0.1795,0.1795,0.1795,0.1795,0.1795,0.1795,0.1795,0.1795,0.1795,0.1795,0.1795,0.1795,0.1795,0.157,0.1346,0.1289,0.084,0.0168,-0.0839,-0.1617,-0.2723,-0.4668,-0.545,-0.61,-0.6926,-0.6978,0.0,0.0,-0.6817,-0.6771,-0.6798,-0.6801,-0.6801,0.0,0.0,0.0,0.0,-0.7013,-0.7109,-0.7166,-0.7203,-0.7266,-0.7293,-0.7385,-0.7448,-0.7475,-0.7505,-0.7519,-0.7519,-0.7519,-0.7519,-0.7519,-0.7519,-0.7587,-0.7701,-0.7701,-0.7769,-0.7872,-0.7872,-0.8002,-0.8182,-0.8089,-0.8209,-0.8405,0.1971,0.1977,0.1977,0.1977,0.194,0.1915,0.1929,0.1881,0.1843,0.1783,0.1828,0.1813,0.1797,0.177,0.1765,0.1793,0.178,0.1778,0.1794,0.1795,0.1795,0.1795,0.1795,0.1795,0.1795,0.1795,0.1795,0.1795,0.1795,0.1795,0.1795,0.1795,0.1795,0.1795,0.1795,0.1795,0.1795,0.1795,0.1795,0.1795,0.1795,0.1795,0.1795,0.1795,0.1795,0.1795,0.1795,0.1795,0.1795,0.1795,0.1795,0.1795,0.1795,0.1795,0.1795,0.1795,0.1795,0.1795,0.1795,0.1795,0.1795,0.1795,0.1795,0.1795,0.1795,0.1795,0.1795,0.1795,0.1683,0.129,0.0504,-0.0336,-0.1399,-0.3019,-0.4306,-0.5411,-0.6196,-0.6691,0.0,-0.6986,-0.6926,-0.6907,-0.6959,-0.6964,-0.6964,-0.6964,0.0,0.0,-0.7138,-0.7203,-0.7236,-0.7236,-0.7355,-0.7418,-0.7418,-0.754,-0.7603,-0.7603,-0.7655,-0.7679,-0.7679,-0.7679,-0.7679,-0.7679,-0.7679,-0.7717,-0.778,-0.778,-0.7815,-0.7872,-0.7872,-0.7986,-0.8144,-0.8141,-0.8174,-0.8326,0.1969,0.1977,0.1975,0.1971,0.1923,0.1893,0.1914,0.1848,0.1804,0.1773,0.1811,0.1793,0.1789,0.1746,0.1737,0.1784,0.1792,0.1795,0.1795,0.1795,0.1795,0.1795,0.1795,0.1795,0.1795,0.1795,0.1795,0.1795,0.1795,0.1795,0.1795,0.1795,0.1795,0.1795,0.1795,0.1795,0.1795,0.1795,0.1795,0.1795,0.1795,0.1795,0.1795,0.1795,0.1795,0.1795,0.1795,0.1795,0.1795,0.1795,0.1795,0.1795,0.1795,0.1795,0.1795,0.1795,0.1795,0.1795,0.1795,0.1795,0.1795,0.1795,0.1795,0.1795,0.1795,0.1795,0.1795,0.1795,0.1795,0.1739,0.1402,0.056,-0.0392,-0.1119,-0.3019,-0.4561,-0.5156,0.0,-0.6847,-0.701,-0.701,-0.7048,-0.7199,-0.7226,-0.7237,-0.7237,-0.7254,-0.7255,0.0,-0.7323,-0.7333,-0.7333,-0.7491,-0.7554,-0.7573,-0.7674,-0.7728,-0.7728,-0.7823,-0.7872,-0.7872,-0.7872,-0.7872,-0.7872,-0.7872,-0.7872,-0.7872,-0.7872,-0.7872,-0.7872,-0.7872,-0.8007,-0.8117,-0.8117,-0.8119,-0.8209,0.1965,0.1977,0.1969,0.1943,0.1909,0.1879,0.1799,0.1821,0.1797,0.1802,0.1797,0.1785,0.1814,0.1771,0.1774,0.1813,0.178,0.1795,0.1795,0.1795,0.1795,0.1795,0.1795,0.1795,0.1795,0.1795,0.1795,0.1795,0.1795,0.1795,0.1795,0.1795,0.1795,0.1795,0.1795,0.1795,0.1795,0.1795,0.1795,0.1795,0.1795,0.1795,0.1795,0.1795,0.1795,0.1795,0.1795,0.1795,0.1795,0.1795,0.1795,0.1795,0.1795,0.1795,0.1795,0.1795,0.1795,0.1795,0.1795,0.1795,0.1795,0.1795,0.1795,0.1795,0.1795,0.1795,0.1795,0.1795,0.1795,0.1795,0.1739,0.1346,0.0616,-0.0728,-0.1455,-0.2682,-0.5016,0.0,-0.6017,-0.7072,-0.7182,-0.7191,-0.721,-0.7247,-0.7307,-0.7307,-0.7404,-0.747,-0.7489,-0.7589,-0.7646,-0.7646,-0.7663,-0.772,-0.7815,-0.7837,-0.7845,-0.7845,-0.7861,-0.7872,-0.7872,-0.7872,-0.7872,-0.7872,-0.7872,-0.7872,-0.7872,-0.7872,-0.7872,-0.7872,-0.7872,-0.8007,-0.8117,-0.8117,-0.813,-0.8098,0.1919,0.1928,0.1923,0.1909,0.1881,0.1851,0.1821,0.1804,0.1789,0.1773,0.1785,0.179,0.1776,0.1828,0.1827,0.1774,0.1828,0.1778,0.1794,0.1795,0.1795,0.1795,0.1795,0.1795,0.1795,0.1795,0.1795,0.1795,0.1795,0.1795,0.1795,0.1795,0.1795,0.1795,0.1795,0.1795,0.1795,0.1795,0.1795,0.1795,0.1795,0.1795,0.1795,0.1795,0.1795,0.1795,0.1795,0.1795,0.1795,0.1795,0.1795,0.1795,0.1795,0.1795,0.1795,0.1795,0.1795,0.1795,0.1795,0.1795,0.1795,0.1795,0.1795,0.1795,0.1795,0.1795,0.1795,0.1795,0.1795,0.1795,0.1795,0.1683,0.129,0.0448,-0.0336,0.0,0.0,-0.3747,-0.4711,-0.6109,-0.6237,-0.6532,-0.7282,-0.7342,-0.7304,-0.7429,-0.7486,-0.7546,-0.7614,-0.7671,-0.7731,-0.779,-0.7793,-0.7818,-0.7872,-0.7872,-0.7872,-0.7872,-0.7872,-0.7872,-0.7872,-0.7872,-0.7872,-0.7872,-0.7872,-0.7872,-0.7872,-0.7872,-0.7872,-0.7872,-0.7872,-0.8007,-0.8117,-0.8117,-0.8095,-0.816,0.1868,0.1875,0.1873,0.1866,0.1851,0.1773,0.18,0.1795,0.1787,0.1818,0.178,0.1792,0.1785,0.1825,0.1822,0.1783,0.1825,0.1825,0.1793,0.1789,0.1788,0.1795,0.1795,0.1795,0.1795,0.1795,0.1795,0.1795,0.1795,0.1795,0.1795,0.1795,0.1795,0.1795,0.1795,0.1795,0.1795,0.1795,0.1795,0.1795,0.1795,0.1795,0.1795,0.1795,0.1795,0.1795,0.1795,0.1795,0.1795,0.1795,0.1795,0.1795,0.1795,0.1795,0.1795,0.1795,0.1795,0.1795,0.1795,0.1795,0.1795,0.1795,0.1795,0.1795,0.1795,0.1795,0.1795,0.1795,0.1795,0.1795,0.1795,0.1795,0.1683,0.1346,0.0,0.0,0.0,-0.207,-0.3375,-0.5258,-0.5439,-0.5975,-0.738,-0.7459,-0.7459,-0.7554,-0.7587,-0.7641,-0.7736,-0.7741,-0.778,-0.7869,-0.7872,-0.7872,-0.7872,-0.7872,-0.7872,-0.7872,-0.7872,-0.7872,-0.7872,-0.7872,-0.7872,-0.7872,-0.7872,-0.7872,-0.7872,-0.7872,-0.7888,-0.7974,-0.7974,-0.8032,-0.8125,-0.8182,-0.816,-0.8204,0.1832,0.1786,0.1835,0.1806,0.1823,0.1773,0.18,0.1795,0.1794,0.1792,0.1793,0.1784,0.1811,0.1776,0.1781,0.181,0.1777,0.1793,0.1795,0.1823,0.1821,0.1793,0.1795,0.1795,0.1795,0.1795,0.1795,0.1795,0.1795,0.1795,0.1795,0.1795,0.1795,0.1795,0.1795,0.1795,0.1795,0.1795,0.1795,0.1795,0.1795,0.1795,0.1795,0.1795,0.1795,0.1795,0.1795,0.1795,0.1795,0.1795,0.1795,0.1795,0.1795,0.1795,0.1795,0.1795,0.1795,0.1795,0.1795,0.1795,0.1795,0.1795,0.1795,0.1795,0.1795,0.1795,0.1795,0.1795,0.1795,0.1795,0.1795,0.1795,0.1683,0.1346,0.0,0.0,-0.1064,-0.14,-0.242,-0.5201,-0.5492,-0.6045,-0.7388,-0.7614,-0.7679,-0.7687,-0.7785,-0.7847,-0.7858,-0.7858,-0.7861,-0.7872,-0.7872,-0.7872,-0.7872,-0.7872,-0.7872,-0.7872,-0.7872,-0.7872,-0.7872,-0.7872,-0.7872,-0.7872,-0.7872,-0.7872,-0.7872,-0.7872,-0.7999,-0.8103,-0.8103,-0.8108,-0.8144,-0.8307,-0.8255,-0.8177,0.1808,0.1812,0.1808,0.1797,0.1804,0.1802,0.1827,0.1782,0.1789,0.1824,0.1783,0.1791,0.1779,0.1788,0.1791,0.1779,0.1789,0.1795,0.1795,0.1821,0.1809,0.1821,0.1822,0.1776,0.1795,0.1795,0.1795,0.1795,0.1795,0.1795,0.1795,0.1795,0.1795,0.1795,0.1795,0.1795,0.1795,0.1795,0.1795,0.1795,0.1795,0.1795,0.1795,0.1795,0.1795,0.1795,0.1795,0.1795,0.1795,0.1795,0.1795,0.1795,0.1795,0.1795,0.1795,0.1795,0.1795,0.1795,0.1795,0.1795,0.1795,0.1795,0.1795,0.1795,0.1795,0.1795,0.18,0.1819,0.1823,0.1823,0.1823,0.1823,0.176,0.163,0.0,0.1294,0.0512,0.0171,-0.0689,-0.2768,-0.3104,-0.4056,-0.6273,-0.6506,-0.682,-0.7741,-0.7847,-0.7872,-0.7872,-0.7872,-0.7872,-0.7872,-0.7872,-0.7872,-0.7872,-0.7872,-0.7872,-0.7872,-0.801,-0.8007,-0.7877,-0.8027,-0.8057,-0.8051,-0.8065,-0.8098,-0.8089,-0.8016,-0.8057,-0.8157,-0.8147,-0.8147,-0.8291,-0.8386,-0.8405,-0.8405,0.178,0.178,0.178,0.178,0.1789,0.1788,0.1822,0.1782,0.1788,0.1822,0.1782,0.1795,0.1795,0.1795,0.1795,0.1795,0.1795,0.1795,0.1795,0.1758,0.179,0.179,0.179,0.1804,0.178,0.178,0.1785,0.1795,0.1795,0.1795,0.1795,0.1795,0.1795,0.1795,0.1795,0.1795,0.1795,0.1795,0.1795,0.1795,0.1795,0.1795,0.1795,0.1795,0.1795,0.1795,0.1795,0.1795,0.1795,0.1795,0.1795,0.1795,0.1795,0.1795,0.1795,0.1795,0.1795,0.1795,0.1795,0.1795,0.1795,0.1795,0.1795,0.1797,0.1807,0.1809,0.1818,0.1849,0.1855,0.1855,0.1855,0.1855,0.1848,0.1827,0.1823,0.1716,0.1446,0.1217,0.041,-0.1321,-0.161,-0.2633,-0.5032,-0.5545,-0.6202,-0.7189,-0.7686,-0.7872,-0.7872,-0.7872,-0.7872,-0.7872,-0.7872,-0.7872,-0.7872,-0.7872,-0.7891,-0.7991,-0.8075,-0.8092,-0.7992,-0.8157,-0.819,-0.8114,-0.8198,-0.8172,-0.8164,-0.8144,-0.816,-0.8231,-0.8185,-0.8247,-0.8369,-0.8443,-0.8497,-0.8541,0.1804,0.1804,0.1804,0.1804,0.1775,0.1795,0.1795,0.1795,0.1795,0.1795,0.1795,0.1795,0.1795,0.1795,0.1795,0.1795,0.1795,0.1795,0.1794,0.1737,0.1704,0.1703,0.1704,0.1718,0.1804,0.1804,0.182,0.1795,0.1795,0.1795,0.1795,0.1795,0.1795,0.1795,0.1795,0.1795,0.1795,0.1795,0.1795,0.1795,0.1795,0.1795,0.1795,0.1795,0.1795,0.1795,0.1795,0.1795,0.1795,0.1795,0.1795,0.1795,0.1795,0.1795,0.1795,0.1795,0.1795,0.1795,0.1795,0.1795,0.1795,0.1795,0.1795,0.1803,0.1776,0.1783,0.1791,0.188,0.1886,0.1886,0.1886,0.1886,0.1886,0.1886,0.1886,0.1768,0.1473,0.1414,0.0711,-0.1263,-0.1506,-0.212,-0.3747,-0.5105,-0.5906,-0.5906,-0.7133,-0.7872,-0.7872,-0.7872,-0.7872,-0.7872,-0.7872,-0.7872,-0.7872,-0.7872,-0.7993,-0.8114,-0.8117,-0.8117,-0.817,-0.8172,-0.8175,-0.8172,-0.8175,-0.8175,-0.8175,-0.8172,-0.8172,-0.8186,-0.8369,-0.8345,-0.8266,-0.8503,-0.8516,-0.8435,0.1809,0.1804,0.1811,0.1778,0.1826,0.1825,0.1792,0.1795,0.1795,0.1795,0.1795,0.1795,0.1795,0.1795,0.1795,0.1795,0.1795,0.1777,0.1734,0.1696,0.1665,0.1643,0.1663,0.1751,0.1803,0.1804,0.182,0.1795,0.1795,0.1795,0.1795,0.1795,0.1795,0.1795,0.1795,0.1795,0.1795,0.1795,0.1795,0.1795,0.1795,0.1795,0.1795,0.1795,0.1795,0.1795,0.1795,0.1795,0.1795,0.1795,0.1795,0.1795,0.1795,0.1795,0.1795,0.1795,0.1795,0.1795,0.1795,0.1795,0.1795,0.1795,0.1795,0.1803,0.1776,0.1783,0.1797,0.1907,0.1917,0.1917,0.1917,0.1917,0.1911,0.1889,0.1886,0.1893,0.1735,0.1558,0.1205,0.0673,0.0184,-0.0675,-0.2092,-0.2771,-0.394,-0.5784,-0.7133,-0.7872,-0.7872,-0.7872,-0.7872,-0.7872,-0.7872,-0.7872,-0.7872,-0.7872,-0.7949,-0.7988,-0.81,-0.8155,-0.8117,-0.8367,-0.844,-0.8367,-0.8448,-0.8481,-0.8475,-0.8397,-0.841,-0.8478,-0.8435,-0.8446,-0.8489,-0.8562,-0.8565,-0.8543,0.1826,0.1823,0.1774,0.1792,0.178,0.1774,0.1792,0.1795,0.1795,0.1795,0.1795,0.1795,0.1795,0.1795,0.1795,0.1795,0.1795,0.1769,0.1708,0.1699,0.1731,0.1637,0.1663,0.1695,0.1785,0.1798,0.182,0.1795,0.1795,0.1795,0.1795,0.1795,0.1795,0.1795,0.1795,0.1795,0.1795,0.1795,0.1795,0.1795,0.1795,0.1795,0.1795,0.1795,0.1795,0.1795,0.1795,0.1795,0.1795,0.1795,0.1795,0.1795,0.1795,0.1795,0.1795,0.1795,0.1795,0.1795,0.1795,0.1795,0.1797,0.181,0.1804,0.1806,0.1849,0.1858,0.1876,0.1937,0.1949,0.1949,0.1949,0.1949,0.1943,0.1924,0.1922,0.1928,0.1947,0.1766,0.1589,0.1481,0.1112,0.0555,-0.0431,-0.1294,-0.2709,-0.4921,-0.6335,-0.7133,-0.7133,-0.7625,-0.7872,-0.7872,-0.7872,-0.7872,-0.7872,-0.798,-0.7967,-0.8016,-0.8166,-0.8244,-0.8336,-0.8489,-0.8549,-0.8489,-0.8557,-0.8587,-0.8581,-0.8513,-0.8497,-0.8519,-0.8494,-0.85,-0.8524,-0.8571,-0.8587,-0.8587,0.1791,0.1791,0.1792,0.1795,0.1793,0.1792,0.1795,0.1795,0.1795,0.1795,0.1795,0.1795,0.1795,0.1795,0.1795,0.1795,0.1793,0.1767,0.1712,0.1786,0.1776,0.172,0.1693,0.1708,0.1708,0.179,0.182,0.1795,0.1795,0.1795,0.1795,0.1795,0.1795,0.1795,0.1795,0.1795,0.1795,0.1795,0.1795,0.1795,0.1795,0.1795,0.1795,0.1795,0.1795,0.1795,0.1795,0.1795,0.1795,0.1795,0.1795,0.1795,0.1795,0.1795,0.1795,0.1795,0.1795,0.1795,0.1795,0.1797,0.1806,0.1776,0.1821,0.1819,0.1877,0.189,0.1907,0.1964,0.1977,0.1977,0.1977,0.1977,0.1977,0.1977,0.1977,0.1977,0.1977,0.1977,0.1915,0.1606,0.1544,0.1359,0.105,-0.0493,-0.2092,-0.363,-0.4983,-0.5722,-0.5722,-0.7011,-0.7747,-0.7747,-0.7811,-0.7877,-0.7888,-0.8059,-0.8108,-0.822,-0.8242,-0.8364,-0.8573,-0.8584,-0.8587,-0.8587,-0.8587,-0.8587,-0.8587,-0.8587,-0.8527,-0.8443,-0.8546,-0.8524,-0.8446,-0.8549,-0.8587,-0.8587,0.1814,0.1814,0.1822,0.1791,0.1776,0.1823,0.1791,0.1795,0.1795,0.1795,0.1795,0.1795,0.1795,0.1795,0.1795,0.1795,0.1774,0.1809,0.1795,0.1724,0.1708,0.1696,0.1724,0.1794,0.1794,0.1801,0.182,0.1795,0.1795,0.1795,0.1795,0.1795,0.1795,0.1795,0.1795,0.1795,0.1795,0.1795,0.1795,0.1795,0.1795,0.1795,0.1795,0.1795,0.1795,0.1795,0.1795,0.1795,0.1795,0.1795,0.1795,0.1795,0.1795,0.1795,0.1795,0.1795,0.1795,0.1795,0.1795,0.1812,0.1775,0.1781,0.1853,0.1876,0.1913,0.1922,0.1932,0.1969,0.1977,0.1977,0.1977,0.1977,0.1977,0.1977,0.1977,0.1977,0.1977,0.1977,0.1977,0.1915,0.1667,0.1482,0.142,-0.037,-0.1724,-0.2341,-0.3632,-0.4306,-0.4306,-0.5598,-0.6337,-0.6337,-0.7378,-0.798,-0.8075,-0.8103,-0.813,-0.8095,-0.8288,-0.8405,-0.8456,-0.8546,-0.8587,-0.8587,-0.8587,-0.8587,-0.8587,-0.8587,-0.8573,-0.8554,-0.8579,-0.8571,-0.8554,-0.8579,-0.8587,-0.8587,0.1823,0.1826,0.1776,0.1792,0.1782,0.1776,0.1793,0.1795,0.1795,0.1795,0.1795,0.1795,0.1795,0.1795,0.1795,0.1795,0.178,0.182,0.1805,0.1748,0.1741,0.1727,0.1755,0.1826,0.1826,0.1826,0.1779,0.1795,0.1795,0.1795,0.1795,0.1795,0.1795,0.1795,0.1795,0.1795,0.1795,0.1795,0.1795,0.1795,0.1795,0.1795,0.1795,0.1795,0.1795,0.1795,0.1795,0.1795,0.1795,0.1795,0.1795,0.1795,0.1795,0.1795,0.1795,0.1795,0.1805,0.1817,0.1817,0.1839,0.1866,0.1821,0.1896,0.1911,0.1928,0.1871,0.194,0.197,0.1977,0.1977,0.1977,0.1977,0.1977,0.1977,0.1977,0.1977,0.1977,0.1977,0.1977,0.1977,0.1853,0.1667,0.1544,0.0435,-0.0435,-0.0802,-0.2184,-0.3008,-0.2987,-0.4258,-0.4966,-0.4966,-0.5655,-0.6369,-0.7117,-0.7233,-0.7581,-0.8228,-0.8356,-0.8446,-0.8503,-0.856,-0.8587,-0.8587,-0.8587,-0.8587,-0.8587,-0.8587,-0.8587,-0.8587,-0.8587,-0.8587,-0.8587,-0.8587,-0.8587,-0.8587,0.1789,0.1795,0.1795,0.1795,0.1795,0.1795,0.1795,0.1795,0.1795,0.1795,0.1795,0.1795,0.1795,0.1795,0.1795,0.1795,0.1795,0.1784,0.1814,0.1781,0.1784,0.1814,0.1781,0.1795,0.1795,0.1795,0.1795,0.1795,0.1795,0.1795,0.1795,0.1795,0.1795,0.1795,0.1795,0.1795,0.1795,0.1795,0.1795,0.1795,0.1795,0.1795,0.1795,0.1795,0.1795,0.1795,0.1795,0.1795,0.1795,0.1795,0.1795,0.1795,0.1795,0.1795,0.1795,0.1795,0.1817,0.1783,0.1783,0.1866,0.19,0.1925,0.1935,0.1939,0.1939,0.1939,0.1946,0.1971,0.1977,0.1977,0.1977,0.1977,0.1977,0.1977,0.1977,0.1977,0.1977,0.1977,0.1977,0.1977,0.1977,0.1855,0.1549,0.1251,0.0941,0.0623,-0.0761,-0.1597,-0.1582,-0.2877,-0.3603,-0.3603,-0.3796,-0.4507,-0.5742,-0.5877,-0.6513,-0.7719,-0.7719,-0.803,-0.8587,-0.8587,-0.8587,-0.8587,-0.8587,-0.8587,-0.8587,-0.8587,-0.8587,-0.8587,-0.832,-0.8251,-0.8184,-0.7982,-0.8048,-0.8251,0.1789,0.1795,0.1795,0.1795,0.1795,0.1795,0.1795,0.1795,0.1795,0.1795,0.1795,0.1795,0.1795,0.1795,0.1795,0.1795,0.1795,0.1793,0.1789,0.1793,0.1793,0.1789,0.1793,0.1795,0.1795,0.1795,0.1795,0.1795,0.1795,0.1795,0.1795,0.1795,0.1795,0.1795,0.1795,0.1795,0.1795,0.1795,0.1795,0.1795,0.1795,0.1795,0.1795,0.1795,0.1795,0.1795,0.1795,0.1795,0.1795,0.1795,0.1795,0.1795,0.1795,0.1795,0.1795,0.1795,0.1817,0.1783,0.1783,0.1823,0.1926,0.193,0.1951,0.197,0.197,0.197,0.1972,0.1976,0.1977,0.1977,0.1977,0.1977,0.1977,0.1977,0.1977,0.1977,0.1977,0.1977,0.1977,0.1977,0.1977,0.1862,0.1508,0.1433,0.1313,0.1024,0.0509,0.0191,0.0193,-0.1352,-0.2253,-0.2253,-0.3346,-0.4079,-0.4393,-0.4401,-0.4563,-0.4883,-0.4883,-0.6158,-0.8587,-0.8587,-0.8587,-0.8587,-0.8587,-0.8587,-0.8587,-0.8587,-0.8587,-0.8454,-0.7181,-0.6711,-0.6575,-0.5299,-0.5635,-0.6711,0.1789,0.1795,0.1795,0.1795,0.1795,0.1795,0.1795,0.1795,0.1795,0.1795,0.1795,0.1795,0.1795,0.1795,0.1795,0.1795,0.1795,0.1795,0.1795,0.1795,0.1795,0.1795,0.1795,0.1795,0.1795,0.1795,0.1795,0.1795,0.1795,0.1795,0.1795,0.1795,0.1795,0.1795,0.1795,0.1795,0.1795,0.1795,0.1795,0.1795,0.1795,0.1795,0.1795,0.1795,0.1795,0.1795,0.1795,0.1795,0.1795,0.1795,0.1795,0.1798,0.1814,0.1821,0.1823,0.184,0.1867,0.1832,0.1832,0.1923,0.1956,0.1956,0.1967,0.1977,0.1977,0.1977,0.1977,0.1977,0.1977,0.1977,0.1977,0.1977,0.1977,0.1977,0.1977,0.1977,0.1977,0.1977,0.1977,0.1977,0.199,0.1942,0.1765,0.1655,0.1476,0.1418,0.1042,0.072,0.0523,-0.0197,-0.066,-0.0858,-0.1451,-0.2117,-0.2996,-0.2996,-0.3404,-0.4293,-0.4293,-0.4962,-0.617,-0.617,-0.617,-0.617,-0.617,-0.617,-0.6237,-0.7045,-0.6909,-0.6237,-0.6374,-0.5904,-0.5166,-0.4562,-0.4696,-0.5233]}]]